[[{"header":{"parameterUnit":"m.s-1","parameterCategory":1,"la1":30.6,"la2":29.2853,"lo1":-89.7004,"lo2":-87.6739,"dy":0.0162,"dx":0.0183,"nx":112,"ny":82,"refTime":"2023-08-20T18:00:00:Z","depth":0,"parameterNumber":2,"parameterNumberName":"U-component_of_WINDS"},"data":[0.0,0.0,0.0,0.0,0.0,0.0,0.0,0.0,0.0,0.0,0.0,0.0,0.0,0.0,0.0,0.0,0.0,0.0,0.0,0.0,0.0,0.0,0.0,0.0,0.0,0.0,0.0,0.0,0.0,0.0,0.0,0.0,0.0,0.0,0.0,0.0,0.0,0.0,0.0,0.0,0.0,0.0,0.0,0.0,0.0,0.0,0.0,0.0,0.0,0.0,0.0,0.0,0.0,0.0,0.0,0.0,0.0,0.0,0.0,0.0,0.0,0.0,0.0,0.0,0.0,0.0,0.0,0.0,0.0,0.0,0.0,0.0,0.0,0.0,0.0,0.0,0.0,0.0,0.0,0.0,0.0,0.0,0.0,0.0,0.0,0.0,0.0,0.0,0.0,0.0,0.6687,0.7613,1.055,1.2282,1.1939,1.2946,1.2411,0.9662,0.0,0.0,0.0,0.0,0.0,0.0,0.0,0.0,0.0,0.0,0.0,0.0,0.0,0.0,0.0,0.0,0.0,0.0,0.0,0.0,0.0,0.0,0.0,0.0,0.0,0.0,0.0,0.0,0.0,0.0,0.0,0.0,0.0,0.0,0.0,0.0,0.0,0.0,0.0,0.0,0.0,0.0,0.0,0.0,0.0,0.0,0.0,0.0,0.0,0.0,0.0,0.0,0.0,0.0,0.0,0.0,0.0,0.0,0.0,0.0,0.0,0.0,0.0,0.0,0.0,0.0,0.0,0.0,0.0,0.0,0.0,0.0,0.0,0.0,0.0,0.0,0.0,0.0,0.0,0.0,0.0,0.0,0.0,0.0,0.0,0.0,0.0,0.0,0.0,0.0,0.0,0.0,0.0,0.0,0.0,0.0,0.0,0.0,0.0,0.0,0.0,0.0,0.0,0.0,0.6056,0.8425,0.9393,1.066,1.2653,1.1887,1.1008,1.0372,0.0,0.0,0.0,0.0,0.0,0.0,0.0,0.0,0.0,0.0,0.0,0.0,0.0,0.0,0.0,0.0,0.0,0.0,0.0,0.0,0.0,0.0,0.0,0.0,0.0,0.0,0.0,0.0,0.0,0.0,0.0,0.0,0.0,0.0,0.0,0.0,0.0,0.0,0.0,0.0,0.0,0.0,0.0,0.0,0.0,0.0,0.0,0.0,0.0,0.0,0.0,0.0,0.0,0.0,0.0,0.0,0.0,0.0,0.0,0.0,0.0,0.0,0.0,0.0,0.0,0.0,0.0,0.0,0.0,0.0,0.0,0.0,0.0,0.0,0.0,0.0,0.0,0.0,0.0,0.0,0.0,0.0,0.0,0.0,0.0,0.0,0.0,0.0,0.0,0.0,0.0,0.0,0.0,0.0,0.0,0.0,0.0,0.0,0.0,0.0,0.0,0.0,0.0,0.5232,0.5762,0.7863,0.9039,1.0295,1.1844,1.1383,1.0822,1.037,0.9487,0.0,0.0,0.0,0.0,0.0,0.0,0.0,0.0,0.0,0.0,0.0,0.0,0.0,0.0,0.0,0.0,0.0,0.0,0.0,0.0,0.0,0.0,0.0,0.0,0.0,0.0,0.0,0.0,0.0,0.0,0.0,0.0,0.0,0.0,0.0,0.0,0.0,0.0,0.0,0.0,0.0,0.0,0.0,0.0,0.0,0.0,0.0,0.0,0.0,0.0,0.0,0.0,0.0,0.0,0.0,0.0,0.0,0.0,0.0,0.0,0.0,0.0,0.0,0.0,0.0,0.0,0.0,0.0,0.0,0.0,0.0,0.0,0.0,0.0,0.0,0.0,0.0,0.0,0.0,0.0,0.0,0.0,0.0,0.0,0.0,0.0,0.0,0.0,0.0,0.0,0.0,0.0,0.0,0.0,0.0,0.0,0.0,0.0,0.0,0.0,0.0,0.0,0.5328,0.5974,0.7346,0.8723,0.9841,1.0621,1.0668,1.0435,0.9898,0.8808,0.0,0.0,0.0,0.0,0.0,0.0,0.0,0.0,0.0,0.0,0.0,0.0,0.0,0.0,0.0,0.0,0.0,0.0,0.0,0.0,0.0,0.0,0.0,0.0,0.0,0.0,0.0,0.0,0.0,0.0,0.0,0.0,0.0,0.0,0.0,0.0,0.0,0.0,0.0,0.0,0.0,0.0,0.0,0.0,0.0,0.0,0.0,0.0,0.0,0.0,0.0,0.0,0.0,0.0,0.0,0.0,0.0,0.0,0.0,0.0,0.0,0.0,0.0,0.0,0.0,0.0,0.0,0.0,0.0,0.0,0.0,0.0,0.0,0.0,0.0,0.0,0.0,0.0,0.0,0.0,0.0,0.0,0.0,0.0,0.0,0.0,0.0,0.0,0.0,0.0,0.0,0.0,0.0,0.0,0.0,0.0,0.0,0.0,0.0,0.0,0.0,0.0,0.6067,0.7014,0.7695,0.7985,0.8496,0.9353,0.9202,0.9018,0.8903,0.8053,0.0,0.0,0.0,0.0,0.0,0.0,0.0,0.0,0.0,0.0,0.0,0.0,0.0,0.0,0.0,0.0,0.0,0.0,0.0,0.0,0.0,0.0,0.0,0.0,0.0,0.0,0.0,0.0,0.0,0.0,0.0,0.0,0.0,0.0,0.0,0.0,0.0,0.0,0.0,0.0,0.0,0.0,0.0,0.0,0.0,0.0,0.0,0.0,0.0,0.0,0.0,0.0,0.0,0.0,0.0,0.0,0.0,0.0,0.0,0.0,0.0,0.0,0.0,0.0,0.0,0.0,0.0,0.0,0.0,0.0,0.0,0.0,0.0,0.0,0.0,0.0,0.0,0.0,0.0,0.0,0.0,0.0,0.0,0.0,0.0,0.0,0.0,0.0,0.0,0.0,0.0,0.0,0.0,0.0,0.0,0.0,0.0,0.0,0.0,0.0,0.0,0.0,0.5786,0.6663,0.7695,0.7837,0.8266,0.9228,0.8632,0.8286,0.8428,0.0,0.0,0.0,0.0,0.0,0.0,0.0,0.0,0.0,0.0,0.0,0.0,0.0,0.0,0.0,0.0,0.0,0.0,0.0,0.0,0.0,0.0,0.0,0.0,0.0,0.0,0.0,0.0,0.0,0.0,0.0,0.0,0.0,0.0,0.0,0.0,0.0,0.0,0.0,0.0,0.0,0.0,0.0,0.0,0.0,0.0,0.0,0.0,0.0,0.0,0.0,0.0,0.0,0.0,0.0,0.0,0.0,0.0,0.0,0.0,0.0,0.0,0.0,0.0,0.0,0.0,0.0,0.0,0.0,0.0,0.0,0.0,0.0,0.0,0.0,0.0,0.0,0.0,0.0,0.0,0.0,0.0,0.0,0.0,0.0,0.0,0.0,0.0,0.0,0.0,0.0,0.0,0.0,0.0,0.0,0.0,0.0,0.0,0.0,0.0,0.0,0.0,0.5062,0.589,0.6746,0.7751,0.7858,0.8114,0.8699,0.8076,0.768,0.774,0.0,0.0,0.0,0.0,0.0,0.0,0.0,0.0,0.0,0.0,0.0,0.0,0.0,0.0,0.0,0.0,0.0,0.0,0.0,0.0,0.0,0.0,0.0,0.0,0.0,0.0,0.0,0.0,0.0,0.0,0.0,0.0,0.0,0.0,0.0,0.0,0.0,0.0,0.0,0.0,0.0,0.0,0.0,0.0,0.0,0.0,0.0,0.0,0.0,0.0,0.0,0.0,0.0,0.0,0.0,0.0,0.0,0.0,0.0,0.0,0.0,0.0,0.0,0.0,0.0,0.0,0.0,0.0,0.0,0.0,0.0,0.0,0.0,0.0,0.0,0.0,0.0,0.0,0.0,0.0,0.0,0.0,0.0,0.0,0.0,0.0,0.0,0.0,0.0,0.0,0.0,0.0,0.0,0.0,0.0,0.0,0.0,0.0,0.0,0.0,0.0,0.0,0.5327,0.6562,0.7543,0.7966,0.7988,0.7891,0.7624,0.741,0.7153,0.0,0.0,0.0,0.0,0.0,0.0,0.0,0.0,0.0,0.0,0.0,0.0,0.0,0.0,0.0,0.0,0.0,0.0,0.0,0.0,0.0,0.0,0.0,0.0,0.0,0.0,0.0,0.0,0.0,0.0,0.0,0.0,0.0,0.0,0.0,0.0,0.0,0.0,0.0,0.0,0.0,0.0,0.0,0.0,0.0,0.0,0.0,0.0,0.0,0.0,0.0,0.0,0.0,0.0,0.0,0.0,0.0,0.0,0.0,0.0,0.0,0.0,0.0,0.0,0.0,0.0,0.0,0.0,0.0,0.0,0.0,0.0,0.0,0.0,0.0,0.0,0.0,0.0,0.0,0.0,0.0,0.0,0.0,0.0,0.0,0.0,0.0,0.0,0.0,0.0,0.0,0.0,0.0,0.0,0.0,0.0,0.0,0.0,0.0,0.0,0.0,0.0,0.0,0.5009,0.574,0.6602,0.7867,0.7831,0.7692,0.7604,0.686,0.6454,0.6574,0.0,0.0,0.0,0.0,0.0,0.0,0.0,0.0,0.0,0.0,0.0,0.0,0.0,0.0,0.0,0.0,0.0,0.0,0.0,0.0,0.0,0.0,0.0,0.0,0.0,0.0,0.0,0.0,0.0,0.0,0.0,0.0,0.0,0.0,0.0,0.0,0.0,0.0,0.0,0.0,0.0,0.0,0.0,0.0,0.0,0.0,0.0,0.0,0.0,0.0,0.0,0.0,0.0,0.0,0.0,0.0,0.0,0.0,0.0,0.0,0.0,0.0,0.0,0.0,0.0,0.0,0.0,0.0,0.0,0.0,0.0,0.0,0.0,0.0,0.0,0.0,0.0,0.0,0.0,0.0,0.0,0.0,0.0,0.0,0.0,0.0,0.0,0.0,0.0,0.0,0.0,0.0,0.0,0.0,0.0,0.0,0.0,0.0,0.0,0.0,0.0,0.0,0.4965,0.5849,0.6803,0.7874,0.7858,0.7702,0.7611,0.6742,0.6272,0.6405,0.0,0.0,0.0,0.0,0.0,0.0,0.0,0.0,0.0,0.0,0.0,0.0,0.0,0.0,0.0,0.0,0.0,0.0,0.0,0.0,0.0,0.0,0.0,0.0,0.0,0.0,0.0,0.0,0.0,0.0,0.0,0.0,0.0,0.0,0.0,0.0,0.0,0.0,0.0,0.0,0.0,0.0,0.0,0.0,0.0,0.0,0.0,0.0,0.0,0.0,0.0,0.0,0.0,0.0,0.0,0.0,0.0,0.0,0.0,0.0,0.0,0.0,0.0,0.0,0.0,0.0,0.0,0.0,0.0,0.0,0.0,0.0,0.0,0.0,0.0,0.0,0.0,0.0,0.0,0.0,0.0,0.0,0.0,0.0,0.0,0.0,0.0,0.0,0.0,0.0,0.0,0.0,0.0,0.0,0.0,0.0,0.0,0.0,0.0,0.0,0.0,0.0,0.502,0.6367,0.7443,0.7955,0.7975,0.7878,0.7624,0.6927,0.6454,0.6322,0.0,0.0,0.0,0.0,0.0,0.0,0.0,0.0,0.0,0.0,0.0,0.0,0.0,0.0,0.0,0.0,0.0,0.0,0.0,0.0,0.0,0.0,0.0,0.0,0.0,0.0,0.0,0.0,0.0,0.0,0.0,0.0,0.0,0.0,0.0,0.0,0.0,0.0,0.0,0.0,0.0,0.0,0.0,0.0,0.0,0.0,0.0,0.0,0.0,0.0,0.0,0.0,0.0,0.0,0.0,0.0,0.0,0.0,0.0,0.0,0.9731,1.0187,0.0,0.0,0.0,0.0,0.0,0.0,0.0,0.0,0.0,0.0,0.0,0.0,0.0,0.0,0.0,0.0,0.0,0.0,0.0,0.0,0.0,0.0,0.0,0.0,0.0,0.0,0.0,0.0,0.0,0.0,0.0,0.0,0.0,0.0,0.0,0.0,0.0,0.0,0.0,0.0,0.459,0.4817,0.5585,0.7756,0.7905,0.7763,0.7611,0.6927,0.6484,0.6462,0.5899,0.0,0.0,0.0,0.0,0.0,0.0,0.0,0.0,0.0,0.0,0.0,0.0,0.0,0.0,0.0,0.0,0.0,0.0,0.0,0.0,0.0,0.0,0.0,0.0,0.0,0.0,0.0,0.0,0.0,0.0,0.0,0.0,0.0,0.0,0.0,0.0,0.0,0.0,0.0,0.0,0.0,0.0,0.0,0.0,0.0,0.0,0.0,0.0,0.0,0.0,0.0,0.0,0.0,0.0,0.0,0.0,0.0,0.0,0.0,0.9194,0.9548,0.0,0.0,0.0,0.0,0.0,0.0,0.0,0.0,0.0,0.0,0.0,0.0,0.0,0.0,0.0,0.0,0.0,0.0,0.0,0.0,0.0,0.0,0.0,0.0,0.0,0.0,0.0,0.0,0.0,0.0,0.0,0.0,0.0,0.0,0.0,0.0,0.0,0.0,0.0,0.0,0.3649,0.3868,0.4722,0.6807,0.697,0.7125,0.757,0.7102,0.6675,0.6429,0.6027,0.0,0.0,0.0,0.0,0.0,0.0,0.0,0.0,0.0,0.0,0.0,0.0,0.0,0.0,0.0,0.0,0.0,0.0,0.0,0.0,0.0,0.0,0.0,0.0,0.0,0.0,0.0,0.0,0.0,0.0,0.0,0.0,0.0,0.0,0.0,0.0,0.0,0.0,0.0,0.0,0.0,0.0,0.0,0.0,0.0,0.0,0.0,0.0,0.0,0.0,0.0,0.0,0.0,0.7959,0.8066,0.8162,0.7974,0.8046,0.8314,0.7941,0.8379,0.936,0.9191,0.0,0.0,0.0,0.0,0.0,0.0,0.0,0.0,0.0,0.0,0.0,0.0,0.0,0.0,0.0,0.0,0.0,0.0,0.0,0.0,0.0,0.0,0.232,0.1799,0.1803,0.2098,0.2685,0.0,0.0,0.0,0.0,0.0,0.0,0.0,0.0,0.0,0.0,0.0,0.2682,0.3181,0.4036,0.5504,0.5652,0.6088,0.7169,0.6976,0.6681,0.6396,0.6173,0.597,0.0,0.0,0.0,0.0,0.0,0.0,0.0,0.0,0.0,0.0,0.0,0.0,0.0,0.0,0.0,0.0,0.0,0.0,0.0,0.0,0.0,0.0,0.0,0.0,0.0,0.0,0.0,0.0,0.0,0.0,0.0,0.0,0.7561,0.8333,0.0,0.0,0.0,0.0,0.0,0.0,0.0,0.0,0.0,0.0,0.0,0.0,0.0,0.5972,0.7377,0.7921,0.728,0.5553,0.6365,0.5805,0.4079,0.4227,0.4361,0.4532,0.4448,0.0,0.8887,0.8854,0.0,0.0,0.0,0.0,0.0,0.0,0.0,0.0,0.0,0.0,0.0,0.0,0.0,0.0,0.0,0.0,0.0,0.0,0.0,0.0,0.0,0.0,0.3119,0.1899,0.1621,0.1419,0.0621,0.0922,0.127,0.0945,0.101,0.0998,0.0,0.0,0.0,0.0,0.0,0.0,0.2302,0.2318,0.275,0.4107,0.4268,0.4695,0.5776,0.5717,0.5913,0.6613,0.6403,0.63,0.6381,0.6112,0.0,0.0,0.0,0.0,0.0,0.0,0.0,0.0,0.0,0.0,0.0,0.0,0.0,0.0,0.0,0.0,0.0,0.0,0.0,0.0,0.0,0.0,0.0,0.0,0.0,0.0,0.0,0.0,0.0,0.5921,0.6397,0.6061,0.6766,0.6856,0.0,0.0,0.0,0.0,0.0,0.0,0.0,0.0,0.0,0.4313,0.3697,0.3966,0.5252,0.5735,0.5539,0.4768,0.5252,0.5038,0.4214,0.4274,0.4367,0.4425,0.4429,0.5166,0.6449,0.7228,0.6851,0.5797,0.0,0.0,0.0,0.0,0.5326,0.4979,0.5642,0.5634,0.5261,0.4749,0.0,0.0,0.0,0.0,0.0,0.0,0.0,0.1372,0.1248,0.1152,0.1017,0.0763,0.0712,0.0574,0.0115,0.0249,0.0371,-0.0025,-0.0323,-0.0573,-0.0735,-0.0274,0.0,0.0,0.0,0.0614,0.1193,0.1036,0.138,0.2734,0.2864,0.3329,0.4494,0.4525,0.4886,0.5751,0.5539,0.5692,0.6356,0.5861,0.5562,0.0,0.0,0.0,0.0,0.0,0.0,0.0,0.0,0.0,0.0,0.0,0.0,0.0,0.0,0.0,0.0,0.0,0.0,0.0,0.0,0.0,0.0,0.0,0.0,0.0,0.0,0.0,0.0,0.5174,0.5598,0.4541,0.5569,0.5783,0.0,0.0,0.0,0.0,0.0,0.0,0.2046,0.1415,0.1536,0.2589,0.2332,0.2777,0.4034,0.4364,0.4358,0.4033,0.4145,0.3982,0.3637,0.3637,0.363,0.3655,0.3655,0.3518,0.3485,0.523,0.5314,0.4447,0.5268,0.4602,0.3245,0.3693,0.3528,0.3153,0.3805,0.3739,0.3271,0.2871,0.2387,0.1995,0.1909,0.0,0.0,0.0,0.0,-0.0282,0.0174,-0.0179,-0.055,-0.0092,0.0,0.0,0.0,-0.0121,-0.0319,-0.0538,-0.1009,-0.136,-0.1394,-0.0804,0.0,-0.0503,-0.0051,0.0299,0.0304,0.0126,0.0376,0.1393,0.1489,0.1974,0.3185,0.3283,0.3692,0.4647,0.4496,0.4716,0.552,0.5244,0.5118,0.5211,0.0,0.0,0.0,0.0,0.0,0.0,0.0,0.0,0.0,0.0,0.0,0.0,0.0,0.0,0.0,0.0,0.0,0.0,0.0,0.0,0.0,0.0,0.0,0.0,0.0,0.0,0.0,0.0,0.0,0.5298,0.6022,0.0,0.0,0.0,0.0,0.166,0.1132,0.1277,0.232,0.0919,0.146,0.4474,0.3331,0.3504,0.5304,0.5316,0.4487,0.2789,0.2791,0.1888,0.0234,0.0234,0.0233,0.023,0.023,0.0229,0.0448,0.3035,0.3655,0.2895,0.2688,0.2282,0.1869,0.2478,0.2773,0.2991,0.3603,0.3809,0.3618,0.2793,0.1441,0.0343,0.1471,0.0824,0.0,0.0,-0.0178,-0.003,0.0,0.0,-0.0032,0.0,0.0,0.0,0.0,-0.0514,-0.0781,-0.0171,-0.0054,-0.008,-0.0082,0.0,-0.0027,-0.0027,0.0,0.0027,0.0026,0.0,0.0026,0.0104,0.0102,0.0601,0.1791,0.1909,0.2404,0.3595,0.3535,0.3493,0.3534,0.4311,0.4377,0.3622,0.535,0.0,0.0,0.0,0.0,0.0,0.0,0.0,0.0,0.0,0.0,0.0,0.0,0.0,0.0,0.0,0.0,0.0,0.0,0.0,0.0,0.0,0.0,0.0,0.0,0.0,0.0,0.0,0.0,0.427,0.53,0.0,0.1728,0.1339,0.1086,0.056,0.0355,0.0435,0.0837,0.0328,0.0529,0.1631,0.122,0.1276,0.1904,0.1945,0.1584,0.0979,0.0979,0.0611,0.0,0.0,0.0,0.0,0.0,0.0,0.0078,0.1014,0.1258,0.1098,0.208,0.1695,0.0615,0.0838,0.0982,0.1075,0.1269,0.1367,0.1294,0.0994,0.0487,0.0096,0.0497,0.028,-0.0157,-0.0156,-0.0063,0.0,0.0,0.0,0.0,0.0,0.0,0.0,0.0,-0.0197,-0.0291,-0.0031,-0.0359,-0.0724,-0.0931,-0.0422,-0.0221,-0.0878,-0.0417,0.0,0.0,0.0,0.0,0.0,0.0,0.0179,0.0611,0.0647,0.1164,0.2355,0.2324,0.2561,0.33,0.3559,0.3536,0.3247,0.466,0.4803,0.0,0.0,0.0,0.0,0.0,0.0,0.0,0.0,0.0,0.0,0.0,0.0,0.0,0.0,0.0,0.0,0.0,0.0,0.0,0.0,0.0,0.0,0.0,0.0,0.0,0.4591,0.4923,0.2883,0.386,0.3562,0.0675,0.0303,0.0204,0.0,0.0,0.0,0.0,0.0,0.0,0.0,0.0796,0.0844,0.0,0.0808,0.0808,0.0,0.0,0.0,0.0,0.0,0.0,0.0,0.0,0.0,0.0,0.0,0.0,0.0115,0.1207,0.0982,0.0,0.0,0.0,0.0,0.0,0.0,0.0,0.0,0.0,0.0,0.0,0.0,0.0,0.0,0.0,0.0,0.0,0.0,0.0,0.0,0.0,0.0,0.0,0.0,0.0,0.0,-0.0351,-0.074,-0.095,-0.0442,-0.0347,-0.1409,-0.0666,-0.0141,-0.0513,-0.0224,0.0,0.0,0.0,0.0,0.0,-0.0279,0.0025,0.1121,0.0841,0.1088,0.215,0.2194,0.2198,0.218,0.3302,0.3489,0.2661,0.0,0.0,0.0,0.0,0.0,0.0,0.0,0.0,0.0,0.0,0.0,0.0,0.0,0.0,0.0,0.0,0.0,0.0,0.0,0.0,0.0,0.0,0.0,0.1096,0.353,0.4322,0.1297,0.1873,0.194,0.0513,0.015,0.0,0.0,0.0,0.0,0.0,0.0,0.0043,0.0131,0.2301,0.2388,0.0131,0.2344,0.2301,0.0,0.0,0.0,0.0,0.0,0.0,0.0,0.0,0.0,0.0,0.0,0.0,0.0,0.0,0.0,0.0,0.0,0.0,0.0,0.0,0.0,0.0,0.0,0.0,0.0,0.0,0.0,0.0,0.0,0.0,0.0,0.0,0.0,0.0,0.0,0.0,0.0,0.0,0.0,0.0,0.0,0.0,0.0,0.0,0.0,-0.0372,-0.1479,-0.0699,0.0,-0.1504,-0.0672,0.0,-0.0056,-0.0054,-0.0052,-0.0052,-0.0832,-0.0939,-0.0048,-0.0825,-0.0948,-0.0088,0.0155,0.031,0.0369,0.1349,0.1968,0.2198,0.0,0.0,0.0,0.0,0.0,0.0,0.0,0.0,0.0,0.0,0.0,0.0,0.0,0.0,0.0,0.0,0.0,0.0,0.0,0.0,0.0,0.4524,0.4748,0.4473,0.404,0.3374,0.2329,0.2632,0.2186,0.0284,0.0041,0.0,0.0,0.0,0.0,0.0,0.0,0.0798,0.2575,0.1555,0.1511,0.2619,0.1511,0.0667,0.0,0.0,0.0,0.0,0.0,0.0,0.0,0.0,0.0,0.0,0.0,0.0,0.0,0.0,0.0,0.0,0.0,0.0,0.0,0.0,0.0,0.0,0.0,0.0,0.0,0.0,0.0,0.0,0.0,0.0,0.0,0.0,0.0,0.0,0.0,0.0,0.0,0.0,0.0,0.0,0.0,0.0,0.0,0.0,0.0,-0.0094,-0.041,-0.0186,-0.0122,-0.0425,-0.0179,-0.0327,-0.1141,-0.1235,-0.1234,-0.1232,-0.1465,-0.1142,-0.0073,-0.1147,-0.171,-0.1465,-0.2306,-0.193,-0.0069,0.0513,0.1241,0.0,0.0,0.0,0.0,0.0,0.0,0.0,0.0,0.0,0.0,0.0,0.0,0.0,0.0,0.0,0.0,0.0,0.0,0.0,0.0,0.0,0.0,0.4535,0.4286,0.4476,0.3593,0.2611,0.1663,0.1697,0.1333,0.013,0.0,0.0,0.0,0.0,0.0,0.0,0.0,0.0628,0.2061,0.1703,0.1703,0.2106,0.1703,0.0987,0.0,0.0,0.0,0.0,0.0,0.0,0.0,0.0,0.0,0.0,0.0,0.0,0.0,0.0,0.0,0.0,0.0,0.0,0.0,0.0,0.0,0.0,0.0,0.0,0.0,0.0,0.0,0.0,0.0,0.0,0.0,0.0,0.0,0.0,0.0,0.0,0.0,0.0,0.0,0.0,0.0,0.0,0.0,0.0,0.0,-0.0161,-0.0653,-0.032,-0.0157,-0.0658,-0.0308,-0.0244,-0.0917,-0.0988,-0.0994,-0.0997,-0.1316,0.0,0.0,0.0,-0.1696,-0.1665,-0.2408,0.0,0.0,0.0,0.022,0.1221,0.0684,0.0,0.0,0.0733,0.0502,0.0,0.0,0.0,0.0,0.0,0.0,0.0,0.0,0.0,0.0,0.0,0.0,0.0,0.0,0.0,0.0,0.3669,0.2227,0.269,0.2565,0.1818,0.0174,0.0,0.0,0.0,0.0,0.0,0.0,0.0,0.0,0.0,0.0,0.0,0.0,0.0,0.2285,0.0404,0.2242,0.211,0.0,0.0,0.0,0.0,0.0,0.0,0.0,0.0,0.0,0.0,0.0,0.0,0.0,0.0,0.0,0.0,0.0,0.0,0.0,0.0,0.0,0.0,0.0,0.0,0.0,0.0,0.0,0.0,0.0,0.0,0.0,0.0,0.0,0.0,0.0,0.0,0.0,0.0,0.0,0.0,0.0,0.0,0.0,0.0,0.0,-0.0332,-0.1362,-0.0662,-0.0357,-0.1379,-0.0636,-0.0062,-0.0183,0.0,0.0,-0.0199,-0.0895,-0.1461,-0.1759,-0.1522,-0.1409,-0.1507,-0.1383,-0.1293,-0.1285,-0.1134,-0.0706,0.0,0.0,0.0,-0.0025,-0.0547,-0.0904,0.0,0.0,0.0,0.0,0.0,0.0,0.0,0.0,0.0,0.0,0.0,0.0,0.0,0.0,0.0,0.4103,0.3285,0.2722,0.3115,0.1669,0.0408,0.0045,0.0,0.0,0.0,0.0,0.0,0.0,0.0,0.0,0.0,0.0,0.0908,0.2857,0.1486,0.139,0.291,0.1447,0.0454,0.0,0.0,0.0,0.0,0.0,0.0,0.0,0.0,0.0,0.0,0.0,0.0,0.0,0.0,0.0,0.0,0.0,0.0,0.0,0.0,0.0,0.0,0.0,0.0,0.0,0.0,0.0,0.0,0.0,0.0,0.0,0.0,0.0,0.0,0.0,0.0,0.0,0.0,0.0,0.0,0.0,0.0,0.0,0.0,0.0,-0.0066,-0.0299,-0.0131,-0.0065,-0.0292,-0.0129,-0.0353,-0.1263,-0.1387,-0.136,-0.1368,-0.1541,-0.1257,-0.0433,-0.1327,-0.2348,-0.3403,-0.2432,-0.1834,-0.1838,-0.0782,-0.0151,0.0,0.0,0.0,0.0,-0.0129,-0.0206,0.0,0.0,0.0,0.0,0.0,0.0,0.0,0.0,0.0,0.0,0.0,0.24,0.3154,0.0,0.2096,0.3179,0.221,0.143,0.1623,0.0702,0.0,0.0,0.0,0.0,0.0,0.0,0.0,0.0,0.0,0.0,0.0,0.0,0.055,0.1776,0.0638,0.0591,0.1807,0.0594,0.0,0.0,0.0,0.0,0.0,0.0,0.0,0.0,0.0,0.0,0.0,0.0,0.0,0.0,0.0,0.0,0.0,0.0,0.0,0.0,0.0,0.0,0.0,0.0,0.0,0.0,0.0,0.0,0.0,0.0,0.0,0.0,0.0,0.0,0.0,0.0,0.0,0.0,0.0,0.0,0.0,0.0,0.0,0.0,0.0,0.0,0.0,0.0,0.0,0.0,0.0,0.0,-0.0228,-0.0783,-0.0848,-0.0836,-0.0836,-0.1479,-0.1313,-0.0083,-0.1262,-0.2011,-0.1992,-0.1362,-0.1007,-0.0998,-0.0339,0.0,0.0,0.0,0.0,0.0,0.0,0.0,0.0,0.0,0.0,0.0,0.0,0.0,0.0,0.3376,0.2244,0.3484,0.2408,0.1639,0.2914,0.1579,0.0762,0.2113,0.1008,0.0,0.0,0.0,0.0,0.0,0.0,0.0,0.0,0.0,0.0,0.0,0.0,0.0,0.0,0.0,0.0,0.0,0.0,0.0,0.0,0.0,0.0,0.0,0.0,0.0,0.0,0.0,0.0,0.0,0.0,0.0,0.0,0.0,0.0,0.0,0.0,0.0,0.0,0.0,0.0,0.0,0.0,0.0,0.0,0.0,0.0,0.0,0.0,0.0,0.0,0.0,0.0,0.0,0.0,0.0,0.0,0.0,-0.0307,-0.0606,-0.0559,-0.0875,-0.1147,-0.1144,-0.1131,-0.1121,-0.1121,-0.0799,-0.0446,-0.0068,0.0,0.0,0.0,0.0,-0.0132,-0.0487,-0.0518,-0.0513,-0.053,-0.1199,-0.1164,-0.0057,-0.1027,-0.1135,-0.0057,0.0,0.0,0.0,0.0,0.0,0.0,0.0,0.0,0.0,0.0,0.0,0.6189,0.4512,0.4003,0.4785,0.3291,0.2255,0.0,0.41,0.3313,0.4621,0.3629,0.2532,0.2561,0.1216,0.009,0.0282,0.0143,0.0,0.0,0.0,0.0,0.0,0.0,0.0,0.0,0.0,0.0,0.0,0.0,0.0,0.0,0.0,0.0,0.0,0.0,0.0,0.0,0.0,0.0,0.0,0.0,0.0,0.0,0.0,0.0,0.0,0.0,0.0,0.0,0.0,0.0,0.0,0.0,0.0,0.0,0.0,0.0,0.0,0.0,0.0,0.0,0.0,0.0,0.0,0.0,0.0,0.0,0.0,0.0,0.0,0.0,0.0,0.0,0.0,-0.1397,-0.271,-0.2608,-0.4026,-0.5303,-0.5175,-0.5143,-0.5166,-0.5166,-0.3734,-0.1982,-0.0275,0.0,0.0,0.0,0.0,-0.0601,-0.2233,-0.2395,-0.2412,-0.2404,-0.1072,-0.0156,0.0,-0.0152,-0.0149,0.0,0.0,0.0,0.0,0.0,0.0,0.0,0.0,0.0,0.0,0.0,0.0,0.7168,0.5348,0.4121,0.3727,0.2953,0.2585,0.3799,0.2743,0.1954,0.34,0.2341,0.1114,0.1053,0.0465,0.0,0.0,0.0,0.0,0.0,0.0,0.0,0.0,0.0,0.0,0.0,0.0,0.0,0.0,0.0,0.0,0.0,0.0,0.0,0.0,0.0,0.0,0.0,0.0,0.0,0.0,0.0,0.0,0.0,0.0,0.0,0.0,0.0,0.0,0.0,0.0,0.0,0.0,0.0,0.0,0.0,0.0,0.0,0.0,0.0,0.0,0.0,0.0,0.0,0.0,0.0,0.0,0.0,0.0,0.0,0.0,0.0,0.0,-0.0322,-0.151,-0.2458,-0.3414,-0.4626,-0.5578,-0.6149,-0.6117,-0.601,-0.5922,-0.5922,-0.5172,-0.4304,-0.3509,-0.2344,-0.1191,-0.0136,-0.1823,-0.3448,-0.419,-0.3334,-0.2688,-0.2705,-0.1031,0.0,0.0,0.0,0.0,0.0,0.0,0.0,0.0,0.0,0.0,0.0,0.0,0.0,0.0,0.0,0.0,0.6125,0.4687,0.3442,0.2344,0.2146,0.225,0.2264,0.122,0.0612,0.1739,0.0935,0.0,0.0,0.0,0.0,0.0,0.0,0.0,0.0,0.0,0.0,0.0,0.0,0.0,0.0,0.0,0.0,0.0,0.0,0.0,0.0,0.0,0.0,0.0,0.0,0.0,0.0,0.0,0.0,0.0,0.0,0.0,0.0,0.0,0.0,0.0,0.0,0.0,0.0,0.0,0.0,0.0,0.0,0.0,0.0,0.0,0.0,0.0,0.0,0.0,0.0,0.0,0.0,0.0,0.0,0.0,0.0,0.0,0.0,0.0,0.0,-0.0453,-0.1262,-0.273,-0.402,-0.5307,-0.6765,-0.7545,-0.7942,-0.7915,-0.7778,-0.7679,-0.7616,-0.7063,-0.6646,-0.6622,-0.5302,-0.3624,-0.1785,-0.4226,-0.6131,-0.6131,-0.4947,-0.4158,-0.4158,-0.2064,-0.0751,-0.0751,-0.026,0.0,0.0,0.0,0.0,0.0,0.0,0.0,0.0,0.0,0.0,0.0,0.0,0.0,0.1124,0.0597,0.0199,0.0411,0.0276,0.0083,0.0089,0.0047,0.0048,0.0049,0.005,0.0,0.0,0.0,0.0,0.0,0.0,0.0,0.0,0.0,0.0,0.0,0.0,0.0,0.0,0.0,0.0,0.0,0.0,0.0,0.0,0.0,0.0,0.0,0.0,0.0,0.0,0.0,0.0,0.0,0.0,0.0,0.0,0.0,0.0,0.0,0.0,0.0,0.0,0.0,0.0,0.0,0.0,0.0,0.0,0.0,0.0,0.0,0.0,0.0,0.0,0.0,0.0,0.0,0.0,0.0,0.0,0.0,0.0,0.0,0.0,-0.1583,-0.3167,-0.3129,-0.6334,-0.9356,-0.9134,-1.0706,-1.2085,-1.1938,-1.1904,-1.1858,-1.1673,-1.0046,-0.8753,-0.8641,-0.8454,-0.7634,-0.5693,-0.6888,-0.7931,-0.7931,-0.7859,-0.7826,-0.7826,-0.462,-0.2615,-0.2615,-0.0961,0.0,0.0,0.0,0.0,0.0,0.0,0.0,0.0,0.0,0.0,0.0,0.0,0.0,0.0097,0.0104,0.0226,0.0162,0.0086,0.0,0.0,0.0,0.0,0.0,-0.0443,-0.0819,-0.0808,-0.08,-0.0798,-0.0805,-0.034,0.0,0.0,0.0,0.0,0.0,0.0,0.0,0.0,0.0,0.0,0.0,0.0,0.0,0.0,0.0,0.0,0.0,0.0,0.0,0.0,0.0,0.0,0.0,0.0,0.0,0.0,0.0,0.0,0.0,0.0,0.0,0.0,0.0,0.0,0.0,0.0,0.0,0.0,0.0,0.0,0.0,0.0,0.0,0.0,0.0,0.0,0.0,0.0,0.0,0.0,0.0,0.0,-0.0344,-0.1858,-0.2764,-0.4034,-0.6854,-0.8679,-1.011,-1.143,-1.2253,-1.273,-1.2535,-1.242,-1.2277,-1.2026,-1.1339,-1.0754,-1.053,-0.8248,-0.7187,-0.8911,-0.8471,-0.8468,-0.9676,-0.8701,-0.7997,-0.7997,-0.583,-0.4492,-0.4492,-0.2807,-0.1801,-0.1801,-0.065,0.0,0.0,0.0,0.0,0.0,0.0,0.0,0.0,0.0,0.0,-0.0496,-0.0269,0.0083,0.0,0.0,0.0,0.0,0.0,0.0,0.0,-0.063,-0.1168,-0.1177,-0.115,-0.1319,-0.1802,-0.1242,-0.0702,-0.0714,-0.071,-0.0558,-0.0045,0.0,0.0,0.0,0.0,0.0,0.0,0.0,0.0,0.0,0.0,0.0,0.0,0.0,0.0,0.0,0.0,0.0,0.0,0.0,0.0,0.0,0.0,0.0,0.0,0.0,0.0,0.0,0.0,0.0,0.0,0.0,0.0,0.0,0.0,0.0,0.0,0.0,0.0,0.0,0.0,0.0,0.0,0.0,0.0,0.0,0.0,-0.0609,-0.1609,-0.3072,-0.4666,-0.6544,-0.9265,-1.0495,-1.1439,-1.2735,-1.3003,-1.2969,-1.2834,-1.2691,-1.2508,-1.2302,-1.2047,-1.185,-1.1696,-0.9409,-0.8493,-1.0635,-0.9805,-0.9458,-1.0591,-0.9643,-0.8972,-0.8972,-0.7331,-0.6331,-0.6331,-0.466,-0.3387,-0.2719,-0.1578,-0.065,0.0,0.0,-0.0314,-0.0971,-0.0904,-0.1247,-0.194,-0.1867,-0.1867,-0.0796,-0.0635,-0.0312,-0.0048,0.0,0.0,0.0,0.0,0.0,-0.0049,-0.0662,-0.1175,-0.12,-0.1191,-0.1586,-0.2836,-0.2395,-0.1919,-0.1887,-0.1895,-0.1404,-0.0137,0.0,0.0,0.0,0.0,0.0,0.0,0.0,0.0,0.0,0.0,0.0,0.0,0.0,0.0,0.0,0.0,0.0,0.0,0.0,0.0,0.0,0.0,0.0,0.0,0.0,0.0,0.0,0.0,0.0,0.0,0.0,0.0,0.0,0.0,0.0,0.0,0.0,0.0,0.0,0.0,0.0,0.0,0.0,0.0,0.0,0.0,-0.1721,-0.3605,-0.3738,-0.7097,-1.0458,-1.0325,-1.1902,-1.3336,-1.3098,-1.303,-1.3023,-1.3016,-1.2834,-1.2632,-1.2528,-1.2295,-1.2098,-1.2098,-1.1823,-1.1448,-1.1009,-1.0934,-1.0867,-1.0718,-1.0698,-1.0698,-1.0684,-0.9138,-0.813,-0.813,-0.6498,-0.476,-0.3054,-0.2879,-0.2038,-0.0296,-0.0293,-0.1128,-0.2828,-0.2696,-0.3585,-0.5394,-0.5189,-0.5227,-0.0868,-0.0552,-0.0096,0.0,0.0,0.0,0.0,0.0,-0.0145,-0.0643,-0.1378,-0.2061,-0.2498,-0.2235,-0.2019,-0.2369,-0.1331,-0.0515,-0.0533,-0.0492,-0.0392,-0.0047,0.0,0.0,0.0,0.0,0.0,0.0,0.0,0.0,0.0,0.0,0.0,0.0,0.0,0.0,0.0,0.0,0.0,0.0,0.0,0.0,0.0,0.0,0.0,0.0,0.0,0.0,0.0,0.0,0.0,0.0,0.0,0.0,0.0,0.0,0.0,0.0,0.0,0.0,0.0,0.0,0.0,0.0,0.0,0.0,0.0,0.0,-0.173,-0.3992,-0.561,-0.8263,-1.0901,-1.2478,-1.3219,-1.3553,-1.3471,-1.337,-1.3254,-1.318,-1.2813,-1.2549,-1.2508,-1.2295,-1.2098,-1.2098,-1.2036,-1.183,-1.1455,-1.1246,-1.105,-1.0874,-1.086,-1.0813,-1.0698,-1.028,-1.0014,-1.0014,-0.8335,-0.7131,-0.666,-0.5386,-0.4497,-0.4038,-0.4015,-0.424,-0.4721,-0.4673,-0.4929,-0.5394,-0.534,-0.5344,-0.0559,-0.0293,0.0,0.0,0.0775,0.1328,0.0395,0.0668,0.0773,-0.0502,-0.1728,-0.271,-0.3031,-0.2584,-0.2359,-0.2941,-0.1806,-0.0875,-0.0872,-0.089,-0.0646,-0.0049,0.0,0.0,0.0,0.0,0.0,0.0,0.0,0.0,0.0,0.0,0.0,0.0,0.0,0.0,0.0,0.0,0.0,0.0,0.0,0.0,0.0,0.0,0.0,0.0,0.0,0.0,0.0,0.0,0.0,0.0,0.0,0.0,0.0,0.0,0.0,0.0,0.0,0.0,0.0,0.0,0.0,0.0,0.0,0.0,-0.0224,-0.1291,-0.3297,-0.5661,-0.7966,-1.0351,-1.2491,-1.3671,-1.3885,-1.3804,-1.3693,-1.3612,-1.3532,-1.3315,-1.3017,-1.2752,-1.2623,-1.2467,-1.2332,-1.2264,-1.2241,-1.2101,-1.1938,-1.1592,-1.128,-1.1063,-1.1043,-1.0982,-1.0799,-1.0786,-1.0759,-1.0691,-0.9742,-0.8834,-0.803,-0.7077,-0.6188,-0.54,-0.5391,-0.5791,-0.6541,-0.6466,-0.6891,-0.7717,-0.7667,-0.7672,-0.0099,0.0,0.0104,0.042,0.2067,0.3054,0.1323,0.1885,0.21,-0.0113,-0.1792,-0.2945,-0.3124,-0.2648,-0.2578,-0.3642,-0.2733,-0.1842,-0.1735,-0.1757,-0.1282,-0.0152,0.0,0.0,0.0,0.0,0.0,0.0,0.0,0.0,0.0,0.0,0.0,0.0,0.0,0.0,0.0,0.0,0.0,0.0,0.0,0.0,0.0,0.0,0.0,0.0,0.0,0.0,0.0,0.0,0.0,0.0,0.0,0.0,0.0,0.0,0.0,0.0,0.0,-0.0224,-0.0404,-0.009,-0.0224,-0.0494,-0.0494,-0.0718,-0.139,-0.349,-0.5767,-0.804,-1.018,-1.2503,-1.4265,-1.4136,-1.4132,-1.4034,-1.3899,-1.3795,-1.3693,-1.3478,-1.3295,-1.3091,-1.2834,-1.2733,-1.2718,-1.2583,-1.2461,-1.2372,-1.2352,-1.1959,-1.1558,-1.1288,-1.1261,-1.1158,-1.0955,-1.0941,-1.0887,-1.0752,-1.0725,-1.0006,-0.8456,-0.8374,-0.7631,-0.6131,-0.6097,-0.6831,-0.8363,-0.8235,-0.9067,-1.0684,-1.0582,-1.0595,0.0,0.0,0.0525,0.2728,0.3258,0.33,0.3715,0.3605,0.2607,-0.031,-0.1382,-0.2107,-0.3145,-0.3101,-0.2815,-0.2417,-0.1733,-0.1048,-0.0455,-0.0359,-0.0258,-0.0052,0.0,0.0,0.0,0.0,0.0,0.0,0.0,0.0,0.0,0.0,0.0,0.0,0.0,0.0,0.0,0.0,0.0,0.0,0.0,0.0,0.0,0.0,0.0,0.0,0.0,0.0,0.0,0.0,0.0,0.0,0.0,0.0,0.0,0.0,0.0,0.0,0.0,-0.13,-0.2642,-0.0628,-0.1345,-0.2955,-0.2955,-0.434,-0.5945,-0.6388,-0.8219,-1.018,-1.0584,-1.2503,-1.4292,-1.4265,-1.4163,-1.4105,-1.4084,-1.3838,-1.3605,-1.3558,-1.3363,-1.32,-1.3105,-1.3037,-1.2948,-1.2928,-1.2901,-1.2839,-1.2632,-1.2264,-1.1907,-1.1572,-1.1538,-1.143,-1.1186,-1.1159,-1.1152,-1.1125,-1.0975,-1.0739,-1.0394,-1.0278,-1.0081,-0.9782,-0.9782,-0.9915,-1.0213,-1.022,-1.0359,-1.0684,-1.069,-1.0697,0.0,0.0,0.0634,0.3238,0.4328,0.4781,0.479,0.4766,0.3797,0.0598,-0.0978,-0.1999,-0.2747,-0.279,-0.2686,-0.2597,-0.1723,-0.0958,-0.0685,-0.0248,0.0,0.0,0.0,0.0,0.0,0.0,0.0,0.0,0.0,0.0,0.0,0.0,0.0,0.0,0.0,0.0,0.0,0.0,0.0,0.0,0.0,0.0,0.0,0.0,0.0,0.0,0.0,0.0,0.0,0.0,0.0,0.0,0.0,0.0,0.0,0.0,0.0,-0.0181,-0.1437,-0.2661,-0.3723,-0.3683,-0.4472,-0.541,-0.541,-0.6213,-0.7369,-0.8619,-0.9824,-1.0984,-1.2237,-1.3445,-1.4299,-1.4299,-1.4245,-1.419,-1.419,-1.4014,-1.3858,-1.3858,-1.3614,-1.3383,-1.3302,-1.3207,-1.3084,-1.3009,-1.3003,-1.2975,-1.2861,-1.2703,-1.2424,-1.2013,-1.1823,-1.1604,-1.1416,-1.1328,-1.1281,-1.12,-1.1097,-1.1056,-1.1056,-1.0989,-1.0948,-1.0948,-1.0948,-1.0948,-1.0948,-1.0873,-1.0846,-1.0948,-1.084,-1.0806,0.0,0.0,0.0636,0.3208,0.5003,0.6014,0.5306,0.5607,0.5037,0.1609,-0.0434,-0.1726,-0.2195,-0.2477,-0.2729,-0.3061,-0.2177,-0.1389,-0.1214,-0.0662,-0.0194,0.0,0.0,0.0,0.0,0.0,0.0,0.0,0.0,0.0,0.0,0.0,0.0,0.0,0.0,0.0,0.0,0.0,0.0,0.0,0.0,0.0,0.0,0.0,0.0,0.0,0.0,0.0,0.0,0.0,0.0,0.0,0.0,0.0,0.0,0.0,-0.0367,-0.1096,-0.2983,-0.4416,-0.5656,-0.7415,-0.7945,-0.7926,-0.7866,-0.8219,-0.9019,-1.0939,-1.1477,-1.1921,-1.3805,-1.4299,-1.4299,-1.4299,-1.4299,-1.4299,-1.4299,-1.4183,-1.4119,-1.4119,-1.3858,-1.3592,-1.3512,-1.337,-1.3234,-1.3119,-1.3118,-1.3098,-1.3098,-1.3064,-1.2914,-1.2515,-1.2176,-1.1854,-1.1644,-1.1552,-1.1423,-1.1302,-1.1261,-1.1247,-1.1247,-1.1213,-1.12,-1.12,-1.12,-1.12,-1.12,-1.105,-1.105,-1.1193,-1.105,-1.0961,-0.0104,0.0,0.0634,0.3309,0.4904,0.5755,0.5453,0.6263,0.5953,0.2064,0.0427,-0.0604,-0.1725,-0.2734,-0.3325,-0.3117,-0.3028,-0.2575,-0.1384,-0.1137,-0.0828,-0.0103,0.0,0.0,0.0,0.0,0.0,0.0,0.0,0.0,0.0,0.0,0.0,0.0,0.0,0.0,0.0,0.0,0.0,0.0,0.0,0.0,0.0,0.0,0.0,0.0,0.0,0.0,0.0,0.0,0.0,0.0,0.0,0.0,0.0,0.0,-0.1443,-0.3505,-0.3685,-0.6718,-1.054,-1.0749,-1.0715,-1.0525,-1.0431,-1.1876,-1.3673,-1.3894,-1.3982,-1.4027,-1.4255,-1.4299,-1.4299,-1.4299,-1.4299,-1.4299,-1.4299,-1.4183,-1.4119,-1.4119,-1.3939,-1.3774,-1.3761,-1.3639,-1.3545,-1.3566,-1.3451,-1.3363,-1.3363,-1.3282,-1.318,-1.3139,-1.2698,-1.2271,-1.1807,-1.1759,-1.1692,-1.1586,-1.145,-1.1369,-1.1369,-1.1274,-1.12,-1.12,-1.12,-1.12,-1.12,-1.1186,-1.1186,-1.12,-1.1186,-1.1179,-0.0103,0.0,0.0634,0.3254,0.4221,0.4715,0.537,0.571,0.5157,0.2644,0.1409,0.0311,-0.1047,-0.2016,-0.2891,-0.384,-0.3675,-0.3296,-0.2903,-0.2015,-0.1225,-0.0737,-0.0252,0.0,0.0,0.0,0.0,0.0,0.0,0.0,0.0,0.0,0.0,0.0,0.0,0.0,0.0,0.0,0.0,0.0,0.0,0.0,0.0,0.0,0.0,0.0,0.0,0.0,0.0,0.0,0.0,0.0,0.0,0.0,-0.0188,-0.1725,-0.299,-0.4365,-0.7316,-0.9781,-1.1752,-1.3091,-1.3493,-1.341,-1.311,-1.3656,-1.4407,-1.4326,-1.4299,-1.4299,-1.4299,-1.4299,-1.4299,-1.4299,-1.4299,-1.4299,-1.4299,-1.4251,-1.4211,-1.4211,-1.4082,-1.398,-1.398,-1.3858,-1.3714,-1.3714,-1.366,-1.3619,-1.3619,-1.3572,-1.3505,-1.3329,-1.2827,-1.2427,-1.225,-1.2074,-1.1945,-1.1891,-1.1866,-1.1832,-1.1832,-1.1771,-1.1737,-1.1737,-1.1737,-1.1696,-1.1565,-1.1477,-1.1436,-1.1436,-1.1341,-1.1336,-0.01,0.0,0.0419,0.2221,0.3188,0.3824,0.435,0.4836,0.4693,0.3143,0.2076,0.1065,-0.014,-0.1266,-0.2475,0.0,0.0,-0.3985,-0.4061,-0.3184,-0.2368,-0.1959,-0.1531,-0.1084,-0.0624,-0.0211,0.0,0.0,0.0,0.0,0.0,0.0,0.0,0.0,0.0,0.0,0.0,0.0,0.0,0.0,0.0,0.0,0.0,0.0,0.0,0.0,0.0,0.0,0.0,0.0,0.0,0.0,0.0,-0.0475,-0.1367,-0.3188,-0.4858,-0.6767,-1.029,-1.2143,-1.3185,-1.4643,-1.5167,-1.5167,-1.4713,-1.455,-1.4482,-1.434,-1.4299,-1.4299,-1.4299,-1.4299,-1.4299,-1.4299,-1.4299,-1.4299,-1.4299,-1.4299,-1.4299,-1.4299,-1.4211,-1.4136,-1.4136,-1.4014,-1.3905,-1.3905,-1.3829,-1.3795,-1.3795,-1.3795,-1.372,-1.3553,-1.3071,-1.2712,-1.2583,-1.2338,-1.2213,-1.2173,-1.2125,-1.2098,-1.2098,-1.2145,-1.2145,-1.2098,-1.2145,-1.2054,-1.1898,-1.1803,-1.1748,-1.1748,-1.164,-1.1565,-0.0187,0.0,0.0,0.005,0.1866,0.3364,0.2126,0.3746,0.5049,0.3424,0.241,0.1598,0.0981,-0.0691,-0.2258,-0.3003,-0.4064,0.0,-0.452,-0.4609,-0.4456,-0.3828,-0.4109,-0.3725,-0.2032,-0.0721,0.0,0.0,0.0,0.0,0.0,0.0,0.0,0.0,0.0,0.0,0.0,0.0,0.0,0.0,0.0,0.0,0.0,0.0,0.0,0.0,0.0,0.0,0.0,0.0,0.0,0.0,0.0,-0.1524,-0.3759,-0.394,-0.7173,-1.1564,-1.1724,-1.3425,-1.5518,-1.5411,-1.5404,-1.5323,-1.4829,-1.4631,-1.4482,-1.434,-1.4299,-1.4299,-1.4299,-1.4299,-1.4299,-1.4299,-1.4299,-1.4299,-1.4299,-1.4299,-1.4299,-1.4299,-1.4299,-1.4299,-1.4299,-1.417,-1.4112,-1.4112,-1.3939,-1.3795,-1.3795,-1.3795,-1.3795,-1.3795,-1.3566,-1.3214,-1.2726,-1.2583,-1.2433,-1.2298,-1.2186,-1.2098,-1.2098,-1.2247,-1.2254,-1.2104,-1.221,-1.221,-1.2098,-1.2098,-1.2091,-1.2091,-1.2091,-1.1972,-0.0123,0.0,0.0,0.0,0.1233,0.2346,0.1899,0.3089,0.4053,0.3267,0.2746,0.2112,0.1082,-0.0348,-0.1802,-0.3035,-0.4111,-0.5037,-0.5763,-0.4473,-0.3522,-0.3641,-0.2327,-0.118,-0.0677,-0.0262,0.0,0.0,0.0,0.0,0.0,0.0,0.0,0.0,0.0,0.0,0.0,0.0,0.0,0.0,0.0,0.0,0.0,0.0,0.0,0.0,0.0,0.0,0.0,0.0,-0.1034,-0.2584,-0.2576,-0.4202,-0.6764,-0.8561,-1.0337,-1.2179,-1.3988,-1.5208,-1.59,-1.56,-1.5451,-1.5323,-1.4829,-1.466,-1.4572,-1.4367,-1.4299,-1.4299,-1.4299,-1.4299,-1.4299,-1.4299,-1.4299,-1.4299,-1.4299,-1.4299,-1.4299,-1.4299,-1.4299,-1.4299,-1.4299,-1.4258,-1.4231,-1.4231,-1.4183,-1.4156,-1.4156,-1.4156,-1.4116,-1.4007,-1.3912,-1.3675,-1.3227,-1.2956,-1.2839,-1.2792,-1.2744,-1.2717,-1.2717,-1.2764,-1.2678,-1.2522,-1.2569,-1.2467,-1.2254,-1.2254,-1.22,-1.2098,-1.2098,-1.207,0.0512,0.0544,0.0558,0.0351,0.124,0.2134,0.2079,0.2903,0.3542,0.3177,0.2875,0.2421,0.1564,-0.0174,-0.1732,-0.2539,-0.4039,-0.5258,-0.5628,-0.4479,-0.3678,-0.3882,-0.2014,-0.0779,-0.0935,-0.0368,0.0,0.0,0.0,0.0,0.0,0.0,0.0,0.0,0.0,0.0,0.0,0.0,0.0,0.0,0.0,0.0,0.0,0.0,0.0,0.0,0.0,-0.0551,0.0,-0.144,-0.2949,-0.5255,-0.5303,-0.6927,-0.9444,-1.1163,-1.2547,-1.3777,-1.5421,-1.601,-1.5954,-1.5668,-1.537,-1.5046,-1.4708,-1.4572,-1.4491,-1.4353,-1.4299,-1.4299,-1.4299,-1.4299,-1.4299,-1.4299,-1.4299,-1.4299,-1.4299,-1.4299,-1.4299,-1.4299,-1.4299,-1.4299,-1.4299,-1.4299,-1.4299,-1.4299,-1.4299,-1.4299,-1.4299,-1.4299,-1.4265,-1.417,-1.4153,-1.396,-1.3675,-1.3383,-1.3214,-1.3214,-1.3159,-1.3146,-1.3084,-1.3139,-1.303,-1.282,-1.2868,-1.2779,-1.2542,-1.2542,-1.2467,-1.2311,-1.2257,-1.2234,0.0,0.1535,0.1521,0.1001,0.1773,0.2607,0.2532,0.307,0.0,0.3188,0.2913,0.2612,0.2311,-0.0115,-0.1944,-0.1634,-0.3883,-0.5362,-0.448,-0.4469,-0.4463,-0.4262,-0.28,-0.1947,-0.2442,-0.0986,0.0,0.0,0.0,0.0,0.0,0.0,0.0,0.0,0.0,0.0,0.0,0.0,0.0,0.0,0.0,0.0,0.0,-0.0202,-0.0303,-0.0303,-0.0505,-0.1906,-0.4122,-0.4085,-0.5605,-0.7917,-0.8014,-0.9649,-1.1936,-1.2254,-1.3875,-1.5942,-1.6085,-1.603,-1.5825,-1.5455,-1.4912,-1.4419,-1.4266,-1.4267,-1.4299,-1.4299,-1.4299,-1.4299,-1.4299,-1.4299,-1.4299,-1.4299,-1.4299,-1.4299,-1.4299,-1.4299,-1.4299,-1.4299,-1.4299,-1.4299,-1.4299,-1.4299,-1.4299,-1.4299,-1.4299,-1.4299,-1.4299,-1.4299,-1.4299,-1.4299,-1.4177,-1.4132,-1.4132,-1.3817,-1.3605,-1.3605,-1.3512,-1.337,-1.3268,-1.3349,-1.3281,-1.3037,-1.3139,-1.3132,-1.3003,-1.3003,-1.2888,-1.2706,-1.2603,-1.2461,0.3636,0.0,0.2138,0.1791,0.2265,0.2783,0.0,0.3059,0.3526,0.3478,0.3078,0.2697,0.2651,0.0265,-0.1632,-0.1408,-0.3732,-0.5348,-0.4754,-0.3738,-0.2927,-0.276,-0.1375,-0.0936,-0.2139,-0.089,0.0,0.0,0.0,0.0,0.0,0.0,0.0,0.0,0.0,0.0,0.0,0.0,0.0,0.0,0.0,0.0,-0.005,-0.2117,-0.3072,-0.3172,-0.5231,-0.6478,-0.7015,-0.7,-0.8537,-1.0825,-1.0874,-1.2498,-1.4915,-1.4986,-1.5427,-1.6085,-1.6069,-1.603,-1.5527,-1.3127,-1.212,-1.1758,-1.1643,-1.2843,-1.4299,-1.4299,-1.4299,-1.4299,-1.4299,-1.4299,-1.4299,-1.4299,-1.4299,-1.4299,-1.4299,-1.4299,-1.4299,-1.4299,-1.4299,-1.4299,-1.4299,-1.4299,-1.4299,-1.4299,-1.4299,-1.4299,-1.4299,-1.4299,-1.4299,-1.4299,-1.4272,-1.4245,-1.4245,-1.3966,-1.3747,-1.3747,-1.3714,-1.368,-1.3646,-1.3572,-1.3492,-1.3302,-1.3152,-1.3037,-1.3003,-1.3003,-1.2982,-1.2948,-1.2907,-1.2873,0.4739,0.3992,0.3249,0.2582,0.2856,0.325,0.3014,0.3215,0.3393,0.3176,0.2901,0.2636,0.2376,0.0294,-0.1483,-0.1809,-0.3284,-0.4315,-0.415,-0.3664,-0.3067,-0.2289,-0.1548,-0.1103,-0.12,-0.0476,0.0,0.0,0.0,0.0,0.0,0.0,0.0,0.0,0.0,0.0,0.0,0.0,0.0,0.0,0.0,-0.0656,-0.1865,-0.3323,-0.4678,-0.5934,-0.7386,-0.8671,-0.9732,-0.9732,-1.1215,-1.3542,-1.3649,-1.4612,-1.5761,-1.4576,-1.4198,-1.4059,-1.2807,-1.231,-1.1907,-1.0142,-0.944,-0.9476,-1.0506,-1.1681,-1.2977,-1.4022,-1.4299,-1.4299,-1.4299,-1.4299,-1.4299,-1.4299,-1.4346,-1.438,-1.4312,-1.4407,-1.4482,-1.4414,-1.4455,-1.4502,-1.4502,-1.4502,-1.4502,-1.4502,-1.4502,-1.4502,-1.4502,-1.4502,-1.4502,-1.4502,-1.4441,-1.4394,-1.4394,-1.4183,-1.4048,-1.4048,-1.4048,-1.4021,-1.3946,-1.3871,-1.3763,-1.3607,-1.3383,-1.3268,-1.3268,-1.3268,-1.3234,-1.3207,-1.3234,-1.3193,0.525,0.487,0.4251,0.3113,0.3229,0.3511,0.3109,0.3017,0.288,0.2443,0.2347,0.2218,0.1738,-0.0059,-0.1713,-0.2391,-0.2834,-0.3092,-0.3075,-0.3445,-0.3335,-0.2312,-0.2059,-0.1517,-0.0423,-0.0106,0.0,0.0,0.0,0.0,0.0,0.0,0.0,0.0,0.0,0.0,0.0,0.0,0.0,0.0,0.0,-0.1211,-0.343,-0.4229,-0.5836,-0.8055,-0.8897,-1.045,-1.2458,-1.2458,-1.3736,-1.5668,-1.5839,-1.5935,-1.5654,-1.3515,-1.2447,-1.1689,-0.8913,-0.7629,-0.7195,-0.6944,-0.6826,-0.7174,-0.92,-1.0331,-1.1322,-1.319,-1.4016,-1.4333,-1.4333,-1.4319,-1.4299,-1.4299,-1.4407,-1.4475,-1.436,-1.455,-1.4654,-1.457,-1.4606,-1.4694,-1.4694,-1.4694,-1.4694,-1.4694,-1.4714,-1.4728,-1.4728,-1.4728,-1.4728,-1.4728,-1.4638,-1.4536,-1.4516,-1.4401,-1.4326,-1.4299,-1.4299,-1.4231,-1.4125,-1.4119,-1.4,-1.3802,-1.368,-1.3619,-1.3619,-1.3619,-1.3551,-1.3471,-1.3558,-1.3519,0.5205,0.4663,0.3963,0.2782,0.2626,0.2511,0.1521,0.1239,0.1182,0.1163,0.0954,0.0826,0.1001,-0.1305,-0.3064,-0.265,-0.287,-0.2842,-0.2037,-0.1198,-0.1034,-0.2086,-0.1097,-0.0737,-0.1754,-0.0736,0.0,0.0,0.0,0.0,0.0,0.0,0.0,0.0,0.0,0.0,0.0,0.0,0.0,0.0,0.0,-0.0203,-0.0766,-0.5301,-0.7622,-0.8235,-1.2851,-1.5061,-1.544,-1.544,-1.5681,-1.6015,-1.6035,-1.6049,-1.5999,-1.5622,-1.4059,-1.1669,-0.8826,-0.6426,-0.4566,-0.4422,-0.4273,-0.4244,-0.4604,-0.7636,-1.0973,-1.1167,-1.2804,-1.4482,-1.4482,-1.4387,-1.4299,-1.4299,-1.4407,-1.4509,-1.4482,-1.4572,-1.4687,-1.4667,-1.4681,-1.4694,-1.4694,-1.4694,-1.4694,-1.4694,-1.4848,-1.4936,-1.4936,-1.4936,-1.4936,-1.4936,-1.4794,-1.4606,-1.4523,-1.4489,-1.4428,-1.4306,-1.4299,-1.4231,-1.4125,-1.4119,-1.4,-1.3802,-1.3774,-1.3768,-1.3768,-1.3768,-1.3754,-1.3734,-1.3754,-1.3741,0.4319,0.3671,0.293,0.1468,0.1741,0.2204,0.1548,0.1348,0.1077,0.036,0.0061,-0.0031,-0.0032,-0.1304,-0.2085,-0.1305,-0.2767,-0.3519,-0.2177,-0.219,-0.2343,-0.2194,-0.1656,-0.1198,-0.1039,-0.0419,0.0,0.0,0.0,0.0,0.0,0.0,0.0,0.0,0.0,0.0,0.0,0.0,0.0,0.0,0.0,-0.0755,-0.2231,-0.4738,-0.6651,-0.814,-1.0658,-1.1714,-1.1714,-1.1714,-1.1714,-1.1867,-1.3377,-1.396,-1.376,-1.2253,-1.0015,-0.7318,-0.4571,-0.2813,-0.2057,-0.3389,-0.2804,-0.219,-0.493,-0.6389,-0.7343,-0.866,-1.1662,-1.4496,-1.4414,-1.4346,-1.4299,-1.4299,-1.4468,-1.4586,-1.4586,-1.4882,-1.5099,-1.5099,-1.512,-1.5181,-1.5181,-1.5181,-1.5181,-1.5181,-1.5289,-1.533,-1.533,-1.533,-1.5303,-1.5215,-1.5072,-1.4916,-1.4774,-1.4604,-1.4448,-1.4306,-1.4299,-1.4272,-1.4197,-1.4197,-1.4163,-1.4089,-1.4007,-1.3966,-1.3966,-1.3966,-1.3966,-1.3966,-1.4048,-1.4041,0.3767,0.2768,0.1749,0.0618,0.0945,0.1503,0.1215,0.1055,0.0689,-0.0325,-0.0525,-0.0663,-0.113,-0.1605,-0.1713,-0.1059,-0.269,-0.3491,-0.1893,-0.2681,-0.2939,-0.18,-0.1751,-0.1294,-0.0105,0.0,0.0,0.0,0.0,0.0,0.0,0.0,0.0,0.0,0.0,0.0,0.0,0.0,0.0,0.0,0.0,-0.1051,-0.3082,-0.3728,-0.513,-0.7083,-0.7712,-0.8014,-0.8,-0.8018,-0.7975,-0.8233,-1.0305,-1.1479,-1.1764,-0.9736,-0.7237,-0.4498,-0.1868,-0.0922,-0.1194,-0.3161,-0.2869,-0.2401,-0.573,-0.5758,-0.4986,-0.6299,-1.0087,-1.3668,-1.3534,-1.3902,-1.4306,-1.434,-1.4577,-1.4755,-1.4789,-1.5174,-1.5466,-1.5466,-1.5512,-1.5593,-1.5593,-1.5593,-1.5593,-1.5593,-1.5621,-1.5689,-1.5689,-1.5689,-1.5642,-1.5527,-1.535,-1.5147,-1.4936,-1.4665,-1.4448,-1.4306,-1.4299,-1.4299,-1.4299,-1.4299,-1.4299,-1.4299,-1.4183,-1.4166,-1.4166,-1.4166,-1.4166,-1.4173,-1.4245,-1.4238,0.4405,0.2509,0.0748,0.1202,0.0487,-0.0377,-0.0638,-0.0944,-0.1123,-0.0907,-0.0918,-0.125,-0.2212,-0.3156,-0.3781,-0.3727,-0.2878,-0.1701,-0.036,-0.026,-0.0262,-0.0158,-0.0158,-0.0105,0.0,0.0,0.0,0.0,0.0,0.0,0.0,0.0,0.0,0.0,0.0,0.0,0.0,0.0,0.0,0.0,0.0,-0.0101,-0.0358,-0.2883,-0.4125,-0.4425,-0.6917,-0.7987,-0.8022,-0.7997,-0.7975,-0.8031,-0.8211,-0.9745,-1.1812,-1.1808,-0.9975,-0.7137,-0.46,-0.3647,-0.3561,-0.3716,-0.5266,-0.6686,-0.4699,-0.5602,-0.6822,-0.4514,-0.7526,-1.1397,-1.1186,-1.2732,-1.4333,-1.4468,-1.4733,-1.4991,-1.512,-1.5398,-1.5573,-1.5573,-1.5587,-1.5593,-1.5593,-1.5593,-1.5593,-1.5593,-1.575,-1.5888,-1.5888,-1.5888,-1.5881,-1.5874,-1.5567,-1.5221,-1.4748,-1.4604,-1.4448,-1.4306,-1.4299,-1.4299,-1.4299,-1.4299,-1.4299,-1.4299,-1.4292,-1.4285,-1.4285,-1.4285,-1.4285,-1.4285,-1.4292,-1.4292,0.3255,0.2877,0.233,0.0343,-0.0098,-0.0171,-0.0566,-0.0797,-0.1227,-0.2453,-0.2028,-0.1817,-0.3111,-0.234,-0.1833,-0.2709,-0.1683,-0.0562,-0.0052,0.0,0.0,0.0,0.0,0.0,0.0,0.0,0.0,0.0,0.0,0.0,0.0,0.0,0.0,0.0,-0.1517,-0.2379,-0.2379,-0.3926,-0.3926,-0.2331,-0.0737,0.0,-0.0051,-0.1055,-0.1499,-0.1548,-0.2605,-0.3019,-0.301,-0.304,-0.3003,-0.3352,-0.6697,-0.9624,-1.1982,-1.1907,-1.1206,-0.991,-0.7277,-0.629,-0.6448,-0.8086,-0.8153,-0.7738,-0.8353,-0.8116,-0.7409,-0.6479,-0.868,-1.1278,-1.0957,-1.2727,-1.4611,-1.476,-1.495,-1.5167,-1.5411,-1.5628,-1.5798,-1.5893,-1.5913,-1.5913,-1.5913,-1.5913,-1.5913,-1.5913,-1.5961,-1.5995,-1.5995,-1.5995,-1.601,-1.5915,-1.5588,-1.5269,-1.4916,-1.474,-1.459,-1.4441,-1.4346,-1.4299,-1.4299,-1.4299,-1.4299,-1.4299,-1.4299,-1.4299,-1.4299,-1.4299,-1.4299,-1.4299,-1.4299,-1.4299,0.3211,0.2689,0.1974,0.0406,-0.0438,-0.0798,-0.0568,-0.0861,-0.1173,-0.1271,-0.0859,-0.1037,-0.2931,-0.184,-0.0975,-0.1988,-0.091,0.0,0.0,0.0,0.0,0.0,0.0,0.0,0.0,0.0,0.0,0.0,0.0,0.0,0.0,0.0,0.0,0.0,-0.2479,-0.3763,-0.3715,-0.63,-0.6716,-0.4896,-0.2386,-0.0792,0.0,0.0,0.0,0.0,0.0,0.0,0.0,0.0,0.0,-0.0444,-0.4985,-0.8403,-1.0839,-1.1605,-1.1844,-1.1523,-0.9715,-0.8984,-0.9154,-1.0959,-1.0825,-1.0158,-1.1189,-1.0246,-0.8738,-0.8058,-0.9628,-1.1457,-1.1252,-1.2997,-1.4848,-1.5004,-1.5147,-1.5337,-1.5642,-1.5825,-1.6003,-1.6062,-1.6083,-1.6083,-1.6083,-1.6083,-1.6083,-1.6083,-1.6083,-1.6083,-1.6083,-1.6083,-1.6071,-1.5915,-1.5669,-1.5411,-1.5112,-1.4943,-1.4748,-1.4597,-1.4489,-1.4394,-1.4306,-1.4299,-1.4319,-1.4367,-1.4326,-1.4326,-1.4367,-1.4319,-1.4299,-1.4299,-1.4299,-1.4299,0.4665,0.1767,-0.0984,0.1672,-0.0366,-0.2623,-0.0908,-0.1487,-0.1136,0.3236,0.3108,0.1312,-0.1483,-0.1995,-0.2007,-0.1979,-0.0869,0.0,0.0,0.0,0.0,0.0,0.0,0.0,0.0,0.0,0.0,0.0,0.0,0.0,0.0,0.0,0.0,0.0,-0.2487,-0.3715,-0.3618,-0.6297,-0.7545,-0.7359,-0.4992,-0.2511,-0.005,0.0,0.0,0.0,0.0,0.0,0.0,-0.0048,-0.0049,-0.0348,-0.3031,-0.5606,-0.8183,-1.1057,-1.2004,-1.1814,-1.1814,-1.1742,-1.1624,-1.1473,-1.3146,-1.4784,-1.2376,-1.1644,-1.1137,-0.8764,-0.991,-1.1819,-1.1814,-1.3388,-1.5064,-1.52,-1.5303,-1.5493,-1.584,-1.6024,-1.6083,-1.6083,-1.6083,-1.6083,-1.6083,-1.6083,-1.6083,-1.6083,-1.6083,-1.6083,-1.6083,-1.6083,-1.6071,-1.5915,-1.5901,-1.5724,-1.5221,-1.5181,-1.5059,-1.4714,-1.4694,-1.4566,-1.4319,-1.4306,-1.4373,-1.4509,-1.4373,-1.4373,-1.4516,-1.4373,-1.4306,-1.4306,-1.4306,-1.4299,0.2169,0.2305,0.2049,-0.0195,-0.0431,-0.0238,-0.0778,-0.1016,-0.0678,0.092,0.0192,-0.1037,-0.1956,-0.1296,-0.0922,-0.1985,-0.0912,0.0,0.0,0.0,0.0,0.0,0.0,0.0,0.0,0.0,0.0,0.0,0.0,0.0,0.0,0.0,0.0,0.0,-0.2493,-0.3784,-0.3763,-0.8004,-0.9283,-0.7548,-0.6734,-0.5045,-0.2634,-0.0796,0.0,0.0,0.0,0.0,-0.0143,-0.1925,-0.3743,-0.5602,-0.8402,-0.9958,-1.0949,-1.3757,-1.466,-1.4461,-1.4461,-1.4366,-1.426,-1.4322,-1.4869,-1.5369,-1.4632,-1.4398,-1.4259,-1.3565,-1.3982,-1.4629,-1.4534,-1.5028,-1.5649,-1.569,-1.5738,-1.5826,-1.6017,-1.6049,-1.611,-1.6225,-1.6239,-1.6239,-1.6239,-1.6239,-1.6205,-1.6096,-1.6083,-1.6083,-1.6083,-1.6083,-1.6071,-1.5915,-1.5901,-1.5806,-1.5527,-1.5303,-1.5147,-1.5059,-1.4809,-1.4654,-1.4566,-1.4566,-1.4586,-1.4626,-1.4586,-1.4586,-1.4626,-1.4586,-1.4566,-1.4559,-1.4496,-1.4448,0.16,0.1674,0.1446,-0.0103,-0.0076,0.0126,-0.0503,0.0377,0.1061,0.0202,0.0249,0.0098,-0.1084,-0.059,-0.0295,-0.1202,-0.0558,0.0,0.0,0.0,0.0,0.0,0.0,0.0,0.0,0.0,0.0,0.0,0.0,0.0,0.0,0.0,0.0,0.0,-0.248,-0.3774,-0.3715,-0.7727,-0.8989,-0.7501,-0.647,-0.5209,-0.3731,-0.1181,0.0,-0.0049,-0.1062,-0.1533,-0.1716,-0.4257,-0.6217,-0.7779,-0.948,-1.0801,-1.1917,-1.3591,-1.4773,-1.558,-1.5519,-1.5486,-1.5418,-1.5445,-1.5499,-1.5512,-1.5573,-1.5676,-1.5723,-1.5723,-1.5832,-1.5962,-1.5764,-1.5832,-1.5976,-1.5915,-1.5901,-1.5942,-1.6049,-1.6083,-1.611,-1.6198,-1.6266,-1.6307,-1.6307,-1.6354,-1.6341,-1.6191,-1.6123,-1.6083,-1.6083,-1.6083,-1.6049,-1.6003,-1.5996,-1.5935,-1.5737,-1.5554,-1.5425,-1.5364,-1.5147,-1.5053,-1.5053,-1.4877,-1.4862,-1.4916,-1.4916,-1.4916,-1.4916,-1.4862,-1.4801,-1.4694,-1.4599,-1.457,0.2093,0.034,-0.1308,0.1071,0.0319,-0.0846,-0.0146,0.1977,0.3068,0.0525,0.206,0.3028,0.0451,0.0,0.0,0.0,0.0,0.0,0.0,0.0,0.0,0.0,0.0,0.0,0.0,0.0,0.0,0.0,0.0,0.0,0.0,0.0,0.0,0.0,-0.2245,-0.3389,-0.3281,-0.5913,-0.7175,-0.7026,-0.4818,-0.3803,-0.371,-0.1161,0.0,-0.0145,-0.2437,-0.3708,-0.4324,-0.6648,-0.7871,-0.8273,-0.8329,-0.9775,-1.1944,-1.1954,-1.3522,-1.5553,-1.5459,-1.5411,-1.5391,-1.5248,-1.5309,-1.5459,-1.5566,-1.575,-1.5901,-1.5901,-1.601,-1.6049,-1.5942,-1.6017,-1.6049,-1.5976,-1.5935,-1.5962,-1.6069,-1.6103,-1.611,-1.6137,-1.6252,-1.6347,-1.6347,-1.6456,-1.649,-1.6334,-1.6178,-1.6083,-1.6083,-1.6096,-1.6103,-1.6103,-1.611,-1.6069,-1.5976,-1.5942,-1.5818,-1.5641,-1.5607,-1.5593,-1.5593,-1.5248,-1.5092,-1.5221,-1.5221,-1.5221,-1.5221,-1.5092,-1.495,-1.4755,-1.4741,-1.4654,0.0244,-0.0032,-0.0243,-0.0632,-0.0493,-0.0197,-0.0051,0.0472,0.0739,0.0104,0.0471,0.0734,0.0103,0.0,0.0,0.0,0.0,0.0,0.0,0.0,0.0,0.0,0.0,0.0,0.0,0.0,0.0,0.0,0.0,0.0,0.0,0.0,0.0,0.0,-0.0519,-0.0808,-0.0773,-0.3226,-0.4477,-0.4547,-0.3921,-0.3693,-0.3721,-0.1165,0.0,-0.0048,-0.0574,-0.3093,-0.6835,-0.7359,-0.9973,-1.3571,-1.368,-1.4075,-1.4597,-1.4713,-1.5024,-1.5452,-1.5425,-1.5411,-1.5404,-1.5371,-1.5466,-1.5566,-1.5764,-1.5874,-1.5901,-1.5901,-1.601,-1.6049,-1.5942,-1.6017,-1.6103,-1.6191,-1.6123,-1.6076,-1.6225,-1.6259,-1.6327,-1.6513,-1.6581,-1.6601,-1.6601,-1.6628,-1.656,-1.6347,-1.6178,-1.6083,-1.6083,-1.6185,-1.6259,-1.6259,-1.6361,-1.6415,-1.6381,-1.6164,-1.6022,-1.5988,-1.5771,-1.5593,-1.5593,-1.5499,-1.5458,-1.5492,-1.5492,-1.5492,-1.5492,-1.5513,-1.537,-1.5262,-1.514,-1.5011,-0.0285,-0.0576,-0.0778,-0.0773,-0.038,0.0,0.0,0.0,0.0,0.0,0.0,0.0,0.0,0.0,0.0,0.0,0.0,0.0,0.0,0.0,0.0,0.0,0.0,0.0,0.0,0.0,0.0,0.0,0.0,0.0,0.0,0.0,-0.0552,-0.1782,-0.183,-0.2414,-0.3618,-0.4893,-0.553,-0.5605,-0.553,-0.4919,-0.371,-0.1156,0.0,-0.0048,-0.129,-0.3329,-0.5889,-0.7122,-0.9865,-1.3387,-1.3453,-1.4248,-1.5309,-1.5391,-1.5371,-1.5303,-1.5303,-1.5303,-1.5303,-1.5303,-1.5404,-1.5554,-1.5703,-1.5798,-1.5901,-1.5901,-1.601,-1.6062,-1.603,-1.6076,-1.6225,-1.6374,-1.63,-1.6232,-1.6381,-1.6408,-1.6456,-1.656,-1.6648,-1.6696,-1.6696,-1.6696,-1.6648,-1.6493,-1.6388,-1.6293,-1.6293,-1.6361,-1.6408,-1.6408,-1.6476,-1.6524,-1.6524,-1.6381,-1.6293,-1.6293,-1.6151,-1.6013,-1.6013,-1.6013,-1.5945,-1.5852,-1.592,-1.592,-1.5852,-1.5778,-1.5662,-1.5472,-1.5438,-1.5323,-0.0354,-0.1069,-0.1678,-0.0319,0.0,0.0,0.0,0.0,0.0,0.0,0.0,0.0,0.0,0.0,0.0,0.0,0.0,0.0,0.0,0.0,0.0,0.0,0.0,0.0,0.0,0.0,0.0,0.0,0.0,0.0,0.0,-0.0413,-0.161,-0.3735,-0.4203,-0.5414,-0.7524,-0.7545,-0.7508,-0.7508,-0.7508,-0.6188,-0.369,-0.1567,-0.0381,-0.0095,-0.2238,-0.3375,-0.3946,-0.6079,-0.8447,-1.0725,-1.0725,-1.2286,-1.4516,-1.4516,-1.4805,-1.5181,-1.5181,-1.5181,-1.5181,-1.5181,-1.5269,-1.5404,-1.5539,-1.5723,-1.5874,-1.5928,-1.6051,-1.6123,-1.6123,-1.6232,-1.6381,-1.6473,-1.6469,-1.6415,-1.6537,-1.6506,-1.652,-1.6598,-1.67,-1.6736,-1.6736,-1.6716,-1.6696,-1.6696,-1.6567,-1.6524,-1.6524,-1.6544,-1.6506,-1.6506,-1.6585,-1.6598,-1.6598,-1.6527,-1.6506,-1.6506,-1.6537,-1.6524,-1.6524,-1.6493,-1.6442,-1.6198,-1.6293,-1.6273,-1.6123,-1.6044,-1.5845,-1.5627,-1.5627,-1.5546,-0.0824,-0.1215,-0.1314,-0.0276,0.0,0.0,0.0,0.0,0.0,0.0,0.0,0.0,0.0,0.0,0.0,0.0,0.0,0.0,0.0,0.0,0.0,0.0,0.0,0.0,0.0,0.0,0.0,0.0,0.0,0.0,0.0,-0.2077,-0.3462,-0.3793,-0.5818,-0.7098,-0.7417,-0.7253,-0.7171,-0.7171,-0.7171,-0.5927,-0.3617,-0.3276,-0.1985,0.0,-0.0382,-0.1763,-0.3803,-0.4183,-0.5795,-0.8116,-0.8116,-0.9677,-1.1909,-1.1909,-1.3281,-1.5181,-1.5181,-1.5181,-1.5181,-1.5181,-1.5194,-1.5269,-1.5506,-1.5607,-1.5723,-1.5981,-1.6157,-1.6279,-1.6279,-1.6388,-1.653,-1.6628,-1.6655,-1.6648,-1.6662,-1.6669,-1.6709,-1.6897,-1.6937,-1.6951,-1.6951,-1.6836,-1.6696,-1.6696,-1.6567,-1.6524,-1.6524,-1.6588,-1.6669,-1.6669,-1.6836,-1.6917,-1.6917,-1.6743,-1.6669,-1.6669,-1.654,-1.6524,-1.6524,-1.6601,-1.6648,-1.6608,-1.65,-1.6422,-1.6279,-1.6259,-1.6103,-1.5874,-1.5874,-1.5744,-0.0677,-0.1141,-0.1262,-0.0272,0.0,0.0,0.0,0.0,0.0,0.0,0.0,0.0,0.0,0.0,0.0,0.0,0.0,0.0,0.0,0.0,0.0,0.0,0.0,0.0,0.0,0.0,0.0,0.0,0.0,0.0,0.0,-0.1067,-0.2964,-0.5858,-0.6969,-0.8861,-1.173,-1.1619,-1.1483,-1.1329,-0.9899,-0.8702,-0.76,-0.4865,-0.2292,-0.0095,-0.1521,-0.2704,-0.3821,-0.5308,-0.7379,-0.9598,-0.9598,-1.1235,-1.351,-1.3444,-1.4164,-1.5194,-1.5282,-1.5309,-1.5323,-1.5411,-1.5438,-1.5479,-1.5696,-1.5757,-1.5805,-1.6022,-1.6191,-1.6327,-1.6408,-1.6486,-1.6635,-1.6842,-1.6876,-1.6876,-1.6876,-1.6876,-1.6897,-1.6971,-1.6978,-1.6978,-1.6978,-1.6924,-1.6876,-1.6876,-1.6822,-1.6781,-1.6781,-1.6836,-1.6876,-1.6876,-1.6937,-1.6978,-1.6978,-1.6917,-1.6876,-1.6876,-1.6815,-1.6781,-1.6781,-1.6842,-1.6876,-1.6876,-1.6675,-1.6527,-1.6429,-1.6347,-1.6198,-1.603,-1.603,-1.5947,-0.0903,-0.1504,-0.1681,-0.0652,-0.0407,-0.0371,-0.0048,0.0,0.0,0.0,0.0,0.0,0.0,0.0,0.0,0.0,0.0,0.0,0.0,0.0,0.0,0.0,0.0,0.0,0.0,0.0,0.0,0.0,0.0,0.0,0.0,-0.0607,-0.2708,-0.6524,-0.7863,-1.0329,-1.4134,-1.4639,-1.478,-1.4586,-1.2652,-1.1416,-1.0735,-0.7059,-0.4115,-0.1964,-0.3255,-0.411,-0.4751,-0.6751,-0.8626,-1.0273,-1.0245,-1.1849,-1.4222,-1.412,-1.4572,-1.5201,-1.5357,-1.5411,-1.5438,-1.5539,-1.5593,-1.5621,-1.586,-1.5901,-1.5942,-1.6083,-1.6246,-1.6395,-1.6544,-1.6642,-1.6784,-1.6951,-1.6978,-1.6978,-1.6978,-1.6978,-1.6978,-1.6978,-1.6978,-1.6978,-1.6978,-1.6978,-1.6978,-1.6978,-1.6978,-1.6978,-1.6978,-1.6978,-1.6978,-1.6978,-1.6978,-1.6978,-1.6978,-1.6978,-1.6978,-1.6978,-1.6978,-1.6978,-1.6978,-1.6978,-1.6978,-1.6978,-1.687,-1.6714,-1.6524,-1.6415,-1.6266,-1.6083,-1.6083,-1.6083,-0.2068,-0.2735,-0.2823,-0.1718,-0.1522,-0.1323,-0.023,0.0,0.0,0.0,0.0,0.0,0.0,0.0,0.0,0.0,0.0,0.0,0.0,0.0,0.0,0.0,0.0,0.0,0.0,0.0,0.0,0.0,0.0,0.0,0.0,-0.2306,-0.3703,-0.399,-0.8551,-1.1128,-1.1432,-1.3461,-1.4462,-1.4326,-1.4186,-1.2932,-1.0693,-1.044,-0.9126,-0.6918,-0.4757,-0.5179,-0.7393,-0.742,-0.7574,-0.7771,-0.7647,-0.9215,-1.1621,-1.1569,-1.3134,-1.5201,-1.5357,-1.5411,-1.5438,-1.5539,-1.5593,-1.5621,-1.586,-1.5901,-1.5962,-1.6212,-1.6402,-1.6493,-1.6648,-1.6856,-1.6971,-1.6978,-1.6978,-1.6978,-1.6978,-1.6978,-1.6978,-1.6978,-1.6978,-1.6978,-1.6978,-1.6978,-1.6978,-1.6978,-1.6978,-1.6978,-1.6978,-1.6978,-1.6978,-1.6978,-1.6978,-1.6978,-1.6978,-1.6978,-1.6978,-1.6978,-1.6978,-1.6978,-1.6978,-1.6978,-1.6978,-1.6978,-1.6971,-1.6822,-1.6524,-1.6517,-1.6361,-1.6083,-1.6083,-1.6083,-0.0314,-0.151,-0.2586,-0.1823,-0.1601,-0.1498,-0.1167,-0.0536,0.0,0.0,0.0,0.0,0.0,0.0,0.0,0.0,0.0,0.0,0.0,0.0,0.0,0.0,0.0,0.0,0.0,0.0,0.0,0.0,0.0,0.0,0.0,-0.0847,-0.2128,-0.3756,-0.5538,-0.7192,-0.8748,-0.9528,-0.9848,-0.9691,-0.9691,-0.9242,-0.8352,-0.6819,-0.7408,-0.9526,-0.7144,-0.7547,-1.0053,-1.161,-1.2318,-1.2346,-1.2126,-1.2812,-1.3839,-1.3759,-1.4409,-1.535,-1.5506,-1.5615,-1.5723,-1.5872,-1.592,-1.5934,-1.6037,-1.6051,-1.6092,-1.6252,-1.6415,-1.6506,-1.6655,-1.6863,-1.6978,-1.6978,-1.6978,-1.6978,-1.6978,-1.6978,-1.6978,-1.6978,-1.6978,-1.6978,-1.6978,-1.6978,-1.6978,-1.6978,-1.6978,-1.6978,-1.6978,-1.6978,-1.6978,-1.6978,-1.6978,-1.6978,-1.6978,-1.6978,-1.6978,-1.6978,-1.6978,-1.6978,-1.6978,-1.6978,-1.6978,-1.6978,-1.6978,-1.6876,-1.6615,-1.652,-1.6422,-1.6225,-1.613,-1.6083,0.0544,-0.0753,-0.2076,-0.1951,-0.2005,-0.2043,-0.1654,-0.1027,-0.044,-0.009,0.0,0.0,0.0,0.0,0.0,0.0,0.0,0.0,0.0,0.0,0.0,0.0,0.0,0.0,0.0,0.0,0.0,0.0,0.0,0.0,0.0,0.0,-0.1178,-0.3735,-0.3796,-0.4979,-0.7379,-0.7379,-0.7314,-0.7102,-0.7102,-0.7102,-0.7057,-0.5499,-0.7008,-1.083,-0.9251,-1.0026,-1.2506,-1.4139,-1.4875,-1.5003,-1.4801,-1.4923,-1.5174,-1.5133,-1.5242,-1.5438,-1.5642,-1.5771,-1.5928,-1.6085,-1.6083,-1.6083,-1.6083,-1.6117,-1.6191,-1.6341,-1.6432,-1.6581,-1.6736,-1.6904,-1.6978,-1.6978,-1.6978,-1.6978,-1.6978,-1.6978,-1.6978,-1.6978,-1.6978,-1.6978,-1.6978,-1.6978,-1.6978,-1.6978,-1.6978,-1.6978,-1.6978,-1.6978,-1.6978,-1.6978,-1.6978,-1.6978,-1.6978,-1.6978,-1.6978,-1.6978,-1.6978,-1.6978,-1.6978,-1.6978,-1.6978,-1.6978,-1.6978,-1.6931,-1.6777,-1.6621,-1.6497,-1.6307,-1.6205,-1.6157,0.0,0.0,0.0,-0.2155,-0.2849,-0.301,-0.1699,-0.1483,-0.1294,-0.0262,-0.0044,0.0,0.0,0.0,0.0,0.0,0.0,0.0,0.0,0.0,0.0,0.0,0.0,0.0,0.0,0.0,0.0,0.0,0.0,0.0,0.0,0.0,-0.1126,-0.3606,-0.3686,-0.4821,-0.7175,-0.7171,-0.7089,-0.6879,-0.6879,-0.6879,-0.6879,-0.6968,-0.8396,-1.078,-1.0785,-1.2261,-1.4674,-1.4577,-1.4699,-1.5003,-1.4808,-1.493,-1.5208,-1.5357,-1.5418,-1.5466,-1.5806,-1.5908,-1.5935,-1.6085,-1.6083,-1.609,-1.609,-1.6198,-1.6347,-1.649,-1.6581,-1.6736,-1.6937,-1.6978,-1.6978,-1.6978,-1.6978,-1.6978,-1.6978,-1.6978,-1.6978,-1.6978,-1.6978,-1.6978,-1.6978,-1.6978,-1.6978,-1.6978,-1.6978,-1.6978,-1.6978,-1.6978,-1.6978,-1.6978,-1.6978,-1.6978,-1.6978,-1.6978,-1.6978,-1.6978,-1.6978,-1.6978,-1.6978,-1.6978,-1.6978,-1.6978,-1.6978,-1.6978,-1.6978,-1.6777,-1.6554,-1.632,-1.632,-1.632,0.0817,0.0,0.0,0.0,0.0,0.0,-0.3495,-0.2343,-0.1197,-0.1204,-0.0588,0.0,0.0,0.0,0.0,0.0,0.0,0.0,0.0,0.0,0.0,0.0,0.0,0.0,0.0,0.0,0.0,0.0,0.0,0.0,0.0,0.0,-0.0326,-0.1033,-0.1028,-0.1388,-0.2049,-0.2048,-0.2037,-0.1971,-0.1971,-0.1971,-0.2016,-0.3759,-0.5864,-0.8164,-0.8136,-1.058,-1.4577,-1.4606,-1.4794,-1.497,-1.4923,-1.5086,-1.535,-1.5398,-1.5547,-1.5792,-1.5874,-1.5976,-1.6029,-1.6069,-1.6157,-1.6246,-1.6246,-1.6347,-1.6497,-1.6594,-1.6662,-1.6736,-1.6937,-1.6978,-1.6978,-1.6978,-1.6978,-1.6978,-1.6978,-1.6978,-1.6978,-1.6978,-1.6978,-1.6978,-1.6978,-1.6978,-1.6978,-1.6978,-1.6978,-1.6978,-1.6978,-1.6978,-1.6978,-1.6978,-1.6978,-1.6978,-1.6978,-1.6978,-1.6978,-1.6978,-1.6978,-1.6978,-1.6978,-1.6978,-1.6978,-1.6978,-1.6978,-1.6978,-1.6978,-1.6777,-1.6655,-1.6574,-1.6517,-1.6463,0.0,0.0,0.0,-0.1712,0.0,0.0,-0.3358,-0.257,-0.1526,-0.1093,-0.0477,0.0,0.0,0.0,0.0,0.0,0.0,0.0,0.0,0.0,0.0,0.0,0.0,0.0,0.0,0.0,0.0,0.0,0.0,0.0,0.0,0.0,0.0,0.0,0.0,0.0,0.0,0.0,0.0,0.0,0.0,0.0,-0.009,-0.2507,-0.4874,-0.7153,-0.8215,-1.0881,-1.4529,-1.4746,-1.4889,-1.5017,-1.5017,-1.5153,-1.5418,-1.5486,-1.5655,-1.5908,-1.5976,-1.6008,-1.609,-1.6157,-1.6239,-1.632,-1.6381,-1.6503,-1.6581,-1.6675,-1.6743,-1.687,-1.6958,-1.6978,-1.6978,-1.6978,-1.6978,-1.6978,-1.6978,-1.6978,-1.6978,-1.6978,-1.6978,-1.6978,-1.6978,-1.6978,-1.6978,-1.6978,-1.6978,-1.6978,-1.6978,-1.6978,-1.7005,-1.706,-1.7066,-1.7093,-1.7161,-1.7161,-1.7161,-1.7161,-1.7161,-1.7161,-1.7161,-1.7161,-1.7134,-1.7073,-1.7066,-1.7039,-1.6978,-1.689,-1.6763,-1.6696,-1.6608,-1.6567,0.0,0.0,0.0,0.0,-0.1576,0.0,-0.2198,-0.2439,-0.2178,-0.0658,-0.0338,-0.0346,-0.0361,-0.037,-0.0336,-0.0343,-0.0261,-0.0133,0.0,0.0,0.0,0.0,0.0,0.0,0.0,0.0,0.0,0.0,0.0,0.0,0.0,0.0,0.0,0.0,0.0,0.0,0.0,0.0,0.0,0.0,0.0,0.0,-0.009,-0.2776,-0.5142,-0.7242,-0.9801,-1.226,-1.4518,-1.4586,-1.4752,-1.5023,-1.5051,-1.5194,-1.5452,-1.556,-1.5757,-1.5949,-1.6085,-1.609,-1.613,-1.6266,-1.6334,-1.6381,-1.651,-1.6601,-1.6723,-1.6723,-1.6876,-1.6978,-1.6978,-1.6978,-1.6978,-1.6978,-1.6978,-1.6978,-1.6978,-1.6978,-1.6978,-1.6978,-1.6978,-1.6978,-1.6978,-1.6978,-1.6978,-1.6978,-1.6978,-1.6978,-1.6978,-1.6978,-1.7026,-1.7154,-1.7182,-1.7249,-1.7385,-1.7412,-1.7419,-1.7419,-1.7419,-1.7419,-1.7419,-1.7419,-1.7358,-1.7222,-1.7202,-1.7127,-1.7005,-1.6985,-1.691,-1.6723,-1.6723,-1.6723,0.0,0.0,0.0,0.0,-0.0895,0.0,-0.2391,-0.2561,-0.2519,-0.2552,-0.2483,-0.244,-0.2502,-0.2545,-0.259,-0.2562,-0.1878,-0.1043,-0.0134,0.0,0.0,0.0,0.0,0.0,0.0,0.0,0.0,0.0,0.0,0.0,0.0,0.0,0.0,0.0,0.0,0.0,0.0,0.0,0.0,0.0,0.0,0.0,-0.0135,-0.4472,-0.6656,-0.7246,-0.9789,-1.2346,-1.4531,-1.2812,-1.3233,-1.5037,-1.5235,-1.5438,-1.5566,-1.5757,-1.5906,-1.6042,-1.6069,-1.6164,-1.6273,-1.63,-1.6469,-1.6615,-1.6648,-1.6815,-1.6937,-1.6937,-1.6958,-1.6978,-1.6978,-1.6978,-1.6978,-1.6978,-1.6978,-1.6978,-1.6978,-1.6978,-1.6978,-1.6978,-1.6978,-1.6978,-1.6978,-1.6978,-1.6978,-1.6978,-1.6978,-1.6978,-1.6978,-1.6978,-1.6992,-1.7019,-1.7121,-1.7202,-1.7236,-1.7351,-1.7419,-1.7419,-1.7419,-1.7419,-1.7419,-1.7419,-1.7405,-1.7378,-1.7256,-1.7175,-1.7148,-1.7039,-1.6965,-1.6937,-1.6937,-1.6937,0.0,0.0,0.0,-0.016,-0.058,0.0,0.0,-0.1807,-0.1869,-0.2297,-0.2281,-0.233,-0.2995,-0.3026,-0.3048,-0.3182,-0.2304,-0.1643,-0.1689,-0.0701,0.0,0.0,0.0,0.0,0.0,0.0,0.0,0.0,0.0,0.0,0.0,0.0,0.0,0.0,0.0,0.0,0.0,0.0,0.0,0.0,-0.1211,-0.1793,-0.1971,-0.6745,-0.8911,-0.9142,-1.1705,-1.3578,-1.4777,-1.3724,-1.4002,-1.5099,-1.5323,-1.5547,-1.5757,-1.5874,-1.6051,-1.6198,-1.6198,-1.6293,-1.6429,-1.6503,-1.6581,-1.6709,-1.6842,-1.6917,-1.6978,-1.6978,-1.6978,-1.6978,-1.6978,-1.6978,-1.6978,-1.6978,-1.6978,-1.6978,-1.6978,-1.6978,-1.6978,-1.6978,-1.6978,-1.6978,-1.6978,-1.6978,-1.6978,-1.6978,-1.6978,-1.6978,-1.6978,-1.6978,-1.7005,-1.708,-1.7148,-1.7256,-1.7405,-1.744,-1.7561,-1.7636,-1.7636,-1.7636,-1.7636,-1.7636,-1.7609,-1.748,-1.7385,-1.727,-1.7195,-1.7121,-1.7053,-1.6978,-1.6978,-1.6978,0.0,0.0,0.0,0.0,0.0,-0.0462,0.0,0.0,0.0,-0.1466,-0.1551,-0.1977,-0.3082,-0.3177,-0.3166,-0.3522,-0.2687,-0.2325,-0.3293,-0.1785,-0.0611,-0.0746,-0.0309,-0.0133,-0.04,-0.0445,-0.0312,0.0,-0.0268,-0.0312,0.0,0.0,0.0,0.0,0.0,0.0,0.0,-0.0449,-0.0673,-0.0718,-0.3134,-0.4295,-0.4427,-0.8753,-1.0773,-1.1016,-1.3569,-1.4828,-1.503,-1.5153,-1.5242,-1.5282,-1.5404,-1.5601,-1.5867,-1.5922,-1.6076,-1.6307,-1.6307,-1.6422,-1.6533,-1.6655,-1.6716,-1.6763,-1.6944,-1.6978,-1.6978,-1.6978,-1.6978,-1.6978,-1.6978,-1.6978,-1.6978,-1.6978,-1.6978,-1.6978,-1.6978,-1.6978,-1.6978,-1.6978,-1.6978,-1.6978,-1.6978,-1.6978,-1.6978,-1.6978,-1.6978,-1.6978,-1.6978,-1.6978,-1.7026,-1.7141,-1.7175,-1.729,-1.7487,-1.7561,-1.7649,-1.7812,-1.7902,-1.7915,-1.7915,-1.7915,-1.7812,-1.7684,-1.7487,-1.7405,-1.7283,-1.7222,-1.7121,-1.6978,-1.6978,-1.6978,0.0,0.0,0.0,0.0,0.0,-0.0358,-0.023,0.0,-0.2168,-0.1248,0.0,-0.3045,-0.3838,0.0,0.0,-0.4795,-0.4286,-0.3742,-0.3501,-0.3004,-0.2853,-0.3387,-0.1415,-0.0553,-0.1889,-0.2019,-0.1479,-0.009,-0.1267,-0.1436,-0.009,0.0,0.0,0.0,0.0,0.0,0.0,-0.2106,-0.3179,-0.3224,-0.5588,-0.67,-0.6793,-0.9464,-1.0773,-1.1016,-1.3569,-1.4828,-1.5037,-1.5269,-1.5466,-1.5539,-1.556,-1.5587,-1.5648,-1.5961,-1.6164,-1.6307,-1.6307,-1.649,-1.6675,-1.6696,-1.6842,-1.6958,-1.6978,-1.6978,-1.6978,-1.6978,-1.6978,-1.6978,-1.6978,-1.6978,-1.6978,-1.6978,-1.6978,-1.6978,-1.6978,-1.6978,-1.6978,-1.6978,-1.6978,-1.6978,-1.6978,-1.6978,-1.6978,-1.6978,-1.6978,-1.6978,-1.6978,-1.6978,-1.6985,-1.7005,-1.7114,-1.7209,-1.7243,-1.744,-1.7595,-1.7615,-1.7792,-1.7915,-1.7915,-1.7915,-1.786,-1.7846,-1.7704,-1.7561,-1.7541,-1.7324,-1.7121,-1.6978,-1.6978,-1.6978,0.0,0.0,0.0,0.0,0.0,0.0,-0.0403,0.0,-0.2241,-0.2029,0.0,0.0,0.0,0.0,0.0,0.0,-0.43,-0.3884,-0.4417,-0.3367,-0.2772,-0.3374,-0.2656,-0.21,-0.2194,-0.1453,-0.1173,-0.1666,-0.2549,-0.3283,-0.374,-0.3987,-0.4116,-0.4116,-0.4116,-0.4116,-0.4116,-0.5142,-0.5633,-0.5678,-0.804,-0.9197,-0.9286,-1.1699,-1.289,-1.3175,-1.4251,-1.4877,-1.5235,-1.5357,-1.5499,-1.56,-1.573,-1.5818,-1.592,-1.6137,-1.6307,-1.6442,-1.6537,-1.6707,-1.6883,-1.6883,-1.6931,-1.6978,-1.6978,-1.6978,-1.6978,-1.6978,-1.6978,-1.6978,-1.6978,-1.6978,-1.6978,-1.6978,-1.6978,-1.6978,-1.6978,-1.6978,-1.6978,-1.6978,-1.6978,-1.6978,-1.6978,-1.6978,-1.6978,-1.6978,-1.6978,-1.6978,-1.6978,-1.6978,-1.6978,-1.6978,-1.7032,-1.71,-1.7182,-1.7392,-1.75,-1.7595,-1.7792,-1.7915,-1.7915,-1.7915,-1.7915,-1.7915,-1.7812,-1.7684,-1.746,-1.7385,-1.7209,-1.6978,-1.6978,-1.6978,0.3005,0.0,0.0,0.0,0.0,0.0,0.0,0.0,0.0,0.0,-0.2149,0.0,0.0,0.0,0.0,0.0,0.0,-0.3911,-0.4677,-0.3771,-0.3249,-0.3894,-0.4157,-0.3801,-0.2659,-0.1749,-0.188,-0.3387,-0.3837,-0.4753,-0.642,-0.6792,-0.6996,-0.7102,-0.7102,-0.7102,-0.7102,-0.7773,-0.8085,-0.8129,-1.0535,-1.1699,-1.1743,-1.3528,-1.4496,-1.4701,-1.4782,-1.5072,-1.5418,-1.5499,-1.5594,-1.5716,-1.5906,-1.6049,-1.6157,-1.6273,-1.6429,-1.6547,-1.6662,-1.6849,-1.6978,-1.6978,-1.6978,-1.6978,-1.6978,-1.6978,-1.6978,-1.6978,-1.6978,-1.6978,-1.6978,-1.6978,-1.6978,-1.6978,-1.6978,-1.6978,-1.6978,-1.6978,-1.6978,-1.6978,-1.6978,-1.6978,-1.6978,-1.6978,-1.6978,-1.6978,-1.6978,-1.6978,-1.6978,-1.6978,-1.6978,-1.6978,-1.6978,-1.7026,-1.7127,-1.7311,-1.75,-1.7649,-1.7812,-1.7915,-1.7915,-1.7915,-1.7915,-1.7915,-1.7915,-1.7758,-1.7541,-1.75,-1.7351,-1.71,-1.7019,-1.6978,0.0,0.0,0.0,0.0605,0.0,0.0,0.0,0.0,-0.2743,0.0,0.0,0.0,0.0,0.0,0.0,0.0,0.0,0.0,0.0,-0.4532,-0.5384,-0.6114,-0.6017,-0.5339,-0.3891,-0.4122,-0.4553,-0.5008,-0.5097,-0.5531,-0.6447,-0.6522,-0.6706,-0.7095,-0.7102,-0.7102,-0.7102,-0.9424,-1.0584,-1.0629,-1.3046,-1.4166,-1.4173,-1.4397,-1.459,-1.4708,-1.5045,-1.5262,-1.5432,-1.5772,-1.5894,-1.5928,-1.6178,-1.63,-1.63,-1.6307,-1.649,-1.6689,-1.6696,-1.6849,-1.6978,-1.6978,-1.6978,-1.6978,-1.6978,-1.6978,-1.6978,-1.6978,-1.6978,-1.6978,-1.6978,-1.6978,-1.6978,-1.6978,-1.6978,-1.6978,-1.6978,-1.6978,-1.6978,-1.6978,-1.6978,-1.6978,-1.6978,-1.6978,-1.6978,-1.6978,-1.6978,-1.6978,-1.6978,-1.6978,-1.6978,-1.6978,-1.6978,-1.6985,-1.6985,-1.7256,-1.7541,-1.7846,-1.7915,-1.7915,-1.7915,-1.7915,-1.7915,-1.7915,-1.7915,-1.786,-1.7902,-1.7704,-1.7507,-1.7399,-1.7114,-1.6978,0.0,0.0,0.353,0.0922,0.0,0.0,0.0,0.0,0.0,0.0,0.0,0.0,0.0,0.0,0.0,0.0,0.0,0.0,0.0,-0.4649,-0.5354,-0.5888,-0.5595,-0.5229,-0.4899,-0.3441,-0.3147,-0.4704,-0.5604,-0.684,-0.8594,-1.0258,-1.1367,-1.1697,-1.1837,-1.1876,-1.1876,-1.2686,-1.3091,-1.3091,-1.3986,-1.4441,-1.4441,-1.4545,-1.4746,-1.4903,-1.5099,-1.5323,-1.5533,-1.582,-1.5962,-1.6029,-1.6232,-1.6368,-1.6463,-1.6513,-1.6615,-1.6709,-1.687,-1.6937,-1.6978,-1.6978,-1.6978,-1.6978,-1.6978,-1.6978,-1.6978,-1.6978,-1.6978,-1.6978,-1.6978,-1.6978,-1.6978,-1.6978,-1.6978,-1.6978,-1.6978,-1.6978,-1.6978,-1.6978,-1.6978,-1.6978,-1.6978,-1.6978,-1.6978,-1.6978,-1.6978,-1.6978,-1.6978,-1.6978,-1.6978,-1.6978,-1.6978,-1.6978,-1.6978,-1.7249,-1.7507,-1.7704,-1.7812,-1.7915,-1.7915,-1.7915,-1.7915,-1.7915,-1.7915,-1.7812,-1.7717,-1.7615,-1.7514,-1.7419,-1.7317,-1.7168,0.572,0.4379,0.0,0.087,-0.09,0.0,-0.2178,0.0,-0.4038,0.0,0.0,0.0,0.0,0.0,0.0,0.0,0.0,0.0,0.0,-0.4445,-0.4918,-0.5491,-0.5629,-0.5579,-0.5342,-0.3964,-0.3546,-0.4741,-0.6077,-0.7647,-0.9551,-1.198,-1.3519,-1.3973,-1.4238,-1.4373,-1.4373,-1.4428,-1.4428,-1.438,-1.4523,-1.4618,-1.4679,-1.4828,-1.4977,-1.514,-1.5384,-1.5533,-1.573,-1.5934,-1.6076,-1.6185,-1.6388,-1.6524,-1.656,-1.6662,-1.6736,-1.6842,-1.6944,-1.6978,-1.6978,-1.6978,-1.6978,-1.6978,-1.6978,-1.6978,-1.6978,-1.6978,-1.6978,-1.6978,-1.6978,-1.6978,-1.6978,-1.6978,-1.6978,-1.6978,-1.6978,-1.6978,-1.6978,-1.6978,-1.6978,-1.6978,-1.6978,-1.6978,-1.6978,-1.6978,-1.6978,-1.6978,-1.6978,-1.6978,-1.6978,-1.6978,-1.6978,-1.7005,-1.7053,-1.7331,-1.7487,-1.7595,-1.7792,-1.7915,-1.7915,-1.7915,-1.799,-1.8091,-1.7948,-1.7901,-1.7913,-1.7751,-1.765,-1.7446,-1.7555,-1.7419]},{"header":{"parameterUnit":"m.s-1","parameterCategory":1,"la1":30.6,"la2":29.2853,"lo1":-89.7004,"lo2":-87.6739,"dy":0.0162,"dx":0.0183,"nx":112,"ny":82,"refTime":"2023-08-20T18:00:00:Z","depth":0,"parameterNumber":3,"parameterNumberName":"V-component_of_WINDS"},"data":[0.0,0.0,0.0,0.0,0.0,0.0,0.0,0.0,0.0,0.0,0.0,0.0,0.0,0.0,0.0,0.0,0.0,0.0,0.0,0.0,0.0,0.0,0.0,0.0,0.0,0.0,0.0,0.0,0.0,0.0,0.0,0.0,0.0,0.0,0.0,0.0,0.0,0.0,0.0,0.0,0.0,0.0,0.0,0.0,0.0,0.0,0.0,0.0,0.0,0.0,0.0,0.0,0.0,0.0,0.0,0.0,0.0,0.0,0.0,0.0,0.0,0.0,0.0,0.0,0.0,0.0,0.0,0.0,0.0,0.0,0.0,0.0,0.0,0.0,0.0,0.0,0.0,0.0,0.0,0.0,0.0,0.0,0.0,0.0,0.0,0.0,0.0,0.0,0.0,0.0,3.324,3.7317,4.0161,4.089,3.8749,3.8342,3.6172,3.1358,0.0,0.0,0.0,0.0,0.0,0.0,0.0,0.0,0.0,0.0,0.0,0.0,0.0,0.0,0.0,0.0,0.0,0.0,0.0,0.0,0.0,0.0,0.0,0.0,0.0,0.0,0.0,0.0,0.0,0.0,0.0,0.0,0.0,0.0,0.0,0.0,0.0,0.0,0.0,0.0,0.0,0.0,0.0,0.0,0.0,0.0,0.0,0.0,0.0,0.0,0.0,0.0,0.0,0.0,0.0,0.0,0.0,0.0,0.0,0.0,0.0,0.0,0.0,0.0,0.0,0.0,0.0,0.0,0.0,0.0,0.0,0.0,0.0,0.0,0.0,0.0,0.0,0.0,0.0,0.0,0.0,0.0,0.0,0.0,0.0,0.0,0.0,0.0,0.0,0.0,0.0,0.0,0.0,0.0,0.0,0.0,0.0,0.0,0.0,0.0,0.0,0.0,0.0,0.0,3.4234,3.8103,4.0888,4.2069,4.1145,3.7988,3.5112,3.2896,0.0,0.0,0.0,0.0,0.0,0.0,0.0,0.0,0.0,0.0,0.0,0.0,0.0,0.0,0.0,0.0,0.0,0.0,0.0,0.0,0.0,0.0,0.0,0.0,0.0,0.0,0.0,0.0,0.0,0.0,0.0,0.0,0.0,0.0,0.0,0.0,0.0,0.0,0.0,0.0,0.0,0.0,0.0,0.0,0.0,0.0,0.0,0.0,0.0,0.0,0.0,0.0,0.0,0.0,0.0,0.0,0.0,0.0,0.0,0.0,0.0,0.0,0.0,0.0,0.0,0.0,0.0,0.0,0.0,0.0,0.0,0.0,0.0,0.0,0.0,0.0,0.0,0.0,0.0,0.0,0.0,0.0,0.0,0.0,0.0,0.0,0.0,0.0,0.0,0.0,0.0,0.0,0.0,0.0,0.0,0.0,0.0,0.0,0.0,0.0,0.0,0.0,0.0,3.6226,3.8556,4.0215,4.2526,4.3405,4.1995,3.8428,3.5537,3.3919,3.0553,0.0,0.0,0.0,0.0,0.0,0.0,0.0,0.0,0.0,0.0,0.0,0.0,0.0,0.0,0.0,0.0,0.0,0.0,0.0,0.0,0.0,0.0,0.0,0.0,0.0,0.0,0.0,0.0,0.0,0.0,0.0,0.0,0.0,0.0,0.0,0.0,0.0,0.0,0.0,0.0,0.0,0.0,0.0,0.0,0.0,0.0,0.0,0.0,0.0,0.0,0.0,0.0,0.0,0.0,0.0,0.0,0.0,0.0,0.0,0.0,0.0,0.0,0.0,0.0,0.0,0.0,0.0,0.0,0.0,0.0,0.0,0.0,0.0,0.0,0.0,0.0,0.0,0.0,0.0,0.0,0.0,0.0,0.0,0.0,0.0,0.0,0.0,0.0,0.0,0.0,0.0,0.0,0.0,0.0,0.0,0.0,0.0,0.0,0.0,0.0,0.0,0.0,3.9801,4.1683,4.2336,4.4106,4.4391,4.2401,3.8794,3.6019,3.4588,2.9616,0.0,0.0,0.0,0.0,0.0,0.0,0.0,0.0,0.0,0.0,0.0,0.0,0.0,0.0,0.0,0.0,0.0,0.0,0.0,0.0,0.0,0.0,0.0,0.0,0.0,0.0,0.0,0.0,0.0,0.0,0.0,0.0,0.0,0.0,0.0,0.0,0.0,0.0,0.0,0.0,0.0,0.0,0.0,0.0,0.0,0.0,0.0,0.0,0.0,0.0,0.0,0.0,0.0,0.0,0.0,0.0,0.0,0.0,0.0,0.0,0.0,0.0,0.0,0.0,0.0,0.0,0.0,0.0,0.0,0.0,0.0,0.0,0.0,0.0,0.0,0.0,0.0,0.0,0.0,0.0,0.0,0.0,0.0,0.0,0.0,0.0,0.0,0.0,0.0,0.0,0.0,0.0,0.0,0.0,0.0,0.0,0.0,0.0,0.0,0.0,0.0,0.0,3.9419,4.0689,4.3782,4.5,4.4747,4.2739,3.8606,3.5755,3.4817,2.9223,0.0,0.0,0.0,0.0,0.0,0.0,0.0,0.0,0.0,0.0,0.0,0.0,0.0,0.0,0.0,0.0,0.0,0.0,0.0,0.0,0.0,0.0,0.0,0.0,0.0,0.0,0.0,0.0,0.0,0.0,0.0,0.0,0.0,0.0,0.0,0.0,0.0,0.0,0.0,0.0,0.0,0.0,0.0,0.0,0.0,0.0,0.0,0.0,0.0,0.0,0.0,0.0,0.0,0.0,0.0,0.0,0.0,0.0,0.0,0.0,0.0,0.0,0.0,0.0,0.0,0.0,0.0,0.0,0.0,0.0,0.0,0.0,0.0,0.0,0.0,0.0,0.0,0.0,0.0,0.0,0.0,0.0,0.0,0.0,0.0,0.0,0.0,0.0,0.0,0.0,0.0,0.0,0.0,0.0,0.0,0.0,0.0,0.0,0.0,0.0,0.0,0.0,4.0684,4.1777,4.406,4.459,4.4194,4.2726,3.8737,3.5892,3.4935,0.0,0.0,0.0,0.0,0.0,0.0,0.0,0.0,0.0,0.0,0.0,0.0,0.0,0.0,0.0,0.0,0.0,0.0,0.0,0.0,0.0,0.0,0.0,0.0,0.0,0.0,0.0,0.0,0.0,0.0,0.0,0.0,0.0,0.0,0.0,0.0,0.0,0.0,0.0,0.0,0.0,0.0,0.0,0.0,0.0,0.0,0.0,0.0,0.0,0.0,0.0,0.0,0.0,0.0,0.0,0.0,0.0,0.0,0.0,0.0,0.0,0.0,0.0,0.0,0.0,0.0,0.0,0.0,0.0,0.0,0.0,0.0,0.0,0.0,0.0,0.0,0.0,0.0,0.0,0.0,0.0,0.0,0.0,0.0,0.0,0.0,0.0,0.0,0.0,0.0,0.0,0.0,0.0,0.0,0.0,0.0,0.0,0.0,0.0,0.0,0.0,0.0,4.0859,4.1577,4.2594,4.4526,4.4705,4.4183,4.2876,3.8618,3.5747,3.5094,0.0,0.0,0.0,0.0,0.0,0.0,0.0,0.0,0.0,0.0,0.0,0.0,0.0,0.0,0.0,0.0,0.0,0.0,0.0,0.0,0.0,0.0,0.0,0.0,0.0,0.0,0.0,0.0,0.0,0.0,0.0,0.0,0.0,0.0,0.0,0.0,0.0,0.0,0.0,0.0,0.0,0.0,0.0,0.0,0.0,0.0,0.0,0.0,0.0,0.0,0.0,0.0,0.0,0.0,0.0,0.0,0.0,0.0,0.0,0.0,0.0,0.0,0.0,0.0,0.0,0.0,0.0,0.0,0.0,0.0,0.0,0.0,0.0,0.0,0.0,0.0,0.0,0.0,0.0,0.0,0.0,0.0,0.0,0.0,0.0,0.0,0.0,0.0,0.0,0.0,0.0,0.0,0.0,0.0,0.0,0.0,0.0,0.0,0.0,0.0,0.0,0.0,4.1692,4.1872,4.2777,4.5321,4.5594,4.4898,4.3239,3.8234,3.5258,0.0,0.0,0.0,0.0,0.0,0.0,0.0,0.0,0.0,0.0,0.0,0.0,0.0,0.0,0.0,0.0,0.0,0.0,0.0,0.0,0.0,0.0,0.0,0.0,0.0,0.0,0.0,0.0,0.0,0.0,0.0,0.0,0.0,0.0,0.0,0.0,0.0,0.0,0.0,0.0,0.0,0.0,0.0,0.0,0.0,0.0,0.0,0.0,0.0,0.0,0.0,0.0,0.0,0.0,0.0,0.0,0.0,0.0,0.0,0.0,0.0,0.0,0.0,0.0,0.0,0.0,0.0,0.0,0.0,0.0,0.0,0.0,0.0,0.0,0.0,0.0,0.0,0.0,0.0,0.0,0.0,0.0,0.0,0.0,0.0,0.0,0.0,0.0,0.0,0.0,0.0,0.0,0.0,0.0,0.0,0.0,0.0,0.0,0.0,0.0,0.0,0.0,0.0,4.2518,4.2347,4.2893,4.5338,4.4551,4.3624,4.3124,3.782,3.5035,3.6244,0.0,0.0,0.0,0.0,0.0,0.0,0.0,0.0,0.0,0.0,0.0,0.0,0.0,0.0,0.0,0.0,0.0,0.0,0.0,0.0,0.0,0.0,0.0,0.0,0.0,0.0,0.0,0.0,0.0,0.0,0.0,0.0,0.0,0.0,0.0,0.0,0.0,0.0,0.0,0.0,0.0,0.0,0.0,0.0,0.0,0.0,0.0,0.0,0.0,0.0,0.0,0.0,0.0,0.0,0.0,0.0,0.0,0.0,0.0,0.0,0.0,0.0,0.0,0.0,0.0,0.0,0.0,0.0,0.0,0.0,0.0,0.0,0.0,0.0,0.0,0.0,0.0,0.0,0.0,0.0,0.0,0.0,0.0,0.0,0.0,0.0,0.0,0.0,0.0,0.0,0.0,0.0,0.0,0.0,0.0,0.0,0.0,0.0,0.0,0.0,0.0,0.0,4.2956,4.2805,4.3257,4.5377,4.4705,4.382,4.3162,3.8238,3.5346,3.564,0.0,0.0,0.0,0.0,0.0,0.0,0.0,0.0,0.0,0.0,0.0,0.0,0.0,0.0,0.0,0.0,0.0,0.0,0.0,0.0,0.0,0.0,0.0,0.0,0.0,0.0,0.0,0.0,0.0,0.0,0.0,0.0,0.0,0.0,0.0,0.0,0.0,0.0,0.0,0.0,0.0,0.0,0.0,0.0,0.0,0.0,0.0,0.0,0.0,0.0,0.0,0.0,0.0,0.0,0.0,0.0,0.0,0.0,0.0,0.0,0.0,0.0,0.0,0.0,0.0,0.0,0.0,0.0,0.0,0.0,0.0,0.0,0.0,0.0,0.0,0.0,0.0,0.0,0.0,0.0,0.0,0.0,0.0,0.0,0.0,0.0,0.0,0.0,0.0,0.0,0.0,0.0,0.0,0.0,0.0,0.0,0.0,0.0,0.0,0.0,0.0,0.0,4.3225,4.3245,4.3746,4.5402,4.5518,4.4821,4.3239,3.9158,3.6028,3.4424,0.0,0.0,0.0,0.0,0.0,0.0,0.0,0.0,0.0,0.0,0.0,0.0,0.0,0.0,0.0,0.0,0.0,0.0,0.0,0.0,0.0,0.0,0.0,0.0,0.0,0.0,0.0,0.0,0.0,0.0,0.0,0.0,0.0,0.0,0.0,0.0,0.0,0.0,0.0,0.0,0.0,0.0,0.0,0.0,0.0,0.0,0.0,0.0,0.0,0.0,0.0,0.0,0.0,0.0,0.0,0.0,0.0,0.0,0.0,0.0,3.1459,3.078,0.0,0.0,0.0,0.0,0.0,0.0,0.0,0.0,0.0,0.0,0.0,0.0,0.0,0.0,0.0,0.0,0.0,0.0,0.0,0.0,0.0,0.0,0.0,0.0,0.0,0.0,0.0,0.0,0.0,0.0,0.0,0.0,0.0,0.0,0.0,0.0,0.0,0.0,0.0,0.0,4.4137,4.3759,4.3904,4.5436,4.4975,4.4167,4.3162,3.9158,3.6538,3.6185,3.2318,0.0,0.0,0.0,0.0,0.0,0.0,0.0,0.0,0.0,0.0,0.0,0.0,0.0,0.0,0.0,0.0,0.0,0.0,0.0,0.0,0.0,0.0,0.0,0.0,0.0,0.0,0.0,0.0,0.0,0.0,0.0,0.0,0.0,0.0,0.0,0.0,0.0,0.0,0.0,0.0,0.0,0.0,0.0,0.0,0.0,0.0,0.0,0.0,0.0,0.0,0.0,0.0,0.0,0.0,0.0,0.0,0.0,0.0,0.0,3.571,3.3713,0.0,0.0,0.0,0.0,0.0,0.0,0.0,0.0,0.0,0.0,0.0,0.0,0.0,0.0,0.0,0.0,0.0,0.0,0.0,0.0,0.0,0.0,0.0,0.0,0.0,0.0,0.0,0.0,0.0,0.0,0.0,0.0,0.0,0.0,0.0,0.0,0.0,0.0,0.0,0.0,4.4499,4.3932,4.4005,4.5549,4.5287,4.4511,4.3209,4.0277,3.7853,3.6231,3.3644,0.0,0.0,0.0,0.0,0.0,0.0,0.0,0.0,0.0,0.0,0.0,0.0,0.0,0.0,0.0,0.0,0.0,0.0,0.0,0.0,0.0,0.0,0.0,0.0,0.0,0.0,0.0,0.0,0.0,0.0,0.0,0.0,0.0,0.0,0.0,0.0,0.0,0.0,0.0,0.0,0.0,0.0,0.0,0.0,0.0,0.0,0.0,0.0,0.0,0.0,0.0,0.0,0.0,4.6472,4.7563,4.8775,4.8964,4.7923,4.5695,4.195,3.8593,3.5869,3.7121,0.0,0.0,0.0,0.0,0.0,0.0,0.0,0.0,0.0,0.0,0.0,0.0,0.0,0.0,0.0,0.0,0.0,0.0,0.0,0.0,0.0,0.0,4.4275,4.5159,4.5902,4.5225,4.0967,0.0,0.0,0.0,0.0,0.0,0.0,0.0,0.0,0.0,0.0,0.0,4.4646,4.4104,4.4191,4.5646,4.5825,4.5099,4.3277,4.1686,3.9398,3.6157,3.5007,3.3535,0.0,0.0,0.0,0.0,0.0,0.0,0.0,0.0,0.0,0.0,0.0,0.0,0.0,0.0,0.0,0.0,0.0,0.0,0.0,0.0,0.0,0.0,0.0,0.0,0.0,0.0,0.0,0.0,0.0,0.0,0.0,0.0,3.3413,3.3269,0.0,0.0,0.0,0.0,0.0,0.0,0.0,0.0,0.0,0.0,0.0,0.0,0.0,4.7989,4.9176,5.0911,5.1598,5.1223,5.2073,5.2217,5.1832,5.2604,5.3181,5.348,5.2154,0.0,4.0401,3.9128,0.0,0.0,0.0,0.0,0.0,0.0,0.0,0.0,0.0,0.0,0.0,0.0,0.0,0.0,0.0,0.0,0.0,0.0,0.0,0.0,0.0,0.0,4.681,4.7032,4.716,4.7283,4.7457,4.5694,4.3927,4.331,4.2058,4.1589,0.0,0.0,0.0,0.0,0.0,0.0,4.4863,4.4705,4.4955,4.5793,4.5896,4.5147,4.3327,4.235,4.0627,3.7864,3.6196,3.55,3.5843,3.4661,0.0,0.0,0.0,0.0,0.0,0.0,0.0,0.0,0.0,0.0,0.0,0.0,0.0,0.0,0.0,0.0,0.0,0.0,0.0,0.0,0.0,0.0,0.0,0.0,0.0,0.0,0.0,0.0,0.0,3.699,3.8614,3.7086,3.9503,4.0835,0.0,0.0,0.0,0.0,0.0,0.0,0.0,0.0,0.0,4.899,5.2056,5.376,5.3924,5.6035,5.7193,5.738,5.8201,5.869,5.8873,5.926,5.9645,5.9993,5.9601,5.6561,5.1591,4.7302,4.5503,4.5176,0.0,0.0,0.0,0.0,4.3975,4.5235,4.5747,4.6299,4.6854,4.7419,0.0,0.0,0.0,0.0,0.0,0.0,0.0,4.8379,4.8656,5.026,5.1787,5.183,5.2222,5.2575,5.25,5.082,4.8631,4.6328,4.5624,4.566,4.6439,4.5702,0.0,0.0,0.0,4.5035,4.557,4.5222,4.5174,4.5934,4.6005,4.5464,4.4147,4.328,4.1864,3.9663,3.7483,3.6196,3.6045,3.5377,3.4872,0.0,0.0,0.0,0.0,0.0,0.0,0.0,0.0,0.0,0.0,0.0,0.0,0.0,0.0,0.0,0.0,0.0,0.0,0.0,0.0,0.0,0.0,0.0,0.0,0.0,0.0,0.0,0.0,4.0845,4.2524,4.0645,4.2843,4.4115,0.0,0.0,0.0,0.0,0.0,0.0,4.9332,5.295,5.5213,5.5799,5.8547,5.9857,5.9551,6.1447,6.2818,6.3661,6.432,6.5113,6.5954,6.5954,6.5837,6.564,6.564,6.4435,6.1972,5.5261,5.1641,5.0194,4.9093,4.9199,4.9934,5.0059,5.0854,5.2014,5.2753,5.3463,5.3963,5.3125,5.2055,5.0781,4.926,0.0,0.0,0.0,0.0,5.1718,5.3046,5.4648,5.6013,5.625,5.6953,5.7344,5.6484,5.5273,5.3202,4.9333,4.87,4.8887,4.9121,4.7571,0.0,4.8552,4.6836,4.5663,4.6522,4.6054,4.5897,4.6424,4.6265,4.5778,4.4848,4.4175,4.3006,4.1184,3.9078,3.7399,3.6262,3.6027,3.5295,3.3978,0.0,0.0,0.0,0.0,0.0,0.0,0.0,0.0,0.0,0.0,0.0,0.0,0.0,0.0,0.0,0.0,0.0,0.0,0.0,0.0,0.0,0.0,0.0,0.0,0.0,0.0,0.0,0.0,0.0,4.2956,4.5935,0.0,0.0,0.0,0.0,5.0715,5.3191,5.5727,5.8235,6.0188,6.2248,6.4493,6.5618,6.6861,6.8349,6.8505,6.9034,7.0022,7.0061,7.0639,7.1601,7.1601,7.1132,7.0351,7.0351,6.9843,6.8397,6.0432,5.6718,5.5823,5.4113,5.5031,5.7079,5.5374,5.5829,5.707,5.543,5.4907,5.5194,5.6845,5.7404,5.7225,5.6192,5.5931,0.0,0.0,5.4336,5.5078,5.5156,5.6445,5.7969,5.8828,5.9609,6.0,5.918,5.8865,5.7299,5.2187,4.9961,4.914,5.0,0.0,4.9687,4.8984,4.9453,4.9297,4.7734,4.75,4.7461,4.7539,4.6797,4.5894,4.4964,4.4842,4.4036,4.2152,4.1177,3.9926,3.8235,3.7291,3.6811,3.6775,3.5932,0.0,0.0,0.0,0.0,0.0,0.0,0.0,0.0,0.0,0.0,0.0,0.0,0.0,0.0,0.0,0.0,0.0,0.0,0.0,0.0,0.0,0.0,0.0,0.0,0.0,0.0,0.0,0.0,5.1385,5.4116,0.0,5.4621,5.4554,5.5302,5.7067,5.91,6.1366,6.394,6.6796,6.9217,7.1192,7.2138,7.3114,7.4272,7.4271,7.4475,7.4798,7.4798,7.4724,7.4492,7.4492,7.4023,7.3203,7.3203,7.2734,7.1719,6.886,6.5886,6.292,6.0511,6.0914,6.2653,6.1479,6.2101,6.3545,6.2878,6.2641,6.2408,6.0773,5.9568,5.8476,5.699,5.6952,5.7422,5.7343,5.793,5.8711,5.9258,5.9883,6.043,6.0742,6.1015,6.1172,6.0859,6.0351,5.9374,5.7539,5.4921,5.3081,5.3351,5.1639,5.0624,5.1907,5.1014,4.9961,4.9336,4.9258,4.9062,4.8516,4.7656,4.6992,4.6676,4.562,4.4438,4.3139,4.1732,4.0427,3.9197,3.8272,3.7804,3.783,3.7445,3.727,0.0,0.0,0.0,0.0,0.0,0.0,0.0,0.0,0.0,0.0,0.0,0.0,0.0,0.0,0.0,0.0,0.0,0.0,0.0,0.0,0.0,0.0,0.0,0.0,0.0,5.2808,5.5916,5.8679,6.0932,6.2124,6.1832,6.1796,6.2382,6.3789,6.5742,6.793,7.0234,7.2812,7.4844,7.6289,7.6832,7.7378,7.8047,7.7964,7.7964,7.8047,7.8047,7.7734,7.7187,7.7187,7.6719,7.5937,7.6211,7.5859,7.5039,7.4726,7.293,7.0078,6.7059,6.6672,6.7695,6.7109,6.7617,6.8594,6.8281,6.8008,6.7305,6.4726,6.293,6.1562,6.043,6.0273,6.0625,6.1211,6.1523,6.1836,6.2422,6.2578,6.2578,6.2578,6.2578,6.25,6.2187,6.168,6.1172,6.0898,5.8553,5.6518,5.6164,5.4022,5.3007,5.4943,5.3082,5.1679,5.2263,5.1328,5.0391,4.9805,4.8476,4.7617,4.7617,4.6522,4.5195,4.3736,4.2804,4.1548,3.9786,3.9392,3.9079,3.8767,3.8962,3.9142,3.9285,0.0,0.0,0.0,0.0,0.0,0.0,0.0,0.0,0.0,0.0,0.0,0.0,0.0,0.0,0.0,0.0,0.0,0.0,0.0,0.0,0.0,0.0,0.0,5.2879,5.7196,6.1332,6.4284,6.6028,6.7081,6.7224,6.8789,7.0117,7.0898,7.3359,7.5547,7.7226,7.8164,7.8984,7.9765,7.9576,7.9573,7.9765,7.9575,7.9576,7.9765,7.9765,7.9765,7.9726,7.9726,7.9297,7.8594,7.9375,7.9258,7.8476,7.7617,7.7265,7.6914,7.3437,7.2109,7.2109,7.2109,7.207,7.1953,7.1094,7.0234,6.9375,6.8555,6.7695,6.6992,6.6992,6.6406,6.5703,6.5703,6.5117,6.4453,6.4414,6.4414,6.4375,6.4336,6.4336,6.4062,6.3203,6.3008,6.2734,6.1914,6.039,5.8984,5.8125,5.7226,5.6913,5.7676,5.5699,0.0,5.6269,5.3589,5.1523,5.1562,4.9336,4.7812,4.7773,4.7688,4.6514,4.3906,4.4484,4.3427,4.0156,4.0703,4.0663,3.9842,4.0524,4.0968,4.1074,0.0,0.0,0.0,0.0,0.0,0.0,0.0,0.0,0.0,0.0,0.0,0.0,0.0,0.0,0.0,0.0,0.0,0.0,0.0,0.0,0.0,5.6303,5.9498,5.9755,6.323,6.7181,7.1134,7.3077,7.4186,7.4335,7.5351,7.6133,7.6328,7.8164,7.9453,7.9922,8.0781,8.1285,8.1365,8.1469,8.147,8.1364,8.147,8.1521,8.1601,8.1601,8.125,8.0625,8.0625,8.0195,7.9375,7.9609,7.957,7.9336,7.9101,7.9023,7.8672,7.5234,7.4258,7.4765,7.4101,7.3906,7.375,7.289,7.2422,7.1992,7.0508,6.9844,6.9531,6.8945,6.8633,6.8437,6.8359,6.8164,6.7851,6.7265,6.664,6.6015,6.539,6.4765,6.4219,6.3984,6.3437,6.293,6.2695,6.1758,6.0742,5.9844,5.8515,5.7617,5.785,5.6757,5.582,5.5662,5.4804,5.4452,5.5027,5.3892,5.2603,5.1313,5.0682,4.8697,4.4883,4.4751,4.4146,4.2631,4.2672,4.2612,4.2383,4.2731,4.2912,0.0,0.0,0.0,0.0,0.0,0.0,0.0,0.0,0.0,0.0,0.0,0.0,0.0,0.0,0.0,0.0,0.0,0.0,0.0,0.0,0.0,0.0,6.2413,6.6503,6.8291,7.0025,7.2492,7.6193,7.7794,7.8817,7.9297,7.9805,8.0078,8.0078,8.0976,8.1523,8.1523,8.2031,8.2263,8.2122,8.217,8.217,8.2121,8.217,8.222,8.2304,8.2304,8.2031,8.1523,8.1523,8.1289,8.0781,8.0781,8.0781,8.0742,8.039,8.0234,8.0,0.0,0.0,0.0,0.0,7.5703,7.5547,7.4687,7.4375,7.414,7.2773,7.2344,7.2265,7.1797,7.1133,7.0547,7.0508,6.9961,6.9297,6.8867,6.8359,6.7734,6.6875,6.6289,6.5742,6.5,6.414,6.3437,6.3086,6.2305,0.0,6.1015,5.9844,5.9179,5.9879,5.8671,5.7617,5.7457,5.6483,5.5898,5.6008,5.4874,5.3584,5.2217,5.1311,0.0,0.0,0.0,4.5046,4.4226,4.4114,0.0,0.0,0.0,4.4726,4.4749,4.476,0.0,0.0,4.3353,4.3786,0.0,0.0,0.0,0.0,0.0,0.0,0.0,0.0,0.0,0.0,0.0,0.0,0.0,0.0,0.0,0.0,6.8574,7.2896,7.7023,7.7067,7.7518,7.9843,8.082,8.164,8.25,8.25,8.25,8.2578,8.2578,8.2578,8.2578,8.25,0.0,0.0,0.0,8.2116,8.2264,8.2196,8.2277,8.2461,8.2539,8.2578,8.2578,8.25,8.2461,8.2422,8.2344,8.2304,8.2226,8.1484,8.1133,8.1054,8.0078,7.9258,7.8555,7.7773,7.7461,7.7344,7.6484,0.0,0.0,7.5039,7.4687,7.4609,7.4609,7.3515,7.2305,7.2305,7.1094,6.9844,6.9922,6.9726,6.9336,6.8515,6.8281,6.7734,6.6094,6.4961,6.4062,6.3281,6.2344,6.1719,6.1719,6.0976,6.0897,6.2407,6.066,5.9452,6.0179,5.8278,5.664,5.5937,0.0,0.0,5.207,5.1281,4.9588,4.6725,4.6498,4.6111,4.5287,4.5252,4.5567,4.6193,4.6197,4.6245,4.6289,4.6406,4.6445,4.6445,4.5583,4.6046,0.0,0.0,0.0,0.0,0.0,0.0,0.0,0.0,0.0,0.0,0.0,0.0,0.0,0.0,0.0,7.0232,7.4302,7.796,8.1542,8.2678,8.3046,8.2851,8.3008,8.3437,8.4297,8.375,8.3633,8.4336,8.4414,8.4414,8.4414,8.3711,8.3276,8.3115,8.2526,8.2176,8.2058,8.2878,8.3319,8.3359,8.4062,0.0,8.4375,8.3672,8.3359,8.332,8.2617,8.2304,8.2304,8.2109,8.2031,8.1875,8.0312,7.9609,7.9453,7.9297,7.9219,7.9101,7.8281,7.7539,7.6797,7.5937,7.5156,7.4609,7.4609,7.4375,0.0,7.4101,7.3359,7.2539,7.2578,7.1523,7.0234,6.9375,6.8672,6.793,6.6875,6.539,6.4258,6.4062,6.2773,6.1719,6.1719,6.0976,6.0508,6.0819,5.9922,5.9258,5.9413,5.8984,5.8866,5.9361,5.9124,5.7992,5.5725,5.5369,5.3579,4.9646,4.8654,4.7794,4.683,4.689,4.6683,4.6135,4.6243,4.6289,4.6289,4.6992,4.7344,4.7344,4.7148,4.7265,0.0,0.0,0.0,0.0,0.0,0.0,0.0,0.0,0.0,0.0,0.0,5.9444,6.2811,0.0,7.1141,7.6653,7.9422,8.194,8.4984,8.5856,8.5898,8.5,8.4531,8.4765,8.6054,8.539,8.5273,8.6133,8.5781,8.5547,8.5547,8.4726,8.3982,8.3457,8.3552,8.3357,8.2793,8.3748,8.4258,8.4258,8.4687,8.4883,8.4883,8.4453,8.4023,8.3594,8.3125,8.2695,8.2304,8.2304,8.2304,8.2226,8.1328,8.0742,8.0312,7.9844,7.9687,7.9648,7.9258,7.8828,7.832,7.7461,7.6914,7.6484,7.6015,7.5586,7.5234,7.5234,7.4609,7.3867,7.3398,7.2656,7.168,7.0351,6.9453,6.8594,6.7734,6.6172,6.4961,6.4961,6.3906,6.3008,6.3008,6.2265,6.1562,6.1133,6.0703,6.0273,5.9844,5.9805,5.9804,5.9799,5.9799,5.8939,5.6752,5.5332,5.3499,5.0976,5.0297,4.9803,4.9335,4.8965,4.8583,4.8154,4.7772,4.7617,4.7617,4.8047,4.8476,4.8906,4.9297,4.9297,0.0,0.0,0.0,0.0,0.0,0.0,0.0,5.3761,5.6322,5.9625,6.304,6.6777,7.119,7.4241,7.7652,8.2395,8.3978,8.539,8.7656,8.8008,8.7734,8.7031,8.6015,8.5976,8.7344,8.6875,8.6758,8.7461,8.6992,8.6601,8.6445,8.5625,8.4844,8.414,8.4609,8.4648,8.4101,8.4961,8.539,8.539,8.5547,8.5547,8.539,8.5234,8.4765,8.4101,8.375,8.3125,8.2304,8.2304,8.2304,8.2304,8.2304,8.1875,8.1172,8.0469,8.0195,8.0195,8.0195,8.0078,7.9844,7.9219,7.8789,7.8359,7.7656,7.6836,7.6133,7.6133,7.5508,7.4687,7.3984,7.3555,7.289,7.1328,7.0312,6.9411,6.8357,6.6869,6.5693,6.5537,6.4795,6.4209,6.4209,6.3667,6.2928,6.207,6.1797,6.1445,6.0742,6.0664,6.0312,5.949,5.9373,5.8748,5.7185,5.4948,5.3347,5.2695,5.2294,5.2019,5.1914,5.1133,5.0625,5.043,4.9609,4.9141,4.9141,4.9297,4.9766,5.0469,5.1445,5.1484,4.5479,4.5558,4.6939,5.1458,5.2397,5.4367,0.0,6.4714,6.5971,6.9338,7.2253,7.484,7.6949,7.96,8.2656,8.6288,8.7578,8.8515,8.957,8.9726,8.9687,8.9609,8.8164,8.7304,8.7461,8.7422,8.7383,8.75,8.8086,8.8125,8.7383,8.6523,8.6015,8.5898,8.5234,8.5234,8.5898,8.6758,8.7226,8.7226,8.7929,8.789,8.7187,8.6406,8.6015,8.582,8.4258,8.3125,8.2304,8.2304,8.2304,8.2304,8.2304,8.2226,8.2148,8.2031,8.1992,8.1992,8.1992,8.1484,8.0859,8.0742,7.9726,7.8476,7.8398,7.7734,7.7031,7.7031,7.6445,7.5742,7.5625,7.4453,7.3047,7.2109,7.1119,6.9947,6.827,6.7027,6.5998,6.5303,6.4443,6.3854,6.3854,6.3914,6.3719,6.2968,6.2187,6.164,6.1562,6.1562,6.1169,6.0193,6.0108,5.9717,5.874,5.7802,5.7265,5.7187,5.5703,5.4492,5.375,5.2891,5.207,5.1289,5.0469,5.0039,5.0078,5.0781,5.1172,5.1328,5.2969,5.3242,4.9247,5.0617,5.273,5.5931,5.8793,6.2329,6.8214,7.0806,7.3099,7.6917,7.9458,8.1672,8.3899,8.5233,8.6836,8.9297,8.957,8.9765,9.0625,8.9883,8.8867,8.789,8.7187,8.7344,8.8828,8.8515,8.8398,8.8906,8.8789,8.8554,8.8203,8.7422,8.6953,8.6953,8.707,8.7304,8.7656,8.8008,8.8203,8.8203,8.8047,8.7812,8.75,8.7109,8.6679,8.6094,8.4375,8.3398,8.3008,8.25,8.2304,8.2304,8.2304,8.2304,8.2304,8.2304,8.2304,8.2304,8.2304,8.207,8.1679,8.1172,8.0547,7.9765,7.8789,7.8242,7.7851,7.7344,7.6953,7.6523,7.6015,7.4961,7.3827,7.2836,7.152,7.0269,6.9416,6.8484,6.7729,6.7379,6.6604,6.6024,6.6024,6.5264,6.4583,6.4279,6.316,6.2371,6.2461,6.1887,6.1309,6.0871,6.0455,6.0057,5.9704,5.9053,5.8672,5.8672,5.7969,5.7422,5.7031,5.5703,5.4805,5.4414,5.3086,5.2422,5.2422,5.2734,5.3164,5.3672,5.4414,5.4844,5.2731,5.4957,5.7827,6.1361,6.5551,6.9886,7.4106,7.7139,8.0154,8.3888,8.5737,8.7226,8.9062,8.9219,8.9531,9.1054,9.0781,9.0586,9.1211,8.9804,8.8008,8.6054,8.5429,8.5859,8.7695,8.8164,8.8515,8.8906,8.9023,8.8945,8.8711,8.8398,8.8203,8.8203,8.875,8.9179,8.9414,8.9179,8.9062,8.9062,8.8203,8.7695,8.75,8.75,8.6875,8.5781,8.4492,8.3672,8.3203,8.2578,8.2304,8.2304,8.2304,8.2304,8.2304,8.2304,8.2304,8.2304,8.2304,8.2304,8.2187,8.1562,8.1211,8.0781,7.957,7.9023,7.8633,7.7812,7.7578,7.7344,7.6484,7.5584,7.4638,7.3582,7.2193,7.0895,7.0261,6.9592,6.9037,6.8804,6.8269,6.773,6.7501,6.6501,6.5641,6.5408,6.4235,6.3216,6.2904,6.1887,6.1217,6.1217,6.0736,6.0404,6.0404,6.0043,5.9839,5.9839,5.9648,5.9531,5.9531,5.7851,5.6953,5.6953,5.5234,5.4375,5.4375,5.4375,5.4687,5.5312,5.5547,5.6015,5.5692,5.7653,6.0859,6.8436,7.2382,7.5937,8.1875,8.5273,8.789,9.0508,9.1054,9.1133,9.1211,9.0547,9.0234,9.1133,9.1289,9.1289,9.1289,8.9804,8.7773,8.5234,8.3437,8.2461,8.2539,8.5586,8.7187,8.6367,8.8594,8.9609,8.875,8.9492,8.9922,8.9922,8.9961,9.0351,9.1211,9.039,8.9961,8.9961,8.9062,8.8242,8.75,8.75,8.6562,8.4922,8.4883,8.3906,8.2344,8.2304,8.2304,8.2304,8.2304,8.2304,8.2304,8.2304,8.2304,8.2304,8.2304,8.2304,8.2304,8.2265,8.1679,8.0976,8.0937,8.0312,7.9492,7.8672,7.8476,7.8242,7.7383,7.6351,7.5363,7.4465,7.332,7.1972,7.0268,6.9809,6.9425,6.8578,6.8385,6.8116,6.7276,6.7222,6.7048,6.6196,6.5314,6.4196,6.2711,6.1648,6.101,6.101,6.098,6.0984,6.0984,6.1271,6.1429,6.1429,6.0774,6.0351,6.0351,5.875,5.7851,5.7851,5.6133,5.5273,5.5273,5.5273,5.5273,5.5312,5.6172,5.6562,5.9101,6.3711,6.8984,7.4453,7.9062,8.3437,8.7734,9.0273,9.1836,9.2109,9.0311,8.8355,8.7184,8.6324,8.6012,8.6832,8.8944,9.0039,8.8945,8.8711,8.7109,8.2812,8.2812,8.2461,8.0742,8.2695,8.4648,8.6094,8.7539,8.8437,8.8672,8.9531,9.0273,9.0859,9.0859,9.1015,9.1289,9.1015,9.0273,8.914,8.8281,8.7773,8.75,8.75,8.7187,8.6601,8.6015,8.5117,8.3984,8.3398,8.2812,8.2304,8.2304,8.2304,8.2304,8.2304,8.2304,8.2304,8.2304,8.2304,8.2304,8.2304,8.2109,8.1758,8.1172,8.0781,8.0273,7.8906,7.8867,7.8944,7.7399,7.6747,7.6182,7.5039,7.4024,7.3093,7.2424,7.225,7.1968,7.1091,7.0437,6.9629,6.8205,6.7531,6.6717,6.5329,6.4553,6.3697,6.2414,6.1489,6.0977,6.0876,6.0944,6.1001,6.1001,6.1246,6.1359,6.1359,6.1225,6.1145,6.1145,5.9606,5.875,5.875,5.7031,5.6172,5.6172,5.6172,5.6172,5.6172,5.6445,5.6601,6.4959,7.0429,7.6015,8.125,8.5547,8.9297,9.2422,9.3554,9.3476,9.1992,8.8904,8.5656,8.2999,8.1085,8.0575,8.2597,8.4327,8.5856,8.7223,8.6833,8.5271,8.2265,8.2383,8.1992,8.0312,8.1445,8.3242,8.5547,8.7383,8.8633,8.914,9.0273,9.1172,9.1758,9.1758,9.1601,9.1289,9.0976,8.9961,8.8242,8.7734,8.75,8.75,8.75,8.7344,8.6992,8.6445,8.5547,8.4375,8.3828,8.3086,8.2304,8.2304,8.2304,8.2304,8.2304,8.2304,8.2304,8.2304,8.2304,8.2304,8.2304,8.2304,8.2187,8.164,8.1445,8.1172,7.9765,7.9724,7.971,7.8182,7.7672,7.7223,7.5803,7.4972,7.432,7.3633,7.3507,7.3315,7.2783,7.1975,7.0937,6.9545,6.8321,6.7205,6.6122,6.5144,6.397,6.2302,6.1686,6.1227,6.0843,6.0882,6.0945,6.0945,6.1085,6.1197,6.1197,6.1347,6.143,6.1502,6.0253,5.9567,5.9648,5.8242,5.7499,5.7414,5.7141,5.7135,5.735,5.704,5.704,7.2964,7.7575,8.1835,8.8515,9.1484,9.3359,9.5742,9.4922,9.2851,9.0117,8.6677,8.2843,7.8584,7.5264,7.4553,7.8738,7.8401,7.9938,8.6503,8.4744,8.3035,8.3711,8.2461,8.1445,8.1289,8.2148,8.3398,8.5039,8.8125,8.9961,9.0078,9.1719,9.2656,9.2617,9.2617,9.2148,9.125,9.0312,8.9101,8.7578,8.7539,8.75,8.75,8.75,8.7031,8.625,8.6211,8.5234,8.3672,8.3633,8.3086,8.2304,8.2304,8.2304,8.2304,8.2304,8.2304,8.2304,8.2304,8.2304,8.2304,8.2304,8.2304,8.2304,8.2304,8.2304,8.2109,8.125,8.088,8.0544,7.9639,7.9135,7.8446,7.6809,7.6225,7.563,7.4046,7.3661,7.3623,7.3584,7.2783,7.1867,7.1052,6.9507,6.8391,6.8391,6.7051,6.5134,6.2633,6.221,6.1826,6.0979,6.0864,6.0864,6.0787,6.092,6.0984,6.0984,6.1179,6.1339,6.1487,6.0635,6.0239,6.039,5.9609,5.9091,5.8877,5.8101,5.8092,5.8698,5.7854,5.7929,7.9565,8.4295,8.8242,9.1992,9.3711,9.4375,9.375,9.1758,8.875,8.4216,7.8972,7.4073,7.0424,7.0629,7.255,7.6174,8.1317,8.5897,8.8904,9.0233,8.9804,8.6875,8.7773,8.7656,8.5117,8.6797,8.8203,8.8672,8.8906,8.9609,9.0898,9.2617,9.3281,9.2617,9.2617,9.1875,9.0351,8.8867,8.8203,8.8398,8.7773,8.75,8.75,8.75,8.7383,8.7148,8.6484,8.5586,8.4531,8.3867,8.3086,8.2304,8.2304,8.2304,8.2304,8.2304,8.2304,8.2304,8.2304,8.2304,8.2304,8.2304,8.2304,8.2304,8.2304,8.2304,8.2109,8.125,8.131,8.1269,7.9607,7.9454,7.9451,7.823,7.7434,7.6861,7.6399,7.5822,7.5168,7.4507,7.2668,7.1168,7.0937,6.9507,6.8391,6.8391,6.8045,6.709,6.5173,6.3782,6.2666,6.1864,6.1787,6.1518,6.0864,6.0817,6.0861,6.0861,6.0996,6.1109,6.1122,6.0424,6.0066,6.0099,5.9278,5.8792,5.8756,5.8564,5.8543,5.8698,5.8467,5.8506,8.5428,8.957,9.2734,9.457,9.4762,9.3662,9.0507,8.7419,8.3317,7.6717,7.201,6.8032,6.4577,6.5769,6.8631,7.2831,7.8807,8.4448,8.8785,9.0659,9.113,8.9883,9.1015,9.0976,8.8672,9.0078,9.1289,9.1679,9.0898,9.0859,9.1836,9.3164,9.3515,9.2617,9.2617,9.1953,9.0586,8.8867,8.8437,8.9258,8.8086,8.7695,8.8008,8.7656,8.7304,8.6914,8.6836,8.6054,8.4844,8.4375,8.3672,8.2851,8.2851,8.2656,8.2344,8.2734,8.2617,8.2304,8.2304,8.2304,8.2304,8.2304,8.2304,8.2304,8.2304,8.2304,8.2187,8.1591,8.1652,8.1601,8.0427,8.0312,8.0284,7.9299,7.8746,7.8284,7.7907,7.7445,7.6746,7.5515,7.3822,7.2322,7.1591,7.0706,6.9937,6.9552,6.9199,6.8629,6.7705,6.5743,6.3974,6.2743,6.2627,6.2281,6.1441,6.1364,6.121,6.0825,6.0866,6.0925,6.0997,6.0643,6.0465,6.058,6.011,5.9798,5.9721,5.9336,5.9328,5.962,5.9232,5.9271,9.0664,9.3633,9.5547,9.6288,9.4743,9.1746,8.663,8.2283,7.7002,6.8789,6.5679,6.3486,6.0231,6.1427,6.4714,7.0218,7.4755,8.0408,8.8342,8.9475,9.0381,9.2812,9.3203,9.289,9.1914,9.2617,9.3437,9.4179,9.3437,9.289,9.2773,9.3594,9.3633,9.2617,9.25,9.207,9.1328,8.9687,8.9258,8.9961,8.8398,8.8086,8.8828,8.7929,8.7148,8.6562,8.7109,8.6484,8.5078,8.4961,8.4453,8.3789,8.3789,8.3242,8.2578,8.332,8.3047,8.2304,8.2304,8.2265,8.2264,8.2304,8.2265,8.2264,8.2264,8.2223,8.2176,8.1996,8.1828,8.1636,8.1436,8.1231,8.09,8.0169,7.9892,7.9592,7.8823,7.8484,7.7907,7.6438,7.5399,7.4245,7.2783,7.2444,7.2129,7.136,7.0667,7.0167,7.0052,6.7821,6.5551,6.3814,6.366,6.3281,6.2326,6.2249,6.1941,6.1172,6.1018,6.1021,6.1137,6.103,6.1048,6.1217,6.122,6.1143,6.0952,6.026,6.022,6.0787,6.0012,6.0089,9.457,9.5937,9.6248,9.6172,9.3302,8.8923,8.3003,7.679,7.0264,6.3202,6.0336,5.8517,5.6475,5.9802,6.5291,7.2616,7.748,8.3548,9.2772,9.4062,9.4492,9.5664,9.6406,9.6211,9.4687,9.5312,9.5898,9.6054,9.5234,9.4414,9.3711,9.4492,9.4258,9.2656,9.1914,9.1445,9.1289,9.0273,8.9844,9.0,8.8984,8.8945,8.9726,8.8203,8.7773,8.8203,8.6953,8.625,8.5937,8.5195,8.4804,8.4687,8.4687,8.414,8.3398,8.3554,8.3047,8.2304,8.2304,8.2177,8.2067,8.2263,8.2176,8.2056,8.2056,8.1955,8.1815,8.1743,8.1618,8.1436,8.1424,8.1231,8.1054,8.09,8.0323,7.9738,7.9623,7.8477,7.7407,7.7138,7.5784,7.4623,7.4322,7.3699,7.3199,7.3084,7.293,7.2584,7.1867,6.9552,6.7314,6.5628,6.5436,6.482,6.3237,6.3083,6.3045,6.2891,6.2243,6.1888,6.1907,6.1213,6.085,6.0899,6.0899,6.0877,6.0828,6.0668,6.0684,6.0787,6.0627,6.0666,9.6445,9.7109,9.6834,9.5726,9.1147,8.5022,7.7626,7.0934,6.438,5.7731,5.6046,5.5511,5.4697,5.8762,6.3928,6.8974,7.3456,7.9799,8.9724,9.0781,9.2148,9.6601,9.7461,9.7383,9.6562,9.6875,9.6953,9.6523,9.6094,9.5508,9.4609,9.4101,9.3476,9.2617,9.2187,9.1992,9.1992,9.1094,9.0898,9.1328,9.0,8.9609,8.9961,8.8711,8.7851,8.7383,8.7031,8.6601,8.6172,8.5742,8.5586,8.5547,8.5078,8.4375,8.3594,8.3594,8.3359,8.289,8.2331,8.2652,8.3198,8.23,8.1909,8.1852,8.1852,8.1795,8.166,8.1577,8.148,8.1371,8.1271,8.1159,8.1093,8.1093,8.0785,8.0477,8.0477,7.9477,7.8592,7.8592,7.7207,7.5899,7.5438,7.4661,7.3969,7.3546,7.3507,7.3353,7.2937,7.1815,7.0238,6.8129,6.7051,6.6019,6.4743,6.4243,6.3775,6.3314,6.2935,6.2704,6.2704,6.232,6.2089,6.2089,6.2089,6.2089,6.2089,6.1666,6.171,6.2089,6.1672,6.1479,9.6875,9.7578,9.7146,9.4828,8.8961,8.1536,7.301,6.6169,5.9827,5.3609,5.3006,5.3605,5.3627,5.7446,6.1736,6.5201,6.8794,7.4909,8.5616,8.6755,8.9101,9.6328,9.7461,9.7695,9.7695,9.7539,9.7187,9.6562,9.6133,9.5625,9.4961,9.3437,9.2617,9.2617,9.2617,9.2617,9.2617,9.1914,9.1914,9.2578,9.082,9.0195,9.0508,8.9101,8.7929,8.7031,8.7539,8.7265,8.6484,8.664,8.664,8.6406,8.5703,8.4922,8.414,8.414,8.4022,8.3704,8.2837,8.3399,8.4185,8.2676,8.2038,8.1844,8.1692,8.1618,8.1534,8.1377,8.1343,8.1279,8.1138,8.1093,8.1093,8.1093,8.1093,8.1093,8.1093,8.0439,7.9815,7.9815,7.8592,7.733,7.663,7.5822,7.5053,7.4399,7.4161,7.4046,7.4046,7.3853,7.3007,7.0975,6.9052,6.7443,6.625,6.5513,6.4782,6.3891,6.366,6.3583,6.3583,6.3391,6.3314,6.3314,6.3314,6.3314,6.3314,6.2666,6.2666,6.3275,6.2666,6.2364,9.5703,9.7148,9.6834,9.3301,8.7206,7.9793,7.1276,6.3952,5.7544,5.2537,5.2147,5.2731,5.2706,5.5049,5.9125,6.5629,6.7666,7.261,8.4559,8.6828,8.9293,9.4765,9.6758,9.7695,9.7695,9.7031,9.6562,9.6523,9.5039,9.4101,9.4023,9.3125,9.2617,9.2617,9.2617,9.2617,9.2617,9.2539,9.2539,9.2578,9.082,9.082,9.2265,8.9062,8.8359,8.9609,8.8906,8.8125,8.7422,8.8164,8.8047,8.7383,8.7304,8.6719,8.5976,8.5976,8.5339,8.4497,8.4412,8.4185,8.395,8.3766,8.314,8.2377,8.1641,8.1285,8.1161,8.1123,8.1108,8.11,8.11,8.1093,8.1093,8.1093,8.1093,8.1093,8.1093,8.0439,7.9815,7.9815,7.9054,7.8369,7.8292,7.7599,7.7061,7.6938,7.6284,7.5784,7.5784,7.5084,7.4507,7.4276,7.2014,6.959,6.7173,6.6904,6.6519,6.5705,6.4936,6.4474,6.4474,6.3737,6.3314,6.3314,6.3314,6.3314,6.3314,6.3237,6.3237,6.3314,6.3237,6.3198,9.4336,9.6679,9.6834,9.3185,8.5912,7.7787,7.0695,6.2513,5.5464,5.2081,5.166,5.1874,5.1864,5.3556,5.6332,6.0621,6.1179,6.4916,7.5999,7.6966,8.0225,9.0114,9.2343,9.4297,9.7383,9.7422,9.6797,9.5781,9.4101,9.3125,9.3125,9.2773,9.2617,9.2617,9.2617,9.2617,9.2617,9.2617,9.2617,9.2578,9.1914,9.164,9.1758,9.039,8.9883,8.9961,8.9062,8.8828,8.8984,8.8789,8.8515,8.8164,8.7695,8.6953,8.6132,8.549,8.5612,8.5983,8.5233,8.5851,8.6707,8.5053,8.4595,8.437,8.248,8.1877,8.1708,8.1246,8.1093,8.1093,8.1093,8.1093,8.1093,8.1093,8.1093,8.1093,8.1093,8.0823,8.0592,8.0592,7.9862,7.9285,7.9285,7.8592,7.8023,7.8023,7.7715,7.7484,7.7484,7.7215,7.6592,7.5592,7.2745,7.0475,6.9475,6.8475,6.7744,6.7436,6.7083,6.6891,6.6891,6.6545,6.6353,6.6353,6.6353,6.6122,6.559,6.5089,6.4859,6.4859,6.432,6.4083,9.1289,9.4883,9.6093,9.2512,8.4666,7.6154,6.9865,6.145,5.4329,5.1858,5.1403,5.1395,5.1406,5.2758,5.4631,0.0,0.0,6.0807,7.0156,7.114,7.4845,8.5485,8.7721,9.0345,9.531,9.6718,9.664,9.4922,9.3672,9.2851,9.2617,9.2617,9.2617,9.2617,9.2617,9.2617,9.2617,9.2617,9.2617,9.2617,9.2344,9.2031,9.1679,9.1133,9.0703,9.0351,8.9726,8.9687,8.9961,8.9336,8.8945,8.8633,8.7812,8.7069,8.6395,8.5917,8.6387,8.7199,8.6539,8.7442,8.8555,8.6345,8.6017,8.6017,8.3439,8.2516,8.2131,8.1323,8.1093,8.1093,8.1093,8.1093,8.1093,8.1093,8.1093,8.1093,8.1093,8.1093,8.1093,8.1093,8.0592,8.0169,8.0169,7.9477,7.8861,7.8861,7.8677,7.8484,7.8484,7.8484,7.8061,7.6861,7.413,7.2091,7.136,6.9975,6.9045,6.8814,6.8545,6.8391,6.8391,6.866,6.866,6.8391,6.866,6.8359,6.7475,6.6936,6.6628,6.6628,6.6013,6.559,8.5937,9.1328,9.4375,9.0898,8.3416,7.5159,6.8365,6.0705,5.4297,5.1801,5.135,5.1381,5.1397,5.2769,5.4445,5.6131,5.857,0.0,6.9541,7.2745,7.6276,8.1551,8.3649,8.6404,9.0836,9.445,9.5781,9.4023,9.3906,9.3515,9.2656,9.2617,9.2617,9.2617,9.2617,9.2617,9.2617,9.2617,9.2617,9.2578,9.1719,9.1758,9.2539,9.0781,9.0469,9.1289,9.1289,9.0781,9.0,9.0,8.9492,8.8633,8.7812,8.733,8.7184,8.8037,8.8068,8.7836,8.8681,8.8835,8.8573,8.7679,8.7363,8.6901,8.4371,8.2978,8.2131,8.1323,8.1093,8.1093,8.1093,8.1093,8.1093,8.1093,8.1093,8.1093,8.1093,8.1093,8.1093,8.1093,8.1093,8.1093,8.1093,8.0362,7.9777,7.9777,7.9054,7.8484,7.8484,7.8484,7.8484,7.8484,7.6938,7.4938,7.2406,7.136,7.0514,6.9744,6.8891,6.8391,6.8391,6.9237,6.9276,6.843,6.9244,6.9244,6.8391,6.8391,6.8353,6.8353,6.8353,6.7898,7.5429,7.9414,8.1328,7.8437,7.2919,6.7185,6.3292,5.773,5.297,5.1576,5.1333,5.1597,5.2176,5.3163,5.5049,5.8515,6.0211,6.2688,6.7136,7.06,7.5034,8.1364,8.8876,9.4094,9.5505,9.6171,9.6015,9.4883,9.4258,9.3515,9.2656,9.2617,9.2617,9.2617,9.2617,9.2617,9.2617,9.2617,9.2617,9.2617,9.2304,9.2344,9.2578,9.2031,9.1914,9.2148,9.1562,9.1484,9.1719,9.1133,9.0306,8.9376,8.9103,8.8494,8.7786,8.7904,8.8578,8.9487,8.9578,8.9974,9.0171,8.8756,8.791,8.6901,8.4371,8.3409,8.2909,8.1477,8.1093,8.1093,8.1093,8.1093,8.1093,8.1093,8.1093,8.1093,8.1093,8.1093,8.1093,8.1093,8.1093,8.1093,8.1093,8.0862,8.0708,8.0708,8.0439,8.0285,8.0285,8.0285,8.0054,7.9438,7.89,7.7553,7.5014,7.3476,7.2584,7.2315,7.2045,7.1892,7.1892,7.2161,7.1898,7.1014,7.1283,7.0706,6.9276,6.9276,6.8968,6.8391,6.8391,6.8237,6.7107,7.1209,7.3045,7.1444,6.6863,6.2073,5.9534,5.5393,5.1871,5.1034,5.113,5.1584,5.2125,5.3125,5.4738,5.7444,5.9629,6.2043,6.5148,6.9504,7.487,8.1744,9.0055,9.5231,9.5191,9.6288,9.6484,9.5273,9.4687,9.3867,9.2656,9.2617,9.2461,9.2109,9.2422,9.2617,9.2617,9.2617,9.2617,9.2617,9.2617,9.2617,9.2617,9.2617,9.2617,9.2578,9.2031,9.1873,0.0,9.1043,9.0069,8.9103,8.91,8.8636,8.801,8.8517,8.9279,9.0164,9.0334,9.0509,9.0479,8.9141,8.7448,8.5602,8.3678,8.2909,8.2447,8.14,8.1093,8.1093,8.1093,8.1093,8.1093,8.1093,8.1093,8.1093,8.1093,8.1093,8.1093,8.1093,8.1093,8.1093,8.1093,8.1093,8.1093,8.1093,8.1093,8.1093,8.1093,8.1093,8.09,8.0362,8.0008,7.9169,7.7553,7.5899,7.4938,7.4938,7.463,7.4315,7.3969,7.4276,7.3899,7.2706,7.2976,7.2476,7.1129,7.1129,7.0706,6.9821,6.9513,6.9161,0.0,6.5451,6.7991,6.7961,6.3725,5.8966,5.6584,5.3545,0.0,5.0329,5.0815,5.1457,5.1628,5.2851,5.3988,5.4468,5.7799,6.1289,6.4062,6.9935,7.6393,8.3055,8.8471,9.1542,9.1334,9.519,9.6992,9.5312,9.5195,9.4453,9.2695,9.2539,9.2148,9.1328,9.2031,9.2422,9.2422,9.2461,9.25,9.25,9.2578,9.2617,9.2617,9.2578,9.2577,9.2577,9.2577,9.1972,9.1,9.0181,8.9238,8.8278,8.827,8.8106,8.8062,8.9674,9.0149,9.0124,9.0932,9.0624,8.9748,8.8782,8.622,8.3371,8.2486,8.1693,8.1093,8.1093,8.1093,8.1093,8.1093,8.1093,8.1093,8.1093,8.1093,8.1093,8.1093,8.1093,8.1093,8.1093,8.1093,8.1093,8.1093,8.1093,8.1093,8.1093,8.1093,8.1093,8.1093,8.1093,8.1093,8.1093,8.04,7.9892,7.9892,7.8361,7.7407,7.7407,7.663,7.5822,7.5007,7.5707,7.5322,7.3699,7.4276,7.4238,7.3507,7.3507,7.3091,7.229,7.1475,7.0667,5.0416,0.0,5.4411,5.3798,5.2529,5.1487,0.0,5.0924,5.0424,5.0936,5.1236,5.2,5.3958,5.4062,5.5406,6.0022,6.1567,6.3525,6.745,7.608,8.3816,8.8746,9.3388,9.5386,9.3374,9.5933,9.6992,9.5312,9.5195,9.4453,9.2695,9.1953,9.1523,9.1328,9.0859,9.0625,9.0625,9.1289,9.1601,9.1601,9.2265,9.2617,9.2578,9.2397,9.2292,9.2289,9.2117,9.192,9.1685,9.149,9.0732,8.9779,8.9773,8.964,8.9429,8.9852,9.0372,9.0932,9.1133,9.0624,8.9483,8.6865,8.4565,8.2684,8.1871,8.1375,8.1093,8.1093,8.1093,8.1093,8.1093,8.1093,8.1093,8.1093,8.1093,8.1093,8.1093,8.1093,8.1093,8.1093,8.1093,8.1093,8.1093,8.1093,8.1093,8.1093,8.1093,8.1093,8.1093,8.1093,8.1093,8.1093,8.0939,8.0785,8.0785,7.9208,7.8215,7.8215,7.8023,7.783,7.7638,7.7215,7.6515,7.5438,7.4353,7.3699,7.3507,7.3507,7.3392,7.3199,7.2969,7.2776,4.6556,4.7724,4.8759,4.876,4.8431,4.8367,4.9283,4.9466,4.9689,5.0564,5.1089,5.1925,5.3736,5.3983,5.5488,6.0285,6.2022,6.5287,7.2381,7.9916,8.6469,9.1221,9.4596,9.6283,9.5656,9.6874,9.6992,9.5312,9.5195,9.4453,9.2695,9.2148,9.1523,9.0742,9.0234,9.0195,9.0586,9.1054,9.1484,9.1914,9.2383,9.2537,9.2403,9.2284,9.2147,9.2074,9.193,9.1622,9.1161,9.1161,9.0519,8.9607,8.9986,9.0033,8.9958,9.0434,9.0929,9.1346,9.1491,9.0455,8.8578,8.5691,8.4081,8.3173,8.2222,8.2142,8.2224,8.1339,8.1093,8.1093,8.1093,8.1093,8.1093,8.1093,8.1362,8.1554,8.117,8.1708,8.2131,8.1747,8.1977,8.2247,8.2247,8.2247,8.2247,8.2247,8.2247,8.2247,8.2247,8.2247,8.2247,8.2247,8.19,8.1631,8.1631,8.0439,7.9669,7.9669,7.9669,7.9515,7.9092,7.8669,7.8054,7.7169,7.5899,7.5245,7.5245,7.5245,7.5053,7.4661,7.5053,7.4822,4.6305,4.7328,4.829,4.8298,4.8056,4.7957,4.8651,4.8891,4.9291,5.0292,5.1196,5.2101,5.3096,5.4258,5.6067,5.9209,6.2553,6.825,7.826,8.3053,8.7319,9.2119,9.4352,9.5925,9.6991,9.7461,9.6992,9.5312,9.5195,9.4453,9.2695,9.2461,9.1719,9.0234,8.9922,9.0234,9.1094,9.1094,9.1484,9.2226,9.2461,9.2531,9.2436,9.2247,9.212,9.207,9.1875,9.1279,9.0435,9.0435,8.9894,8.9141,8.9825,9.0086,9.0214,9.1112,9.1461,9.1483,9.152,9.0029,8.7752,8.5264,8.4373,8.4108,8.3164,8.3386,8.3533,8.1834,8.1301,8.1285,8.1285,8.1208,8.1093,8.1093,8.1708,8.2093,8.1439,8.2516,8.337,8.2631,8.3101,8.3601,8.3601,8.3601,8.3601,8.3601,8.3717,8.3793,8.3793,8.3793,8.3793,8.3793,8.3016,8.2439,8.2324,8.167,8.1246,8.1093,8.1093,8.0708,7.9854,7.9815,7.94,7.8523,7.783,7.7484,7.7484,7.7484,7.7099,7.6399,7.7138,7.6669,4.7764,5.0449,5.1802,4.7614,4.8092,4.9467,4.8922,4.9359,5.0377,5.1979,5.2999,5.4095,5.5616,5.8345,6.1017,6.3069,6.9198,7.6588,8.4858,8.7843,9.0267,9.3258,9.5775,9.652,9.4593,9.6403,9.6992,9.5312,9.5195,9.4453,9.2695,9.1914,9.1367,9.1094,8.9687,8.9336,9.0195,9.0195,9.0273,9.0429,9.1875,9.2968,9.359,9.2465,9.2342,9.2956,9.18,9.1226,9.1044,9.1044,9.0963,9.0825,9.0941,9.1018,9.1026,9.1211,9.1346,9.1328,9.0115,8.9104,8.8046,8.6175,8.5088,8.4503,8.4327,8.4107,8.3698,8.2726,8.2291,8.2131,8.2131,8.1593,8.1093,8.1093,8.1708,8.2285,8.2131,8.2909,8.3563,8.3447,8.3524,8.3601,8.3601,8.3601,8.3601,8.3601,8.4209,8.4709,8.4709,8.4709,8.4709,8.4709,8.3901,8.3101,8.2362,8.217,8.1823,8.1131,8.1093,8.0708,7.9854,7.9815,7.94,7.8523,7.8369,7.833,7.833,7.833,7.8253,7.8138,7.8253,7.8176,4.7578,5.0139,5.2105,5.076,5.2315,5.3861,5.2555,5.2561,5.3348,5.5038,5.5703,5.668,5.8867,6.1275,6.4771,7.0339,7.6825,8.2659,8.6769,8.9231,9.1376,9.3529,9.4868,9.55,9.5268,9.5936,9.582,9.4609,9.4492,9.3945,9.2656,9.2226,9.1797,9.1328,9.0078,8.9375,8.9297,8.9297,8.9765,9.0703,9.1523,9.2262,9.2942,9.2339,9.2221,9.2455,9.1333,9.0889,9.0889,9.0889,9.0889,9.0908,9.1212,9.1361,9.1392,9.1527,9.1445,9.1073,9.004,8.8901,8.7671,8.6261,8.5657,8.5401,8.517,8.5347,8.5545,8.5068,8.3644,8.2208,8.1747,8.1362,8.1093,8.1093,8.2054,8.2986,8.2986,8.4401,8.5632,8.5632,8.6025,8.6371,8.6371,8.6371,8.6371,8.6371,8.6709,8.694,8.694,8.694,8.6786,8.6286,8.5478,8.4593,8.3785,8.2824,8.1939,8.1131,8.1093,8.0939,8.0516,8.0516,8.0323,7.99,7.9438,7.9208,7.9208,7.9208,7.9208,7.9208,7.9669,7.9631,4.786,5.0197,5.2549,5.3942,5.589,5.7402,5.7096,5.6865,5.7379,5.9647,6.0154,6.0738,6.2763,6.5371,6.9784,7.7688,8.355,8.7626,8.8964,9.1015,9.2883,9.4279,9.4437,9.4913,9.6093,9.5586,9.4765,9.3672,9.3789,9.3437,9.2344,9.25,9.2304,9.164,9.0547,8.9687,8.9023,8.8633,8.9297,9.1015,9.1211,9.1752,9.2605,9.2307,9.2123,9.1915,9.1002,9.0466,9.031,9.0505,9.0587,9.0682,9.1334,9.143,9.1276,9.1672,9.1315,9.0552,9.0098,8.894,8.7531,8.6465,8.6202,8.6295,8.5981,8.641,8.6966,8.6685,8.4832,8.2785,8.1976,8.1439,8.1131,8.1323,8.267,8.3947,8.414,8.6055,8.7709,8.7709,8.8256,8.8718,8.8718,8.8718,8.8718,8.8718,8.8872,8.8979,8.8979,8.8979,8.8709,8.8055,8.7055,8.5901,8.4709,8.317,8.1939,8.1131,8.1093,8.1093,8.1093,8.1093,8.1093,8.1093,8.0439,8.0085,8.0085,8.0085,8.0085,8.0123,8.0785,8.0746,5.0041,5.2831,5.4878,5.5065,5.5857,5.7616,6.1559,6.1829,6.2412,6.6517,6.7337,6.741,6.7581,7.2275,7.7838,8.3276,8.7921,9.1703,9.4257,9.5507,9.6171,9.6289,9.6328,9.6054,9.5351,9.5234,9.4492,9.2812,9.3437,9.3164,9.1484,9.2148,9.2578,9.25,9.0898,8.9961,8.9922,8.8359,8.8437,9.0117,9.0898,9.2187,9.3749,9.2689,9.2173,9.212,9.1066,9.0155,8.9445,9.0271,9.0587,9.066,9.1546,9.1278,9.0482,9.1231,9.0624,8.9442,8.9647,8.9105,8.817,8.7304,8.6872,8.6774,8.6943,8.6929,8.6685,8.6132,8.5489,8.4784,8.3906,8.2421,8.1285,8.2054,8.3555,8.5016,8.5747,8.7325,8.8603,8.8603,8.8679,8.8718,8.8718,8.8718,8.8718,8.8718,8.9325,8.9816,8.9816,8.9816,8.9778,8.9739,8.8286,8.6324,8.3909,8.2824,8.1939,8.1131,8.1093,8.1093,8.1093,8.1093,8.1093,8.1093,8.1054,8.1016,8.1016,8.1016,8.1016,8.1016,8.1054,8.1054,4.9659,5.2695,5.5459,5.7186,5.9804,6.2539,6.488,6.6401,6.8192,7.1364,7.2901,7.4001,7.5013,7.7973,8.1971,8.7106,9.0726,9.3592,9.5703,9.6289,9.6289,9.5742,9.5195,9.4765,9.4414,9.3906,9.3086,9.1875,9.2109,9.1758,9.0547,9.0781,9.0976,9.0976,8.9714,8.8991,8.8991,8.7724,8.7724,8.9032,9.0036,9.1406,9.3047,9.2064,9.1628,9.1549,9.0079,8.9246,8.8972,8.987,9.0223,9.0328,9.1474,9.1566,9.1011,9.0824,9.0047,8.9138,8.9352,8.8566,8.7419,8.7478,8.7158,8.6804,8.6747,8.6769,8.6872,8.7181,8.6676,8.5667,8.4291,8.3291,8.2862,8.3708,8.4786,8.6017,8.7401,8.8632,8.9594,9.0133,9.0248,9.0248,9.0248,9.0248,9.0248,9.0248,9.0517,9.071,9.071,9.071,9.0509,8.997,8.8402,8.6594,8.4593,8.3593,8.2747,8.19,8.1362,8.1093,8.1093,8.1093,8.1093,8.1093,8.1093,8.1093,8.1093,8.1093,8.1093,8.1093,8.1093,8.1093,4.8996,5.1844,5.4808,5.7225,6.1795,6.6479,6.9451,7.1713,7.4131,7.7685,7.8706,7.9251,8.0181,8.2284,8.5111,8.8884,9.2652,9.5429,9.6367,9.6484,9.6054,9.4922,9.4258,9.3789,9.3515,9.2695,9.1836,9.0976,9.0898,9.0508,8.9648,8.9844,9.0117,9.039,8.9106,8.8396,8.8398,8.7351,8.7163,8.791,8.9265,9.0699,9.2187,9.1562,9.1133,9.082,8.9336,8.8554,8.8398,8.9258,8.9922,9.0507,9.1309,9.145,9.1154,9.0824,8.9966,8.9023,8.916,8.8255,8.7098,8.7283,8.6985,8.6633,8.6821,8.6976,8.7259,8.8226,8.7912,8.7022,8.5828,8.4751,8.4209,8.5093,8.5901,8.6978,8.8709,8.9748,9.047,9.1095,9.121,9.121,9.121,9.121,9.121,9.121,9.121,9.121,9.121,9.121,9.0855,8.997,8.8863,8.7401,8.5431,8.4747,8.3909,8.2785,8.217,8.1631,8.1131,8.1093,8.1208,8.1477,8.1246,8.1246,8.1477,8.1208,8.1093,8.1093,8.1093,8.1093,4.8448,5.0594,5.3038,5.474,6.1053,6.8661,7.5658,7.7876,8.0109,8.5955,8.5021,8.2958,8.2369,8.5055,8.7594,8.8493,9.3707,9.7383,9.6601,9.6484,9.582,9.4101,9.3906,9.3554,9.2695,9.1797,9.0937,9.0078,9.0,8.9609,8.8711,8.9492,9.0351,9.125,8.9379,8.8398,8.8402,8.7312,8.6782,8.6837,8.8766,9.0238,9.1289,9.1289,9.082,8.9961,8.9062,8.8242,8.7578,8.8359,8.9726,9.1249,9.1082,9.0843,9.0686,9.1286,9.0417,8.8985,8.8985,8.8443,8.7552,8.6784,8.6349,8.6321,8.737,8.7707,8.793,8.8983,8.9138,8.9023,8.8985,8.6983,8.5162,8.5931,8.6786,8.7863,8.9547,9.0586,9.121,9.121,9.121,9.121,9.121,9.121,9.121,9.121,9.121,9.121,9.121,9.121,9.0855,8.997,8.9893,8.8893,8.6324,8.6094,8.5401,8.3717,8.3601,8.287,8.1208,8.1131,8.1516,8.2285,8.1516,8.1516,8.2324,8.1516,8.1131,8.1131,8.1131,8.1093,5.0305,5.2801,5.6056,5.9687,6.5897,7.2773,7.9293,8.097,8.2849,8.8823,8.7968,8.6439,8.7439,8.7998,8.8979,9.0994,9.2886,9.4453,9.5469,9.5078,9.4258,9.3125,9.3008,9.289,9.2617,9.1797,9.0937,9.0078,8.8906,8.7851,8.6992,8.7187,8.7734,8.8594,8.7894,8.777,8.8396,8.6584,8.6063,8.6821,8.7397,8.8841,9.1095,9.1246,9.082,8.9961,8.9062,8.8242,8.7539,8.8221,8.9062,8.9982,9.0352,9.0469,9.0394,9.0365,8.9708,8.8791,8.8791,8.8213,8.7557,8.7943,8.7971,8.8004,8.8327,8.8405,8.8467,8.8774,8.9223,8.9515,8.8937,8.8617,8.847,8.8701,8.897,8.947,9.0547,9.1018,9.1364,9.2018,9.2095,9.2095,9.2095,9.2095,9.1902,9.1287,9.121,9.121,9.121,9.121,9.0855,8.997,8.9893,8.9355,8.8055,8.6786,8.5901,8.5401,8.4255,8.337,8.287,8.287,8.2986,8.3216,8.2986,8.2986,8.3216,8.2986,8.287,8.2832,8.2208,8.1939,5.1459,5.4779,5.8888,6.289,6.9531,7.6875,8.3787,8.6366,8.8431,9.2539,9.121,8.9531,9.0306,9.0076,9.0234,9.1789,9.2928,9.3867,9.457,9.4219,9.3594,9.2695,9.2617,9.2461,9.2109,9.1289,9.0429,8.9531,8.7929,8.6758,8.6211,8.6211,8.6758,8.7929,8.7426,8.7536,8.8398,8.6687,8.5976,8.6276,8.7064,8.8323,8.9962,9.0187,8.9961,8.9414,8.847,8.7799,8.7366,8.7631,8.8218,8.8918,8.9263,8.9585,8.9759,8.96,8.9175,8.8641,8.8295,8.7825,8.744,8.7594,8.7902,8.8256,8.8603,8.8902,8.9171,8.9171,8.9787,9.0239,8.9402,8.9787,9.0316,8.997,8.9893,9.0124,9.1018,9.121,9.1364,9.1864,9.2249,9.2479,9.2479,9.2749,9.2672,9.1825,9.1441,9.121,9.121,9.121,9.1018,9.047,9.0432,9.0086,8.9248,8.8209,8.7478,8.7132,8.6179,8.564,8.564,8.464,8.4286,8.4593,8.4593,8.4593,8.4593,8.4286,8.3939,8.3601,8.3062,8.2631,5.2536,5.6679,6.147,6.546,7.3124,8.1597,8.8945,9.2908,9.5302,9.6209,9.443,9.2489,9.1796,9.1601,9.1523,9.1445,9.3281,9.4492,9.375,9.3672,9.3359,9.2578,9.2461,9.2187,9.1367,9.0429,8.9531,8.875,8.707,8.6094,8.6094,8.6015,8.6719,8.8437,8.7549,8.7473,8.8416,8.73,8.6343,8.5689,8.7367,8.8199,8.8281,8.8664,8.8789,8.8632,8.7583,8.7108,8.7041,8.6894,8.7224,8.7932,8.8005,8.8367,8.8849,8.8926,8.882,8.8487,8.7671,8.7401,8.7286,8.6478,8.6824,8.7671,8.8564,8.9325,8.9893,8.9893,9.0509,9.1018,9.0124,9.0547,9.1018,9.0316,9.0086,9.0239,9.1133,9.1325,9.1364,9.1518,9.2172,9.271,9.271,9.3326,9.3518,9.2633,9.1748,9.121,9.121,9.1287,9.1325,9.1325,9.1364,9.1133,9.0316,9.0124,8.971,8.8987,8.8795,8.8718,8.8718,8.6478,8.5593,8.6324,8.6324,8.6324,8.6324,8.5593,8.4786,8.3947,8.387,8.337,5.6015,5.8984,6.3554,7.238,8.2147,9.0507,9.4258,9.6131,9.6755,9.5703,9.6014,9.6091,9.4648,9.3789,9.3125,9.2422,9.164,9.1289,9.1797,9.1875,9.1797,9.1601,9.1562,9.1523,9.1328,8.9883,8.8906,8.8711,8.6523,8.5195,8.5195,8.4531,8.4961,8.6679,8.6522,8.7105,8.8629,8.6932,8.6329,8.6756,8.6552,8.6757,8.7421,8.9016,8.9336,8.8633,8.7771,8.7211,8.6841,8.6837,8.6694,8.6599,8.7294,8.7627,8.7818,8.8512,8.8301,8.7632,8.7478,8.7401,8.7363,8.7171,8.7709,8.8564,8.9402,8.9739,8.9893,8.9893,9.0509,9.1018,9.0124,9.0547,9.1325,9.1825,9.1441,9.1171,9.2018,9.221,9.2595,9.395,9.4335,9.445,9.445,9.4604,9.422,9.271,9.1748,9.121,9.121,9.1787,9.221,9.221,9.2787,9.3095,9.2903,9.1672,9.0864,9.0671,8.944,8.8718,8.8718,8.8179,8.7948,8.8141,8.8141,8.8141,8.8141,8.7979,8.7448,8.6555,8.5863,8.5132,5.8124,6.2146,6.7964,7.8785,8.7069,9.3164,9.539,9.6523,9.6992,9.6484,9.7109,9.7187,9.5508,9.4844,9.3945,9.2265,9.1211,9.0625,9.0664,9.0664,9.0664,9.0664,9.0312,9.0078,9.0078,8.8867,8.8125,8.8125,8.6133,8.4883,8.4883,8.4062,8.4334,8.5958,8.5996,8.6763,8.8402,8.7011,8.6542,8.6968,8.6542,8.6618,8.7147,8.8273,8.8554,8.8086,8.7568,8.7163,8.6949,8.6857,8.6588,8.6351,8.6776,8.6886,8.6824,8.7286,8.7171,8.6786,8.6786,8.6786,8.6786,8.6786,8.7363,8.8209,8.9056,8.9594,8.9893,8.9893,9.0509,9.1095,9.0624,9.1171,9.2018,9.2864,9.2441,9.2056,9.2903,9.3056,9.3326,9.422,9.472,9.4989,9.4989,9.4989,9.472,9.3835,9.2941,9.2402,9.2402,9.2787,9.3056,9.3056,9.3441,9.371,9.371,9.2903,9.2402,9.2402,9.1595,9.1103,9.1103,9.1103,9.0719,8.9902,9.0287,9.0287,8.9902,8.9479,8.8825,8.8025,8.7555,8.6901,5.8983,6.5343,7.3223,8.3593,8.9219,9.2656,9.4531,9.5547,9.6289,9.7109,9.75,9.7187,9.5508,9.4961,9.3945,9.1484,9.082,9.039,8.9687,8.9687,8.9765,8.9765,8.914,8.8633,8.8515,8.789,8.7422,8.7304,8.5937,8.5078,8.4922,8.4178,8.432,8.5543,8.5561,8.6197,8.7646,8.6782,8.6354,8.6354,8.6354,8.6458,8.6679,8.7056,8.7304,8.75,8.7276,8.7122,8.7098,8.6936,8.6738,8.6565,8.6565,8.6396,8.6168,8.6168,8.6159,8.6094,8.6094,8.6094,8.6094,8.6094,8.6594,8.7363,8.841,8.9171,8.9739,9.0047,9.074,9.1441,9.1441,9.2056,9.2903,9.3719,9.3403,9.3095,9.3787,9.3912,9.3989,9.4134,9.4711,9.522,9.522,9.5104,9.4989,9.4989,9.4258,9.371,9.371,9.3826,9.3912,9.3912,9.4057,9.4134,9.4134,9.4027,9.3912,9.3912,9.3787,9.371,9.371,9.3835,9.3249,9.1864,9.2402,9.2287,9.1441,9.0701,8.9863,8.891,8.891,8.8449,5.808,6.7489,7.7684,8.4492,8.8281,9.1015,9.3515,9.414,9.4492,9.5351,9.6679,9.7187,9.5508,9.3984,9.2344,9.0469,8.8945,8.7969,8.7851,8.8437,8.8867,8.8867,8.8789,8.8437,8.7734,8.7578,8.7187,8.6445,8.6172,8.5703,8.4922,8.4623,8.4577,8.4759,8.4526,8.486,8.5852,8.5043,8.4618,8.4618,8.4618,8.4754,8.4962,8.5758,8.6618,8.75,8.746,8.7326,8.7104,8.7087,8.6955,8.6769,8.6769,8.6609,8.6449,8.6449,8.6288,8.6094,8.6094,8.6094,8.6094,8.6094,8.617,8.6594,8.8218,8.8795,8.9171,9.0633,9.1633,9.2326,9.2326,9.2941,9.3749,9.4604,9.4758,9.472,9.4797,9.4835,9.5066,9.5826,9.6057,9.6134,9.6134,9.548,9.4989,9.4989,9.4258,9.371,9.371,9.4373,9.4835,9.4835,9.548,9.5942,9.5942,9.5258,9.4835,9.4835,9.4104,9.371,9.371,9.445,9.472,9.4489,9.3873,9.3133,9.2326,9.221,9.1325,8.9739,8.9739,8.9286,6.2066,6.9756,7.7099,8.3202,8.6328,8.8437,9.0508,9.1367,9.2109,9.3476,9.4726,9.5351,9.4609,9.3437,9.2031,9.0273,8.8984,8.8008,8.7578,8.7383,8.7304,8.7304,8.6445,8.5898,8.6015,8.5586,8.5547,8.6172,8.5742,8.5508,8.5625,8.5071,8.487,8.5111,8.4988,8.5204,8.5843,8.503,8.4378,8.3926,8.4028,8.4121,8.4228,8.486,8.575,8.6797,8.7135,8.695,8.6439,8.6791,8.6522,8.5911,8.5911,8.6066,8.6213,8.5789,8.5792,8.617,8.6671,8.6824,8.6901,8.7401,8.7555,8.7786,8.9017,8.9363,8.9633,9.0864,9.1825,9.2595,9.3056,9.3796,9.4643,9.5518,9.5711,9.5711,9.5711,9.5711,9.5826,9.6249,9.6288,9.6288,9.6288,9.598,9.5711,9.5711,9.5403,9.5172,9.5172,9.548,9.5711,9.5711,9.6057,9.6288,9.6288,9.5942,9.5711,9.5711,9.5365,9.5172,9.5172,9.5518,9.5711,9.5711,9.4874,9.4027,9.3172,9.271,9.1864,9.0624,9.0624,9.0441,6.3665,6.8929,7.3379,7.9724,8.2928,8.5077,8.7226,8.8398,8.9531,9.125,9.2148,9.2656,9.2851,9.2578,9.1719,8.9961,8.8945,8.8203,8.7578,8.6758,8.6211,8.6211,8.4844,8.4101,8.4531,8.4179,8.4375,8.5469,8.5351,8.5429,8.5859,8.5623,8.5582,8.5885,8.5577,8.5668,8.6192,8.4919,8.3824,8.2986,8.3105,8.3205,8.3295,8.3844,8.4705,8.5719,8.6462,8.6543,8.6158,8.6377,8.6131,8.5596,8.5364,8.5669,8.6138,8.5522,8.5644,8.6209,8.7094,8.7401,8.7555,8.841,8.8718,8.8872,8.9663,8.9893,9.0124,9.121,9.2133,9.2979,9.3826,9.4681,9.5489,9.6134,9.6288,9.6288,9.6288,9.6288,9.6288,9.6288,9.6288,9.6288,9.6288,9.6288,9.6288,9.6288,9.6288,9.6288,9.6288,9.6288,9.6288,9.6288,9.6288,9.6288,9.6288,9.6288,9.6288,9.6288,9.6288,9.6288,9.6288,9.6288,9.6288,9.6288,9.5672,9.4788,9.371,9.3095,9.2249,9.121,9.121,9.121,5.9222,6.2635,6.6307,7.3222,7.7485,8.0848,8.4296,8.5781,8.6875,8.8554,8.8945,8.9219,9.0039,9.0859,9.0781,8.9062,8.8086,8.7539,8.75,8.6758,8.6211,8.6211,8.539,8.4531,8.375,8.4375,8.4531,8.3789,8.5234,8.5781,8.5,8.6258,8.6991,8.7018,8.5864,8.5608,8.6474,8.3808,8.2016,8.1246,8.1231,8.1361,8.1567,8.2427,8.333,8.4365,8.5414,8.6212,8.6677,8.5891,8.6034,8.6644,8.5792,8.5874,8.6449,8.6416,8.6271,8.6209,8.7094,8.7401,8.7555,8.841,8.8718,8.8872,8.9663,8.9893,9.0239,9.1941,9.3018,9.3835,9.472,9.5595,9.6249,9.6288,9.6288,9.6288,9.6288,9.6288,9.6288,9.6288,9.6288,9.6288,9.6288,9.6288,9.6288,9.6288,9.6288,9.6288,9.6288,9.6288,9.6288,9.6288,9.6288,9.6288,9.6288,9.6288,9.6288,9.6288,9.6288,9.6288,9.6288,9.6288,9.6288,9.6288,9.6249,9.5403,9.371,9.3672,9.2787,9.121,9.121,9.121,5.7655,6.0176,6.3189,6.9624,7.3381,7.6274,7.921,8.1873,8.4023,8.5195,8.6328,8.7344,8.8242,8.8633,8.8828,8.8711,8.7109,8.6015,8.6601,8.5429,8.4531,8.4531,8.375,8.3125,8.2812,8.3047,8.332,8.3594,8.4179,8.4883,8.5703,8.6246,8.6692,8.7106,8.6659,8.5989,8.502,8.4032,8.2815,8.1496,8.1496,8.1509,8.1605,8.2061,8.2598,8.3206,8.3758,8.4664,8.5741,8.5307,8.5287,8.548,8.4604,8.5095,8.6161,8.566,8.6107,8.7055,8.794,8.8556,8.9171,9.0017,9.0287,9.0364,9.0663,9.074,9.097,9.2172,9.3095,9.3912,9.4758,9.5634,9.6288,9.6288,9.6288,9.6288,9.6288,9.6288,9.6288,9.6288,9.6288,9.6288,9.6288,9.6288,9.6288,9.6288,9.6288,9.6288,9.6288,9.6288,9.6288,9.6288,9.6288,9.6288,9.6288,9.6288,9.6288,9.6288,9.6288,9.6288,9.6288,9.6288,9.6288,9.6288,9.6288,9.5711,9.4527,9.3989,9.3133,9.2018,9.1479,9.121,5.5427,5.7534,6.0394,6.6221,6.9346,7.2002,7.5802,7.847,8.0624,8.2383,8.3867,8.5234,8.6406,8.6406,8.6562,8.7695,8.6445,8.5429,8.5703,8.4492,8.3594,8.3594,8.2812,8.2304,8.2304,8.2304,8.2539,8.3125,8.3437,8.4101,8.5273,8.5898,8.6359,8.6638,8.6948,8.6028,8.3816,8.3816,8.3077,8.1684,8.1684,8.1684,8.1688,8.1847,8.2162,8.2613,8.2805,8.3541,8.4628,8.4212,8.4362,8.4816,8.3939,8.4632,8.6055,8.5824,8.644,8.7555,8.8709,8.944,9.0047,9.0932,9.121,9.121,9.121,9.1402,9.1825,9.2672,9.3489,9.4335,9.522,9.5865,9.6288,9.6288,9.6288,9.6288,9.6288,9.6288,9.6288,9.6288,9.6288,9.6288,9.6288,9.6288,9.6288,9.6288,9.6288,9.6288,9.6288,9.6288,9.6288,9.6288,9.6288,9.6288,9.6288,9.6288,9.6288,9.6288,9.6288,9.6288,9.6288,9.6288,9.6288,9.6288,9.6288,9.6019,9.5451,9.4566,9.3557,9.2479,9.1902,9.1633,0.0,0.0,0.0,6.2697,6.525,6.8097,7.416,7.5532,7.6551,8.0117,8.1484,8.2656,8.4492,8.414,8.414,8.5859,8.6094,8.5781,8.4961,8.4101,8.3554,8.3554,8.2812,8.2304,8.2304,8.2304,8.2304,8.2304,8.3086,8.3554,8.3594,8.5234,8.6047,8.5823,8.6601,8.5724,8.305,8.3011,8.2587,8.1703,8.1703,8.1703,8.1703,8.1695,8.2032,8.258,8.2619,8.2966,8.3486,8.267,8.3362,8.4816,8.3978,8.467,8.6247,8.7094,8.744,8.7709,8.9355,8.9932,9.0086,9.0932,9.121,9.1248,9.1248,9.1864,9.271,9.3518,9.4335,9.522,9.6057,9.6288,9.6288,9.6288,9.6288,9.6288,9.6288,9.6288,9.6288,9.6288,9.6288,9.6288,9.6288,9.6288,9.6288,9.6288,9.6288,9.6288,9.6288,9.6288,9.6288,9.6288,9.6288,9.6288,9.6288,9.6288,9.6288,9.6288,9.6288,9.6288,9.6288,9.6288,9.6288,9.6288,9.6288,9.6288,9.6288,9.5451,9.4181,9.2556,9.2556,9.2556,5.1673,0.0,0.0,0.0,0.0,0.0,6.8113,6.9257,7.081,7.6123,7.6951,7.8008,8.2226,8.3359,8.375,8.4258,8.3789,8.3515,8.3906,8.3203,8.2656,8.2656,8.2461,8.2304,8.2304,8.2304,8.2304,8.2304,8.2539,8.2929,8.3554,8.4648,8.5507,8.6087,8.5697,8.4832,8.3451,8.3412,8.2983,8.2125,8.2125,8.2125,8.2124,8.1984,8.1939,8.1977,8.2608,8.2803,8.267,8.3101,8.3901,8.4901,8.4632,8.5555,8.7055,8.7325,8.8171,8.9278,8.9739,9.0316,9.0902,9.1133,9.1633,9.2133,9.2133,9.271,9.3557,9.4412,9.4797,9.522,9.6057,9.6288,9.6288,9.6288,9.6288,9.6288,9.6288,9.6288,9.6288,9.6288,9.6288,9.6288,9.6288,9.6288,9.6288,9.6288,9.6288,9.6288,9.6288,9.6288,9.6288,9.6288,9.6288,9.6288,9.6288,9.6288,9.6288,9.6288,9.6288,9.6288,9.6288,9.6288,9.6288,9.6288,9.6288,9.6288,9.6288,9.5451,9.4758,9.4296,9.3672,9.3364,0.0,0.0,0.0,5.7045,0.0,0.0,6.4757,6.5418,6.6584,7.1593,7.2811,7.4219,7.832,8.0117,8.1172,8.1875,8.1836,8.207,8.2929,8.2617,8.2304,8.2304,8.2304,8.2304,8.2304,8.2304,8.2304,8.2304,8.2304,8.2695,8.3554,8.4062,8.4609,8.5117,8.4609,8.3945,8.3086,8.3047,8.2812,8.2304,8.2304,8.2304,8.2304,8.2071,8.1886,8.1758,8.2482,8.2646,8.2401,8.3632,8.4439,8.4893,8.4893,8.594,8.744,8.7825,8.8786,8.9932,9.0316,9.0787,9.1248,9.1633,9.2095,9.2556,9.2903,9.3595,9.4335,9.4874,9.5258,9.5672,9.6172,9.6288,9.6288,9.6288,9.6288,9.6288,9.6288,9.6288,9.6288,9.6288,9.6288,9.6288,9.6288,9.6288,9.6288,9.6288,9.6288,9.6288,9.6288,9.6288,9.6442,9.6749,9.6788,9.6942,9.7326,9.7326,9.7326,9.7326,9.7326,9.7326,9.7326,9.7326,9.7173,9.6826,9.6788,9.6634,9.6288,9.5788,9.5374,9.4989,9.4489,9.4258,0.0,0.0,0.0,0.0,5.8963,0.0,6.293,6.296,6.3361,6.6989,6.8788,7.0585,7.3476,7.5429,7.7108,7.8593,7.9882,8.1093,8.2148,8.2304,8.2304,8.2304,8.2304,8.2304,8.2304,8.2304,8.2304,8.2304,8.2304,8.2695,8.3554,8.3515,8.3515,8.3594,8.3515,8.3086,8.2304,8.2304,8.2304,8.2304,8.2304,8.2304,8.2304,8.2062,8.187,8.175,8.2427,8.265,8.2601,8.4334,8.5018,8.4931,8.5085,8.617,8.7632,8.8526,8.9363,9.0163,9.0932,9.1248,9.1479,9.2249,9.2633,9.2903,9.3633,9.445,9.5143,9.5143,9.5711,9.6288,9.6288,9.6288,9.6288,9.6288,9.6288,9.6288,9.6288,9.6288,9.6288,9.6288,9.6288,9.6288,9.6288,9.6288,9.6288,9.6288,9.6288,9.6288,9.6288,9.6288,9.6557,9.7288,9.7442,9.7827,9.8596,9.875,9.8788,9.8788,9.8788,9.8788,9.8788,9.8788,9.8442,9.7673,9.7557,9.7134,9.6442,9.6326,9.5903,9.5143,9.5143,9.5143,0.0,0.0,0.0,0.0,5.8587,0.0,6.003,5.9398,5.9947,6.4051,6.4092,6.4798,6.9486,7.1752,7.304,7.3354,7.65,7.968,8.1992,8.2304,8.2304,8.2304,8.2304,8.2304,8.2304,8.2304,8.2304,8.2304,8.2304,8.2695,8.3554,8.2929,8.289,8.3594,8.2929,8.2461,8.2304,8.2304,8.2304,8.2304,8.2304,8.2304,8.2304,8.1909,8.1721,8.1789,8.3097,8.3546,8.3471,8.5411,8.5663,8.5008,8.6401,8.7555,8.8564,8.9363,9.021,9.0979,9.1133,9.1672,9.2287,9.2441,9.3403,9.4527,9.472,9.5365,9.6057,9.6057,9.6172,9.6288,9.6288,9.6288,9.6288,9.6288,9.6288,9.6288,9.6288,9.6288,9.6288,9.6288,9.6288,9.6288,9.6288,9.6288,9.6288,9.6288,9.6288,9.6288,9.6288,9.6288,9.6365,9.6519,9.7096,9.7557,9.775,9.8404,9.8788,9.8788,9.8788,9.8788,9.8788,9.8788,9.8711,9.8557,9.7865,9.7403,9.725,9.6634,9.6211,9.6057,9.6057,9.6057,0.0,0.0,0.0,5.8554,5.9099,0.0,0.0,5.8097,5.8056,6.1011,6.0582,6.101,6.5322,6.6806,6.8096,7.024,7.2815,7.5294,7.7403,8.0348,8.2304,8.2304,8.2304,8.2304,8.2304,8.2304,8.2304,8.2304,8.2304,8.25,8.2929,8.2539,8.25,8.2929,8.2539,8.2304,8.2304,8.2304,8.2304,8.2304,8.2217,8.2168,8.2125,8.1714,8.1781,8.2228,8.3283,8.3948,8.434,8.5744,8.5976,8.5632,8.6901,8.8171,8.9363,8.9739,9.074,9.1864,9.1864,9.2402,9.3172,9.3595,9.4335,9.5066,9.5518,9.5942,9.6288,9.6288,9.6288,9.6288,9.6288,9.6288,9.6288,9.6288,9.6288,9.6288,9.6288,9.6288,9.6288,9.6288,9.6288,9.6288,9.6288,9.6288,9.6288,9.6288,9.6288,9.6288,9.6288,9.6288,9.6442,9.6865,9.725,9.7865,9.8711,9.9221,9.9596,10.0019,10.0019,10.0019,10.0019,10.0019,9.9865,9.9452,9.8596,9.7942,9.7519,9.7096,9.6711,9.6288,9.6288,9.6288,0.0,0.0,0.0,0.0,0.0,6.0545,0.0,0.0,0.0,5.8419,5.8026,5.8443,6.1368,6.1911,6.3045,6.6508,6.8385,6.9844,7.0978,7.6112,7.9997,8.0465,8.1015,8.1367,8.1522,8.1522,8.1757,8.2265,8.1835,8.1757,8.2265,8.2304,8.2304,8.2304,8.2304,8.2304,8.2304,8.2264,8.2224,8.2223,8.2049,8.1958,8.1912,8.1563,8.1833,8.2628,8.3316,8.4093,8.497,8.594,8.644,8.6671,8.7363,8.8479,8.9701,9.0009,9.1171,9.2479,9.2479,9.3133,9.4066,9.4758,9.5104,9.5374,9.6095,9.6288,9.6288,9.6288,9.6288,9.6288,9.6288,9.6288,9.6288,9.6288,9.6288,9.6288,9.6288,9.6288,9.6288,9.6288,9.6288,9.6288,9.6288,9.6288,9.6288,9.6288,9.6288,9.6288,9.6288,9.6288,9.6557,9.7211,9.7403,9.8057,9.949,9.9913,10.0414,10.1019,10.1202,10.1279,10.1279,10.1279,10.1019,10.0289,9.949,9.8711,9.8019,9.7673,9.7096,9.6288,9.6288,9.6288,0.0,0.0,0.0,0.0,6.4922,6.5663,6.0312,0.0,5.9296,5.7213,0.0,5.6911,5.8076,0.0,0.0,5.8867,6.2274,6.4657,6.4123,6.7941,7.1623,7.3868,7.6315,7.8045,7.8688,7.8763,7.9752,8.2109,8.0107,7.9792,8.2187,8.2304,8.2304,8.2304,8.2304,8.2304,8.2304,8.2121,8.2048,8.2046,8.184,8.1718,8.1749,8.1483,8.1833,8.2628,8.3316,8.4093,8.5008,8.6594,8.7709,8.841,8.8526,8.8679,8.9026,9.0517,9.1672,9.2479,9.2479,9.3518,9.4874,9.4989,9.5518,9.6172,9.6288,9.6288,9.6288,9.6288,9.6288,9.6288,9.6288,9.6288,9.6288,9.6288,9.6288,9.6288,9.6288,9.6288,9.6288,9.6288,9.6288,9.6288,9.6288,9.6288,9.6288,9.6288,9.6288,9.6288,9.6288,9.6288,9.6326,9.6442,9.7057,9.7596,9.7788,9.9221,10.0106,10.0221,10.0904,10.1279,10.1279,10.1279,10.1289,10.1212,10.0404,9.9913,9.9798,9.825,9.7096,9.6288,9.6288,9.6288,0.0,0.0,0.0,0.0,0.0,0.0,6.1522,0.0,5.8668,5.8089,0.0,0.0,0.0,0.0,0.0,0.0,5.918,6.0265,5.9876,6.2292,6.5957,7.1053,7.2647,7.4033,7.5867,7.6119,7.6788,7.8302,7.7849,7.8134,7.9678,8.1152,8.1967,8.1967,8.1967,8.1967,8.1967,8.187,8.1837,8.1834,8.1636,8.1514,8.1504,8.1311,8.1961,8.3182,8.348,8.464,8.6401,8.7094,8.7902,8.8756,8.921,8.971,9.0287,9.1518,9.2479,9.3249,9.3787,9.4749,9.5749,9.5749,9.6019,9.6288,9.6288,9.6288,9.6288,9.6288,9.6288,9.6288,9.6288,9.6288,9.6288,9.6288,9.6288,9.6288,9.6288,9.6288,9.6288,9.6288,9.6288,9.6288,9.6288,9.6288,9.6288,9.6288,9.6288,9.6288,9.6288,9.6288,9.6288,9.6288,9.6596,9.698,9.7442,9.8634,9.9567,10.0106,10.0904,10.1279,10.1279,10.1279,10.1279,10.1279,10.1019,10.0289,9.9336,9.8596,9.7596,9.6288,9.6288,9.6288,6.9701,0.0,0.0,0.0,0.0,0.0,0.0,0.0,0.0,0.0,5.7929,0.0,0.0,0.0,0.0,0.0,0.0,5.6819,5.629,5.7533,6.0733,6.6644,6.8585,7.0327,7.2725,7.2869,7.3335,7.4767,7.4784,7.5671,7.7782,7.9633,8.0987,8.1684,8.1684,8.1684,8.1684,8.1662,8.1632,8.1627,8.1391,8.1311,8.1305,8.1383,8.2208,8.364,8.4101,8.5478,8.744,8.7902,8.844,8.9133,9.021,9.1018,9.1633,9.2287,9.3172,9.4143,9.4797,9.5557,9.6288,9.6288,9.6288,9.6288,9.6288,9.6288,9.6288,9.6288,9.6288,9.6288,9.6288,9.6288,9.6288,9.6288,9.6288,9.6288,9.6288,9.6288,9.6288,9.6288,9.6288,9.6288,9.6288,9.6288,9.6288,9.6288,9.6288,9.6288,9.6288,9.6288,9.6288,9.6288,9.6288,9.6557,9.7134,9.8173,9.925,10.0414,10.1019,10.1279,10.1279,10.1279,10.1279,10.1279,10.1279,10.0712,9.9481,9.925,9.8404,9.698,9.6519,9.6288,0.0,0.0,0.0,6.9294,0.0,0.0,0.0,0.0,6.2049,0.0,0.0,0.0,0.0,0.0,0.0,0.0,0.0,0.0,0.0,5.348,5.5285,5.8784,6.3583,6.7367,6.9187,6.8626,6.946,7.2757,7.0676,7.1779,7.7584,7.797,7.913,8.1606,8.1684,8.1684,8.1684,8.1527,8.1424,8.1418,8.1224,8.1116,8.1154,8.1908,8.2747,8.3678,8.5324,8.6555,8.7517,8.9162,8.9855,9.0047,9.1748,9.2441,9.2441,9.2479,9.3518,9.4951,9.4989,9.5557,9.6288,9.6288,9.6288,9.6288,9.6288,9.6288,9.6288,9.6288,9.6288,9.6288,9.6288,9.6288,9.6288,9.6288,9.6288,9.6288,9.6288,9.6288,9.6288,9.6288,9.6288,9.6288,9.6288,9.6288,9.6288,9.6288,9.6288,9.6288,9.6288,9.6288,9.6288,9.6288,9.6288,9.6326,9.6326,9.7865,9.9481,10.1212,10.1279,10.1279,10.1279,10.1279,10.1279,10.1279,10.1279,10.1289,10.1202,10.0404,9.9606,9.8673,9.7057,9.6288,0.0,0.0,7.7928,7.351,0.0,0.0,0.0,0.0,0.0,0.0,0.0,0.0,0.0,0.0,0.0,0.0,0.0,0.0,0.0,5.2803,5.3757,5.6019,5.9817,6.2516,6.313,6.3031,6.4063,6.6748,6.6561,6.8683,7.3995,7.6306,7.8399,8.0364,8.1015,8.1285,8.1285,8.1242,8.1217,8.1217,8.1662,8.19,8.19,8.2755,8.3632,8.4516,8.5632,8.6901,8.8372,8.9432,9.0239,9.0902,9.2056,9.2826,9.3364,9.395,9.4527,9.5066,9.5672,9.6057,9.6288,9.6288,9.6288,9.6288,9.6288,9.6288,9.6288,9.6288,9.6288,9.6288,9.6288,9.6288,9.6288,9.6288,9.6288,9.6288,9.6288,9.6288,9.6288,9.6288,9.6288,9.6288,9.6288,9.6288,9.6288,9.6288,9.6288,9.6288,9.6288,9.6288,9.6288,9.6288,9.6288,9.6288,9.6288,9.7827,9.9288,10.0404,10.1019,10.1279,10.1279,10.1279,10.1279,10.1279,10.1279,10.1019,10.0481,10.0221,9.9644,9.8788,9.8211,9.7365,7.6975,7.8628,0.0,7.5932,7.4994,0.0,6.8833,0.0,6.7849,0.0,0.0,0.0,0.0,0.0,0.0,0.0,0.0,0.0,0.0,5.2115,5.2583,5.394,5.6831,5.8955,5.9565,5.9477,6.013,6.1967,6.2753,6.5217,6.9897,7.3562,7.6669,7.9246,8.0746,8.1516,8.1516,8.1823,8.1823,8.1554,8.2362,8.2901,8.3247,8.4093,8.4939,8.5863,8.697,8.8094,8.921,9.0364,9.1171,9.1787,9.2941,9.371,9.422,9.4797,9.522,9.5518,9.6095,9.6288,9.6288,9.6288,9.6288,9.6288,9.6288,9.6288,9.6288,9.6288,9.6288,9.6288,9.6288,9.6288,9.6288,9.6288,9.6288,9.6288,9.6288,9.6288,9.6288,9.6288,9.6288,9.6288,9.6288,9.6288,9.6288,9.6288,9.6288,9.6288,9.6288,9.6288,9.6288,9.6288,9.6288,9.6442,9.6711,9.8288,9.949,10.0106,10.0904,10.1279,10.1279,10.1279,10.1702,10.2597,10.1789,10.152,10.1914,10.0991,10.0096,9.9259,9.9558,9.8788]}]]